<?xml version='1.0' encoding='UTF-8'?>
<gpx version="1.1" creator="https://www.komoot.de" xmlns="http://www.topografix.com/GPX/1/1" xmlns:xsi="http://www.w3.org/2001/XMLSchema-instance" xsi:schemaLocation="http://www.topografix.com/GPX/1/1 http://www.topografix.com/GPX/1/1/gpx.xsd">
  <metadata>
    <name>67_960Albtal</name>
    <author>
      <link href="https://www.komoot.de">
        <text>komoot</text>
        <type>text/html</type>
      </link>
    </author>
  </metadata>
  <trk>
    <name>67_960Albtal</name>
    <trkseg>
      <trkpt lat="47.541402" lon="7.870798">
        <ele>341.116559</ele>
        <time>2021-11-19T21:15:33.295Z</time>
      </trkpt>
      <trkpt lat="47.541410" lon="7.870791">
        <ele>341.116559</ele>
        <time>2021-11-19T21:15:33.411Z</time>
      </trkpt>
      <trkpt lat="47.541576" lon="7.870664">
        <ele>341.116559</ele>
        <time>2021-11-19T21:15:37.555Z</time>
      </trkpt>
      <trkpt lat="47.541796" lon="7.871042">
        <ele>341.116559</ele>
        <time>2021-11-19T21:15:44.657Z</time>
      </trkpt>
      <trkpt lat="47.541953" lon="7.871286">
        <ele>341.116559</ele>
        <time>2021-11-19T21:15:49.479Z</time>
      </trkpt>
      <trkpt lat="47.542039" lon="7.871556">
        <ele>341.359189</ele>
        <time>2021-11-19T21:15:53.863Z</time>
      </trkpt>
      <trkpt lat="47.542067" lon="7.871664">
        <ele>341.660916</ele>
        <time>2021-11-19T21:15:55.553Z</time>
      </trkpt>
      <trkpt lat="47.542091" lon="7.871721">
        <ele>341.836121</ele>
        <time>2021-11-19T21:15:56.148Z</time>
      </trkpt>
      <trkpt lat="47.542218" lon="7.871866">
        <ele>342.455603</ele>
        <time>2021-11-19T21:16:01.241Z</time>
      </trkpt>
      <trkpt lat="47.542394" lon="7.872341">
        <ele>343.868762</ele>
        <time>2021-11-19T21:16:11.293Z</time>
      </trkpt>
      <trkpt lat="47.542436" lon="7.872494">
        <ele>344.299521</ele>
        <time>2021-11-19T21:16:14.684Z</time>
      </trkpt>
      <trkpt lat="47.542537" lon="7.872430">
        <ele>344.723932</ele>
        <time>2021-11-19T21:16:16.797Z</time>
      </trkpt>
      <trkpt lat="47.542714" lon="7.872334">
        <ele>345.452161</ele>
        <time>2021-11-19T21:16:23.753Z</time>
      </trkpt>
      <trkpt lat="47.542814" lon="7.872280">
        <ele>345.863376</ele>
        <time>2021-11-19T21:16:26.767Z</time>
      </trkpt>
      <trkpt lat="47.542919" lon="7.872226">
        <ele>346.292792</ele>
        <time>2021-11-19T21:16:30.606Z</time>
      </trkpt>
      <trkpt lat="47.543013" lon="7.872182">
        <ele>346.673658</ele>
        <time>2021-11-19T21:16:34.112Z</time>
      </trkpt>
      <trkpt lat="47.543233" lon="7.872082">
        <ele>347.562735</ele>
        <time>2021-11-19T21:16:41.351Z</time>
      </trkpt>
      <trkpt lat="47.543251" lon="7.872152">
        <ele>347.758090</ele>
        <time>2021-11-19T21:16:44.724Z</time>
      </trkpt>
      <trkpt lat="47.543332" lon="7.872237">
        <ele>348.192174</ele>
        <time>2021-11-19T21:16:48.029Z</time>
      </trkpt>
      <trkpt lat="47.544390" lon="7.872423">
        <ele>355.047656</ele>
        <time>2021-11-19T21:17:29.749Z</time>
      </trkpt>
      <trkpt lat="47.544883" lon="7.872555">
        <ele>358.271264</ele>
        <time>2021-11-19T21:17:52.158Z</time>
      </trkpt>
      <trkpt lat="47.545131" lon="7.872664">
        <ele>359.940398</ele>
        <time>2021-11-19T21:18:03.162Z</time>
      </trkpt>
      <trkpt lat="47.545375" lon="7.872836">
        <ele>361.706203</ele>
        <time>2021-11-19T21:18:14.103Z</time>
      </trkpt>
      <trkpt lat="47.545478" lon="7.872968">
        <ele>362.596188</ele>
        <time>2021-11-19T21:18:20.910Z</time>
      </trkpt>
      <trkpt lat="47.545515" lon="7.873015">
        <ele>362.914690</ele>
        <time>2021-11-19T21:18:22.867Z</time>
      </trkpt>
      <trkpt lat="47.545746" lon="7.873302">
        <ele>364.884820</ele>
        <time>2021-11-19T21:18:36.067Z</time>
      </trkpt>
      <trkpt lat="47.545934" lon="7.873549">
        <ele>366.526890</ele>
        <time>2021-11-19T21:18:46.167Z</time>
      </trkpt>
      <trkpt lat="47.546077" lon="7.873763">
        <ele>367.855163</ele>
        <time>2021-11-19T21:18:55.363Z</time>
      </trkpt>
      <trkpt lat="47.546135" lon="7.873859">
        <ele>368.423469</ele>
        <time>2021-11-19T21:18:58.602Z</time>
      </trkpt>
      <trkpt lat="47.546309" lon="7.874154">
        <ele>370.151514</ele>
        <time>2021-11-19T21:19:09.717Z</time>
      </trkpt>
      <trkpt lat="47.547126" lon="7.875801">
        <ele>375.841632</ele>
        <time>2021-11-19T21:19:55.478Z</time>
      </trkpt>
      <trkpt lat="47.547574" lon="7.876801">
        <ele>377.938492</ele>
        <time>2021-11-19T21:20:14.474Z</time>
      </trkpt>
      <trkpt lat="47.547992" lon="7.877974">
        <ele>377.135720</ele>
        <time>2021-11-19T21:20:27.274Z</time>
      </trkpt>
      <trkpt lat="47.548234" lon="7.878638">
        <ele>376.679023</ele>
        <time>2021-11-19T21:20:32.586Z</time>
      </trkpt>
      <trkpt lat="47.548422" lon="7.878959">
        <ele>376.113324</ele>
        <time>2021-11-19T21:20:35.429Z</time>
      </trkpt>
      <trkpt lat="47.548718" lon="7.879258">
        <ele>374.616764</ele>
        <time>2021-11-19T21:20:38.968Z</time>
      </trkpt>
      <trkpt lat="47.549140" lon="7.879391">
        <ele>372.814463</ele>
        <time>2021-11-19T21:20:43.154Z</time>
      </trkpt>
      <trkpt lat="47.549318" lon="7.879398">
        <ele>372.070627</ele>
        <time>2021-11-19T21:20:44.781Z</time>
      </trkpt>
      <trkpt lat="47.549327" lon="7.879547">
        <ele>371.648836</ele>
        <time>2021-11-19T21:20:45.768Z</time>
      </trkpt>
      <trkpt lat="47.549726" lon="7.880786">
        <ele>367.948022</ele>
        <time>2021-11-19T21:20:54.702Z</time>
      </trkpt>
      <trkpt lat="47.549927" lon="7.881490">
        <ele>366.094244</ele>
        <time>2021-11-19T21:20:59.734Z</time>
      </trkpt>
      <trkpt lat="47.550234" lon="7.883221">
        <ele>361.595253</ele>
        <time>2021-11-19T21:21:12.135Z</time>
      </trkpt>
      <trkpt lat="47.550332" lon="7.884727">
        <ele>357.176343</ele>
        <time>2021-11-19T21:21:21.976Z</time>
      </trkpt>
      <trkpt lat="47.550391" lon="7.885109">
        <ele>356.031813</ele>
        <time>2021-11-19T21:21:24.506Z</time>
      </trkpt>
      <trkpt lat="47.550548" lon="7.885799">
        <ele>353.644655</ele>
        <time>2021-11-19T21:21:29.113Z</time>
      </trkpt>
      <trkpt lat="47.550601" lon="7.886078">
        <ele>352.536097</ele>
        <time>2021-11-19T21:21:30.942Z</time>
      </trkpt>
      <trkpt lat="47.550677" lon="7.886476">
        <ele>350.954107</ele>
        <time>2021-11-19T21:21:33.542Z</time>
      </trkpt>
      <trkpt lat="47.550758" lon="7.887295">
        <ele>347.788214</ele>
        <time>2021-11-19T21:21:38.685Z</time>
      </trkpt>
      <trkpt lat="47.550789" lon="7.887816">
        <ele>345.787812</ele>
        <time>2021-11-19T21:21:41.916Z</time>
      </trkpt>
      <trkpt lat="47.550831" lon="7.888611">
        <ele>342.548222</ele>
        <time>2021-11-19T21:21:46.875Z</time>
      </trkpt>
      <trkpt lat="47.550833" lon="7.889069">
        <ele>340.613556</ele>
        <time>2021-11-19T21:21:49.685Z</time>
      </trkpt>
      <trkpt lat="47.550915" lon="7.890600">
        <ele>334.126175</ele>
        <time>2021-11-19T21:21:59.078Z</time>
      </trkpt>
      <trkpt lat="47.550904" lon="7.891725">
        <ele>330.715230</ele>
        <time>2021-11-19T21:22:06.081Z</time>
      </trkpt>
      <trkpt lat="47.550892" lon="7.893176">
        <ele>326.681523</ele>
        <time>2021-11-19T21:22:15.692Z</time>
      </trkpt>
      <trkpt lat="47.550908" lon="7.894308">
        <ele>325.167498</ele>
        <time>2021-11-19T21:22:24.898Z</time>
      </trkpt>
      <trkpt lat="47.550900" lon="7.894533">
        <ele>324.975500</ele>
        <time>2021-11-19T21:22:26.692Z</time>
      </trkpt>
      <trkpt lat="47.550878" lon="7.895158">
        <ele>324.442187</ele>
        <time>2021-11-19T21:22:32.103Z</time>
      </trkpt>
      <trkpt lat="47.550838" lon="7.895509">
        <ele>324.138851</ele>
        <time>2021-11-19T21:22:35.266Z</time>
      </trkpt>
      <trkpt lat="47.550660" lon="7.896255">
        <ele>323.288935</ele>
        <time>2021-11-19T21:22:41.757Z</time>
      </trkpt>
      <trkpt lat="47.550639" lon="7.896345">
        <ele>323.115269</ele>
        <time>2021-11-19T21:22:42.949Z</time>
      </trkpt>
      <trkpt lat="47.550648" lon="7.896481">
        <ele>322.866055</ele>
        <time>2021-11-19T21:22:43.903Z</time>
      </trkpt>
      <trkpt lat="47.550819" lon="7.898109">
        <ele>319.861324</ele>
        <time>2021-11-19T21:22:55.656Z</time>
      </trkpt>
      <trkpt lat="47.550801" lon="7.900244">
        <ele>314.358866</ele>
        <time>2021-11-19T21:23:09.493Z</time>
      </trkpt>
      <trkpt lat="47.550769" lon="7.901362">
        <ele>311.142093</ele>
        <time>2021-11-19T21:23:16.765Z</time>
      </trkpt>
      <trkpt lat="47.550757" lon="7.901591">
        <ele>310.568442</ele>
        <time>2021-11-19T21:23:18.901Z</time>
      </trkpt>
      <trkpt lat="47.550688" lon="7.902451">
        <ele>308.428876</ele>
        <time>2021-11-19T21:23:27.335Z</time>
      </trkpt>
      <trkpt lat="47.550498" lon="7.903445">
        <ele>305.876639</ele>
        <time>2021-11-19T21:23:37.585Z</time>
      </trkpt>
      <trkpt lat="47.550302" lon="7.904164">
        <ele>303.957594</ele>
        <time>2021-11-19T21:23:44.845Z</time>
      </trkpt>
      <trkpt lat="47.550025" lon="7.904774">
        <ele>302.130246</ele>
        <time>2021-11-19T21:23:51.770Z</time>
      </trkpt>
      <trkpt lat="47.549868" lon="7.905010">
        <ele>301.306638</ele>
        <time>2021-11-19T21:23:54.902Z</time>
      </trkpt>
      <trkpt lat="47.549867" lon="7.905155">
        <ele>300.946222</ele>
        <time>2021-11-19T21:23:56.299Z</time>
      </trkpt>
      <trkpt lat="47.550067" lon="7.905245">
        <ele>300.176501</ele>
        <time>2021-11-19T21:23:59.224Z</time>
      </trkpt>
      <trkpt lat="47.550283" lon="7.905413">
        <ele>299.278141</ele>
        <time>2021-11-19T21:24:02.674Z</time>
      </trkpt>
      <trkpt lat="47.550497" lon="7.905558">
        <ele>298.411589</ele>
        <time>2021-11-19T21:24:06.031Z</time>
      </trkpt>
      <trkpt lat="47.549539" lon="7.908625">
        <ele>293.131283</ele>
        <time>2021-11-19T21:24:30.485Z</time>
      </trkpt>
      <trkpt lat="47.549520" lon="7.908678">
        <ele>293.074551</ele>
        <time>2021-11-19T21:24:30.981Z</time>
      </trkpt>
      <trkpt lat="47.549305" lon="7.909392">
        <ele>292.335447</ele>
        <time>2021-11-19T21:24:37.336Z</time>
      </trkpt>
      <trkpt lat="47.549257" lon="7.909549">
        <ele>292.172511</ele>
        <time>2021-11-19T21:24:38.781Z</time>
      </trkpt>
      <trkpt lat="47.549195" lon="7.909756">
        <ele>291.958422</ele>
        <time>2021-11-19T21:24:40.614Z</time>
      </trkpt>
      <trkpt lat="47.549102" lon="7.910058">
        <ele>291.644615</ele>
        <time>2021-11-19T21:24:43.331Z</time>
      </trkpt>
      <trkpt lat="47.549012" lon="7.910340">
        <ele>291.349726</ele>
        <time>2021-11-19T21:24:45.831Z</time>
      </trkpt>
      <trkpt lat="47.548412" lon="7.912168">
        <ele>289.800608</ele>
        <time>2021-11-19T21:25:02.157Z</time>
      </trkpt>
      <trkpt lat="47.548027" lon="7.913334">
        <ele>289.048210</ele>
        <time>2021-11-19T21:25:12.918Z</time>
      </trkpt>
      <trkpt lat="47.547994" lon="7.913433">
        <ele>289.023631</ele>
        <time>2021-11-19T21:25:13.838Z</time>
      </trkpt>
      <trkpt lat="47.547423" lon="7.915080">
        <ele>288.611458</ele>
        <time>2021-11-19T21:25:31.315Z</time>
      </trkpt>
      <trkpt lat="47.547113" lon="7.915971">
        <ele>288.742974</ele>
        <time>2021-11-19T21:25:41.762Z</time>
      </trkpt>
      <trkpt lat="47.547091" lon="7.916039">
        <ele>288.764925</ele>
        <time>2021-11-19T21:25:42.787Z</time>
      </trkpt>
      <trkpt lat="47.547032" lon="7.916218">
        <ele>288.822912</ele>
        <time>2021-11-19T21:25:44.989Z</time>
      </trkpt>
      <trkpt lat="47.546821" lon="7.916867">
        <ele>289.032610</ele>
        <time>2021-11-19T21:25:53.098Z</time>
      </trkpt>
      <trkpt lat="47.546262" lon="7.919081">
        <ele>289.680276</ele>
        <time>2021-11-19T21:26:20.610Z</time>
      </trkpt>
      <trkpt lat="47.546128" lon="7.919617">
        <ele>289.829967</ele>
        <time>2021-11-19T21:26:26.078Z</time>
      </trkpt>
      <trkpt lat="47.545973" lon="7.920313">
        <ele>290.036155</ele>
        <time>2021-11-19T21:26:34.541Z</time>
      </trkpt>
      <trkpt lat="47.545913" lon="7.920765">
        <ele>290.427172</ele>
        <time>2021-11-19T21:26:38.715Z</time>
      </trkpt>
      <trkpt lat="47.545881" lon="7.921096">
        <ele>290.711001</ele>
        <time>2021-11-19T21:26:42.731Z</time>
      </trkpt>
      <trkpt lat="47.545810" lon="7.921755">
        <ele>291.277457</ele>
        <time>2021-11-19T21:26:51.640Z</time>
      </trkpt>
      <trkpt lat="47.545778" lon="7.921947">
        <ele>291.445327</ele>
        <time>2021-11-19T21:26:55.249Z</time>
      </trkpt>
      <trkpt lat="47.545714" lon="7.922249">
        <ele>291.714010</ele>
        <time>2021-11-19T21:26:58.448Z</time>
      </trkpt>
      <trkpt lat="47.545699" lon="7.922325">
        <ele>291.781222</ele>
        <time>2021-11-19T21:26:59.645Z</time>
      </trkpt>
      <trkpt lat="47.545690" lon="7.922369">
        <ele>291.820247</ele>
        <time>2021-11-19T21:27:01.743Z</time>
      </trkpt>
      <trkpt lat="47.545641" lon="7.922610">
        <ele>292.033894</ele>
        <time>2021-11-19T21:27:04.097Z</time>
      </trkpt>
      <trkpt lat="47.545587" lon="7.922895">
        <ele>292.299263</ele>
        <time>2021-11-19T21:27:09.893Z</time>
      </trkpt>
      <trkpt lat="47.545553" lon="7.923142">
        <ele>292.901005</ele>
        <time>2021-11-19T21:27:12.540Z</time>
      </trkpt>
      <trkpt lat="47.545536" lon="7.923407">
        <ele>293.536429</ele>
        <time>2021-11-19T21:27:18.430Z</time>
      </trkpt>
      <trkpt lat="47.545521" lon="7.923709">
        <ele>294.259274</ele>
        <time>2021-11-19T21:27:22.583Z</time>
      </trkpt>
      <trkpt lat="47.545481" lon="7.924396">
        <ele>295.905282</ele>
        <time>2021-11-19T21:27:37.186Z</time>
      </trkpt>
      <trkpt lat="47.545466" lon="7.924880">
        <ele>297.061843</ele>
        <time>2021-11-19T21:27:48.493Z</time>
      </trkpt>
      <trkpt lat="47.545446" lon="7.925350">
        <ele>298.185996</ele>
        <time>2021-11-19T21:27:58.868Z</time>
      </trkpt>
      <trkpt lat="47.545417" lon="7.925848">
        <ele>299.126961</ele>
        <time>2021-11-19T21:28:09.347Z</time>
      </trkpt>
      <trkpt lat="47.545409" lon="7.926773">
        <ele>300.583685</ele>
        <time>2021-11-19T21:28:26.548Z</time>
      </trkpt>
      <trkpt lat="47.545407" lon="7.927001">
        <ele>300.942748</ele>
        <time>2021-11-19T21:28:30.357Z</time>
      </trkpt>
      <trkpt lat="47.545406" lon="7.927306">
        <ele>301.423039</ele>
        <time>2021-11-19T21:28:34.961Z</time>
      </trkpt>
      <trkpt lat="47.545421" lon="7.927686">
        <ele>302.022450</ele>
        <time>2021-11-19T21:28:40.497Z</time>
      </trkpt>
      <trkpt lat="47.545475" lon="7.928419">
        <ele>302.630283</ele>
        <time>2021-11-19T21:28:49.814Z</time>
      </trkpt>
      <trkpt lat="47.545563" lon="7.929641">
        <ele>301.501755</ele>
        <time>2021-11-19T21:28:59.694Z</time>
      </trkpt>
      <trkpt lat="47.545661" lon="7.930955">
        <ele>300.294538</ele>
        <time>2021-11-19T21:29:09.090Z</time>
      </trkpt>
      <trkpt lat="47.545696" lon="7.931497">
        <ele>299.828593</ele>
        <time>2021-11-19T21:29:13.058Z</time>
      </trkpt>
      <trkpt lat="47.545721" lon="7.931992">
        <ele>299.403803</ele>
        <time>2021-11-19T21:29:16.851Z</time>
      </trkpt>
      <trkpt lat="47.545724" lon="7.932758">
        <ele>298.748273</ele>
        <time>2021-11-19T21:29:23.061Z</time>
      </trkpt>
      <trkpt lat="47.545702" lon="7.933290">
        <ele>298.292150</ele>
        <time>2021-11-19T21:29:27.703Z</time>
      </trkpt>
      <trkpt lat="47.545674" lon="7.933625">
        <ele>298.180558</ele>
        <time>2021-11-19T21:29:30.904Z</time>
      </trkpt>
      <trkpt lat="47.545457" lon="7.935110">
        <ele>299.106400</ele>
        <time>2021-11-19T21:29:49.039Z</time>
      </trkpt>
      <trkpt lat="47.545074" lon="7.936484">
        <ele>300.275568</ele>
        <time>2021-11-19T21:30:10.566Z</time>
      </trkpt>
      <trkpt lat="47.544903" lon="7.936917">
        <ele>300.867015</ele>
        <time>2021-11-19T21:30:17.882Z</time>
      </trkpt>
      <trkpt lat="47.544705" lon="7.937395">
        <ele>301.528216</ele>
        <time>2021-11-19T21:30:26.066Z</time>
      </trkpt>
      <trkpt lat="47.544472" lon="7.937932">
        <ele>302.280844</ele>
        <time>2021-11-19T21:30:35.474Z</time>
      </trkpt>
      <trkpt lat="47.543826" lon="7.939433">
        <ele>304.336960</ele>
        <time>2021-11-19T21:31:02.355Z</time>
      </trkpt>
      <trkpt lat="47.543435" lon="7.940670">
        <ele>305.901809</ele>
        <time>2021-11-19T21:31:22.316Z</time>
      </trkpt>
      <trkpt lat="47.543161" lon="7.942213">
        <ele>306.524906</ele>
        <time>2021-11-19T21:31:43.165Z</time>
      </trkpt>
      <trkpt lat="47.543007" lon="7.943867">
        <ele>306.264181</ele>
        <time>2021-11-19T21:31:58.709Z</time>
      </trkpt>
      <trkpt lat="47.542913" lon="7.945267">
        <ele>304.627280</ele>
        <time>2021-11-19T21:32:09.469Z</time>
      </trkpt>
      <trkpt lat="47.542872" lon="7.945781">
        <ele>304.025093</ele>
        <time>2021-11-19T21:32:13.065Z</time>
      </trkpt>
      <trkpt lat="47.542875" lon="7.946089">
        <ele>303.600686</ele>
        <time>2021-11-19T21:32:15.156Z</time>
      </trkpt>
      <trkpt lat="47.542902" lon="7.946514">
        <ele>302.914471</ele>
        <time>2021-11-19T21:32:18.035Z</time>
      </trkpt>
      <trkpt lat="47.542943" lon="7.946806">
        <ele>302.435029</ele>
        <time>2021-11-19T21:32:20.082Z</time>
      </trkpt>
      <trkpt lat="47.542974" lon="7.946965">
        <ele>302.168987</ele>
        <time>2021-11-19T21:32:21.292Z</time>
      </trkpt>
      <trkpt lat="47.542979" lon="7.946989">
        <ele>302.128611</ele>
        <time>2021-11-19T21:32:21.448Z</time>
      </trkpt>
      <trkpt lat="47.543007" lon="7.947104">
        <ele>301.932089</ele>
        <time>2021-11-19T21:32:22.296Z</time>
      </trkpt>
      <trkpt lat="47.543087" lon="7.947317">
        <ele>301.540257</ele>
        <time>2021-11-19T21:32:24.039Z</time>
      </trkpt>
      <trkpt lat="47.543191" lon="7.947615">
        <ele>301.000985</ele>
        <time>2021-11-19T21:32:26.480Z</time>
      </trkpt>
      <trkpt lat="47.543242" lon="7.947745">
        <ele>300.759280</ele>
        <time>2021-11-19T21:32:27.610Z</time>
      </trkpt>
      <trkpt lat="47.543273" lon="7.947816">
        <ele>300.623353</ele>
        <time>2021-11-19T21:32:28.237Z</time>
      </trkpt>
      <trkpt lat="47.543358" lon="7.947967">
        <ele>300.307296</ele>
        <time>2021-11-19T21:32:29.680Z</time>
      </trkpt>
      <trkpt lat="47.543455" lon="7.948127">
        <ele>299.961594</ele>
        <time>2021-11-19T21:32:31.347Z</time>
      </trkpt>
      <trkpt lat="47.543532" lon="7.948214">
        <ele>299.730982</ele>
        <time>2021-11-19T21:32:32.428Z</time>
      </trkpt>
      <trkpt lat="47.543579" lon="7.948287">
        <ele>299.568817</ele>
        <time>2021-11-19T21:32:33.191Z</time>
      </trkpt>
      <trkpt lat="47.543760" lon="7.948548">
        <ele>299.538003</ele>
        <time>2021-11-19T21:32:36.080Z</time>
      </trkpt>
      <trkpt lat="47.543864" lon="7.948694">
        <ele>299.527321</ele>
        <time>2021-11-19T21:32:37.752Z</time>
      </trkpt>
      <trkpt lat="47.544239" lon="7.949202">
        <ele>299.489439</ele>
        <time>2021-11-19T21:32:45.114Z</time>
      </trkpt>
      <trkpt lat="47.544521" lon="7.949558">
        <ele>299.461818</ele>
        <time>2021-11-19T21:32:51.287Z</time>
      </trkpt>
      <trkpt lat="47.544901" lon="7.950044">
        <ele>299.424393</ele>
        <time>2021-11-19T21:33:00.683Z</time>
      </trkpt>
      <trkpt lat="47.545166" lon="7.950366">
        <ele>299.487941</ele>
        <time>2021-11-19T21:33:07.233Z</time>
      </trkpt>
      <trkpt lat="47.545434" lon="7.950668">
        <ele>299.557951</ele>
        <time>2021-11-19T21:33:13.023Z</time>
      </trkpt>
      <trkpt lat="47.545542" lon="7.950842">
        <ele>299.591126</ele>
        <time>2021-11-19T21:33:15.449Z</time>
      </trkpt>
      <trkpt lat="47.545667" lon="7.950979">
        <ele>299.623455</ele>
        <time>2021-11-19T21:33:18.054Z</time>
      </trkpt>
      <trkpt lat="47.545737" lon="7.951055">
        <ele>299.641499</ele>
        <time>2021-11-19T21:33:19.308Z</time>
      </trkpt>
      <trkpt lat="47.545876" lon="7.951233">
        <ele>299.679700</ele>
        <time>2021-11-19T21:33:21.701Z</time>
      </trkpt>
      <trkpt lat="47.546112" lon="7.951485">
        <ele>299.740186</ele>
        <time>2021-11-19T21:33:26.244Z</time>
      </trkpt>
      <trkpt lat="47.546164" lon="7.951520">
        <ele>299.752062</ele>
        <time>2021-11-19T21:33:26.878Z</time>
      </trkpt>
      <trkpt lat="47.546212" lon="7.951535">
        <ele>299.762261</ele>
        <time>2021-11-19T21:33:27.643Z</time>
      </trkpt>
      <trkpt lat="47.546231" lon="7.951558">
        <ele>299.767363</ele>
        <time>2021-11-19T21:33:28.372Z</time>
      </trkpt>
      <trkpt lat="47.546421" lon="7.951793">
        <ele>299.750032</ele>
        <time>2021-11-19T21:33:31.554Z</time>
      </trkpt>
      <trkpt lat="47.546634" lon="7.952024">
        <ele>299.637086</ele>
        <time>2021-11-19T21:33:35.088Z</time>
      </trkpt>
      <trkpt lat="47.546695" lon="7.952091">
        <ele>299.604596</ele>
        <time>2021-11-19T21:33:36.043Z</time>
      </trkpt>
      <trkpt lat="47.546776" lon="7.952185">
        <ele>299.560571</ele>
        <time>2021-11-19T21:33:37.229Z</time>
      </trkpt>
      <trkpt lat="47.546935" lon="7.952372">
        <ele>299.473709</ele>
        <time>2021-11-19T21:33:40.165Z</time>
      </trkpt>
      <trkpt lat="47.547090" lon="7.952543">
        <ele>299.391021</ele>
        <time>2021-11-19T21:33:42.802Z</time>
      </trkpt>
      <trkpt lat="47.547400" lon="7.952910">
        <ele>299.221233</ele>
        <time>2021-11-19T21:33:48.123Z</time>
      </trkpt>
      <trkpt lat="47.547458" lon="7.952975">
        <ele>299.190117</ele>
        <time>2021-11-19T21:33:49.050Z</time>
      </trkpt>
      <trkpt lat="47.547550" lon="7.953078">
        <ele>299.140777</ele>
        <time>2021-11-19T21:33:50.547Z</time>
      </trkpt>
      <trkpt lat="47.547624" lon="7.953160">
        <ele>299.101238</ele>
        <time>2021-11-19T21:33:51.792Z</time>
      </trkpt>
      <trkpt lat="47.547797" lon="7.953355">
        <ele>299.016609</ele>
        <time>2021-11-19T21:33:54.781Z</time>
      </trkpt>
      <trkpt lat="47.547871" lon="7.953437">
        <ele>298.994973</ele>
        <time>2021-11-19T21:33:56.036Z</time>
      </trkpt>
      <trkpt lat="47.547994" lon="7.953584">
        <ele>298.957971</ele>
        <time>2021-11-19T21:33:58.163Z</time>
      </trkpt>
      <trkpt lat="47.548115" lon="7.953729">
        <ele>298.921532</ele>
        <time>2021-11-19T21:34:00.286Z</time>
      </trkpt>
      <trkpt lat="47.548251" lon="7.953895">
        <ele>298.880274</ele>
        <time>2021-11-19T21:34:02.666Z</time>
      </trkpt>
      <trkpt lat="47.548342" lon="7.954009">
        <ele>298.852371</ele>
        <time>2021-11-19T21:34:04.307Z</time>
      </trkpt>
      <trkpt lat="47.548542" lon="7.954269">
        <ele>298.790072</ele>
        <time>2021-11-19T21:34:08.037Z</time>
      </trkpt>
      <trkpt lat="47.548833" lon="7.954652">
        <ele>298.698934</ele>
        <time>2021-11-19T21:34:13.578Z</time>
      </trkpt>
      <trkpt lat="47.549042" lon="7.954942">
        <ele>298.631888</ele>
        <time>2021-11-19T21:34:17.721Z</time>
      </trkpt>
      <trkpt lat="47.549157" lon="7.955099">
        <ele>298.599505</ele>
        <time>2021-11-19T21:34:20.006Z</time>
      </trkpt>
      <trkpt lat="47.549444" lon="7.955496">
        <ele>298.545235</ele>
        <time>2021-11-19T21:34:25.852Z</time>
      </trkpt>
      <trkpt lat="47.550205" lon="7.956552">
        <ele>298.401122</ele>
        <time>2021-11-19T21:34:40.485Z</time>
      </trkpt>
      <trkpt lat="47.550380" lon="7.956806">
        <ele>298.367262</ele>
        <time>2021-11-19T21:34:44.046Z</time>
      </trkpt>
      <trkpt lat="47.550445" lon="7.956918">
        <ele>298.357269</ele>
        <time>2021-11-19T21:34:45.530Z</time>
      </trkpt>
      <trkpt lat="47.550549" lon="7.957126">
        <ele>298.359123</ele>
        <time>2021-11-19T21:34:48.051Z</time>
      </trkpt>
      <trkpt lat="47.550613" lon="7.957254">
        <ele>298.360264</ele>
        <time>2021-11-19T21:34:49.679Z</time>
      </trkpt>
      <trkpt lat="47.550735" lon="7.957541">
        <ele>298.362693</ele>
        <time>2021-11-19T21:34:53.135Z</time>
      </trkpt>
      <trkpt lat="47.550745" lon="7.957569">
        <ele>298.362920</ele>
        <time>2021-11-19T21:34:53.383Z</time>
      </trkpt>
      <trkpt lat="47.550869" lon="7.957700">
        <ele>298.364536</ele>
        <time>2021-11-19T21:34:55.656Z</time>
      </trkpt>
      <trkpt lat="47.551300" lon="7.958844">
        <ele>298.373919</ele>
        <time>2021-11-19T21:35:08.509Z</time>
      </trkpt>
      <trkpt lat="47.551677" lon="7.960100">
        <ele>298.674988</ele>
        <time>2021-11-19T21:35:23.247Z</time>
      </trkpt>
      <trkpt lat="47.551865" lon="7.960528">
        <ele>298.817346</ele>
        <time>2021-11-19T21:35:29.097Z</time>
      </trkpt>
      <trkpt lat="47.551882" lon="7.960631">
        <ele>298.846906</ele>
        <time>2021-11-19T21:35:30.313Z</time>
      </trkpt>
      <trkpt lat="47.551894" lon="7.960729">
        <ele>298.874671</ele>
        <time>2021-11-19T21:35:31.717Z</time>
      </trkpt>
      <trkpt lat="47.551859" lon="7.961133">
        <ele>298.988219</ele>
        <time>2021-11-19T21:35:36.193Z</time>
      </trkpt>
      <trkpt lat="47.551906" lon="7.962453">
        <ele>299.282479</ele>
        <time>2021-11-19T21:35:51.587Z</time>
      </trkpt>
      <trkpt lat="47.551918" lon="7.963725">
        <ele>299.526369</ele>
        <time>2021-11-19T21:36:05.248Z</time>
      </trkpt>
      <trkpt lat="47.551902" lon="7.964650">
        <ele>299.540164</ele>
        <time>2021-11-19T21:36:14.360Z</time>
      </trkpt>
      <trkpt lat="47.551767" lon="7.967910">
        <ele>298.955379</ele>
        <time>2021-11-19T21:36:44.023Z</time>
      </trkpt>
      <trkpt lat="47.551839" lon="7.968208">
        <ele>298.938215</ele>
        <time>2021-11-19T21:36:47.114Z</time>
      </trkpt>
      <trkpt lat="47.551847" lon="7.968315">
        <ele>298.932378</ele>
        <time>2021-11-19T21:36:48.090Z</time>
      </trkpt>
      <trkpt lat="47.551825" lon="7.968445">
        <ele>298.925110</ele>
        <time>2021-11-19T21:36:49.322Z</time>
      </trkpt>
      <trkpt lat="47.551750" lon="7.968659">
        <ele>298.912034</ele>
        <time>2021-11-19T21:36:51.924Z</time>
      </trkpt>
      <trkpt lat="47.551734" lon="7.970034">
        <ele>299.041280</ele>
        <time>2021-11-19T21:37:06.320Z</time>
      </trkpt>
      <trkpt lat="47.551725" lon="7.970823">
        <ele>299.322817</ele>
        <time>2021-11-19T21:37:15.440Z</time>
      </trkpt>
      <trkpt lat="47.551755" lon="7.972603">
        <ele>299.827966</ele>
        <time>2021-11-19T21:37:36.915Z</time>
      </trkpt>
      <trkpt lat="47.551793" lon="7.974325">
        <ele>299.883097</ele>
        <time>2021-11-19T21:37:54.086Z</time>
      </trkpt>
      <trkpt lat="47.551829" lon="7.976305">
        <ele>299.983108</ele>
        <time>2021-11-19T21:38:12.044Z</time>
      </trkpt>
      <trkpt lat="47.551901" lon="7.979190">
        <ele>300.483205</ele>
        <time>2021-11-19T21:38:46.159Z</time>
      </trkpt>
      <trkpt lat="47.551923" lon="7.979308">
        <ele>300.514868</ele>
        <time>2021-11-19T21:38:47.849Z</time>
      </trkpt>
      <trkpt lat="47.551933" lon="7.979363">
        <ele>300.529600</ele>
        <time>2021-11-19T21:38:49.062Z</time>
      </trkpt>
      <trkpt lat="47.551873" lon="7.980135">
        <ele>300.730592</ele>
        <time>2021-11-19T21:38:56.343Z</time>
      </trkpt>
      <trkpt lat="47.551865" lon="7.980584">
        <ele>300.151718</ele>
        <time>2021-11-19T21:39:00.591Z</time>
      </trkpt>
      <trkpt lat="47.551861" lon="7.981113">
        <ele>299.373832</ele>
        <time>2021-11-19T21:39:04.990Z</time>
      </trkpt>
      <trkpt lat="47.551892" lon="7.983447">
        <ele>295.980122</ele>
        <time>2021-11-19T21:39:20.996Z</time>
      </trkpt>
      <trkpt lat="47.551911" lon="7.983632">
        <ele>295.717074</ele>
        <time>2021-11-19T21:39:22.295Z</time>
      </trkpt>
      <trkpt lat="47.552005" lon="7.983849">
        <ele>295.354614</ele>
        <time>2021-11-19T21:39:24.153Z</time>
      </trkpt>
      <trkpt lat="47.552007" lon="7.983931">
        <ele>295.239271</ele>
        <time>2021-11-19T21:39:24.666Z</time>
      </trkpt>
      <trkpt lat="47.551993" lon="7.984014">
        <ele>295.119010</ele>
        <time>2021-11-19T21:39:25.256Z</time>
      </trkpt>
      <trkpt lat="47.551934" lon="7.984260">
        <ele>294.752023</ele>
        <time>2021-11-19T21:39:27.305Z</time>
      </trkpt>
      <trkpt lat="47.551939" lon="7.985151">
        <ele>293.499500</ele>
        <time>2021-11-19T21:39:33.942Z</time>
      </trkpt>
      <trkpt lat="47.551898" lon="7.985654">
        <ele>293.350336</ele>
        <time>2021-11-19T21:39:38.251Z</time>
      </trkpt>
      <trkpt lat="47.551915" lon="7.986209">
        <ele>294.081377</ele>
        <time>2021-11-19T21:39:43.868Z</time>
      </trkpt>
      <trkpt lat="47.551917" lon="7.986288">
        <ele>294.185401</ele>
        <time>2021-11-19T21:39:45.191Z</time>
      </trkpt>
      <trkpt lat="47.551971" lon="7.986555">
        <ele>294.552164</ele>
        <time>2021-11-19T21:39:49.452Z</time>
      </trkpt>
      <trkpt lat="47.552152" lon="7.986883">
        <ele>295.109656</ele>
        <time>2021-11-19T21:39:56.678Z</time>
      </trkpt>
      <trkpt lat="47.552224" lon="7.986975">
        <ele>295.295017</ele>
        <time>2021-11-19T21:39:59.245Z</time>
      </trkpt>
      <trkpt lat="47.552436" lon="7.987273">
        <ele>295.864742</ele>
        <time>2021-11-19T21:40:07.144Z</time>
      </trkpt>
      <trkpt lat="47.552504" lon="7.987369">
        <ele>296.047860</ele>
        <time>2021-11-19T21:40:09.779Z</time>
      </trkpt>
      <trkpt lat="47.552713" lon="7.987638">
        <ele>296.590061</ele>
        <time>2021-11-19T21:40:18.246Z</time>
      </trkpt>
      <trkpt lat="47.552867" lon="7.987810">
        <ele>297.293630</ele>
        <time>2021-11-19T21:40:24.734Z</time>
      </trkpt>
      <trkpt lat="47.553232" lon="7.988247">
        <ele>299.005629</ele>
        <time>2021-11-19T21:40:39.363Z</time>
      </trkpt>
      <trkpt lat="47.553343" lon="7.988401">
        <ele>299.560397</ele>
        <time>2021-11-19T21:40:44.199Z</time>
      </trkpt>
      <trkpt lat="47.553410" lon="7.988607">
        <ele>300.123437</ele>
        <time>2021-11-19T21:40:48.796Z</time>
      </trkpt>
      <trkpt lat="47.553424" lon="7.988762">
        <ele>300.508482</ele>
        <time>2021-11-19T21:40:51.983Z</time>
      </trkpt>
      <trkpt lat="47.553352" lon="7.989142">
        <ele>301.480295</ele>
        <time>2021-11-19T21:40:59.827Z</time>
      </trkpt>
      <trkpt lat="47.553253" lon="7.989578">
        <ele>302.612949</ele>
        <time>2021-11-19T21:41:08.780Z</time>
      </trkpt>
      <trkpt lat="47.553214" lon="7.989758">
        <ele>303.078426</ele>
        <time>2021-11-19T21:41:12.362Z</time>
      </trkpt>
      <trkpt lat="47.553163" lon="7.990004">
        <ele>303.269350</ele>
        <time>2021-11-19T21:41:17.062Z</time>
      </trkpt>
      <trkpt lat="47.553146" lon="7.990113">
        <ele>303.329123</ele>
        <time>2021-11-19T21:41:18.989Z</time>
      </trkpt>
      <trkpt lat="47.553126" lon="7.990240">
        <ele>303.398802</ele>
        <time>2021-11-19T21:41:21.147Z</time>
      </trkpt>
      <trkpt lat="47.553050" lon="7.990744">
        <ele>303.674729</ele>
        <time>2021-11-19T21:41:28.797Z</time>
      </trkpt>
      <trkpt lat="47.553091" lon="7.991915">
        <ele>304.301236</ele>
        <time>2021-11-19T21:41:39.605Z</time>
      </trkpt>
      <trkpt lat="47.553107" lon="7.992226">
        <ele>304.467885</ele>
        <time>2021-11-19T21:41:42.074Z</time>
      </trkpt>
      <trkpt lat="47.553130" lon="7.993014">
        <ele>305.015685</ele>
        <time>2021-11-19T21:41:51.648Z</time>
      </trkpt>
      <trkpt lat="47.553137" lon="7.993190">
        <ele>305.147236</ele>
        <time>2021-11-19T21:41:52.767Z</time>
      </trkpt>
      <trkpt lat="47.553156" lon="7.993696">
        <ele>305.525374</ele>
        <time>2021-11-19T21:41:58.400Z</time>
      </trkpt>
      <trkpt lat="47.553164" lon="7.993925">
        <ele>305.696472</ele>
        <time>2021-11-19T21:42:04.867Z</time>
      </trkpt>
      <trkpt lat="47.553246" lon="7.995617">
        <ele>307.293427</ele>
        <time>2021-11-19T21:42:27.652Z</time>
      </trkpt>
      <trkpt lat="47.553268" lon="7.996252">
        <ele>308.157667</ele>
        <time>2021-11-19T21:42:40.997Z</time>
      </trkpt>
      <trkpt lat="47.553279" lon="7.996528">
        <ele>308.533465</ele>
        <time>2021-11-19T21:42:45.150Z</time>
      </trkpt>
      <trkpt lat="47.553287" lon="7.997190">
        <ele>309.433411</ele>
        <time>2021-11-19T21:42:54.900Z</time>
      </trkpt>
      <trkpt lat="47.553287" lon="7.998380">
        <ele>310.383191</ele>
        <time>2021-11-19T21:43:11.484Z</time>
      </trkpt>
      <trkpt lat="47.553278" lon="7.999508">
        <ele>310.738961</ele>
        <time>2021-11-19T21:43:24.833Z</time>
      </trkpt>
      <trkpt lat="47.553275" lon="7.999860">
        <ele>310.849982</ele>
        <time>2021-11-19T21:43:28.333Z</time>
      </trkpt>
      <trkpt lat="47.553273" lon="8.001687">
        <ele>310.284978</ele>
        <time>2021-11-19T21:43:43.877Z</time>
      </trkpt>
      <trkpt lat="47.553271" lon="8.002109">
        <ele>310.042327</ele>
        <time>2021-11-19T21:43:47.243Z</time>
      </trkpt>
      <trkpt lat="47.553270" lon="8.002465">
        <ele>309.837629</ele>
        <time>2021-11-19T21:43:50.021Z</time>
      </trkpt>
      <trkpt lat="47.553266" lon="8.003502">
        <ele>309.561781</ele>
        <time>2021-11-19T21:43:58.795Z</time>
      </trkpt>
      <trkpt lat="47.553256" lon="8.004837">
        <ele>309.785036</ele>
        <time>2021-11-19T21:44:13.026Z</time>
      </trkpt>
      <trkpt lat="47.553251" lon="8.005657">
        <ele>309.922164</ele>
        <time>2021-11-19T21:44:23.115Z</time>
      </trkpt>
      <trkpt lat="47.553220" lon="8.006182">
        <ele>310.098694</ele>
        <time>2021-11-19T21:44:30.063Z</time>
      </trkpt>
      <trkpt lat="47.553211" lon="8.006270">
        <ele>310.131110</ele>
        <time>2021-11-19T21:44:31.865Z</time>
      </trkpt>
      <trkpt lat="47.553173" lon="8.006642">
        <ele>310.268135</ele>
        <time>2021-11-19T21:44:36.415Z</time>
      </trkpt>
      <trkpt lat="47.552935" lon="8.007851">
        <ele>310.726800</ele>
        <time>2021-11-19T21:44:51.521Z</time>
      </trkpt>
      <trkpt lat="47.552640" lon="8.008615">
        <ele>310.628429</ele>
        <time>2021-11-19T21:44:59.665Z</time>
      </trkpt>
      <trkpt lat="47.552604" lon="8.008677">
        <ele>310.570042</ele>
        <time>2021-11-19T21:45:00.215Z</time>
      </trkpt>
      <trkpt lat="47.551902" lon="8.009884">
        <ele>309.432587</ele>
        <time>2021-11-19T21:45:12.575Z</time>
      </trkpt>
      <trkpt lat="47.551275" lon="8.010934">
        <ele>309.141283</ele>
        <time>2021-11-19T21:45:24.531Z</time>
      </trkpt>
      <trkpt lat="47.551187" lon="8.011080">
        <ele>309.175002</ele>
        <time>2021-11-19T21:45:26.664Z</time>
      </trkpt>
      <trkpt lat="47.550764" lon="8.011985">
        <ele>309.364631</ele>
        <time>2021-11-19T21:45:38.754Z</time>
      </trkpt>
      <trkpt lat="47.550565" lon="8.012461">
        <ele>309.461083</ele>
        <time>2021-11-19T21:45:46.173Z</time>
      </trkpt>
      <trkpt lat="47.550001" lon="8.014034">
        <ele>311.193252</ele>
        <time>2021-11-19T21:46:12.012Z</time>
      </trkpt>
      <trkpt lat="47.549871" lon="8.014427">
        <ele>311.620398</ele>
        <time>2021-11-19T21:46:18.199Z</time>
      </trkpt>
      <trkpt lat="47.549795" lon="8.014667">
        <ele>311.879131</ele>
        <time>2021-11-19T21:46:21.700Z</time>
      </trkpt>
      <trkpt lat="47.549589" lon="8.015316">
        <ele>312.512228</ele>
        <time>2021-11-19T21:46:31.077Z</time>
      </trkpt>
      <trkpt lat="47.549431" lon="8.015998">
        <ele>313.124750</ele>
        <time>2021-11-19T21:46:40.991Z</time>
      </trkpt>
      <trkpt lat="47.549281" lon="8.017304">
        <ele>314.250120</ele>
        <time>2021-11-19T21:46:58.215Z</time>
      </trkpt>
      <trkpt lat="47.549274" lon="8.017401">
        <ele>314.333935</ele>
        <time>2021-11-19T21:46:59.508Z</time>
      </trkpt>
      <trkpt lat="47.549236" lon="8.017402">
        <ele>314.389307</ele>
        <time>2021-11-19T21:47:00.331Z</time>
      </trkpt>
      <trkpt lat="47.549145" lon="8.017497">
        <ele>314.551493</ele>
        <time>2021-11-19T21:47:02.588Z</time>
      </trkpt>
      <trkpt lat="47.549133" lon="8.017550">
        <ele>314.606465</ele>
        <time>2021-11-19T21:47:03.578Z</time>
      </trkpt>
      <trkpt lat="47.549131" lon="8.017604">
        <ele>314.659646</ele>
        <time>2021-11-19T21:47:04.094Z</time>
      </trkpt>
      <trkpt lat="47.549220" lon="8.017761">
        <ele>314.861261</ele>
        <time>2021-11-19T21:47:06.672Z</time>
      </trkpt>
      <trkpt lat="47.549256" lon="8.017769">
        <ele>314.914296</ele>
        <time>2021-11-19T21:47:07.475Z</time>
      </trkpt>
      <trkpt lat="47.549261" lon="8.017878">
        <ele>315.021729</ele>
        <time>2021-11-19T21:47:09.115Z</time>
      </trkpt>
      <trkpt lat="47.549208" lon="8.019997">
        <ele>317.053855</ele>
        <time>2021-11-19T21:47:39.670Z</time>
      </trkpt>
      <trkpt lat="47.549186" lon="8.021006">
        <ele>317.716370</ele>
        <time>2021-11-19T21:47:52.732Z</time>
      </trkpt>
      <trkpt lat="47.549191" lon="8.021436">
        <ele>317.998605</ele>
        <time>2021-11-19T21:47:58.114Z</time>
      </trkpt>
      <trkpt lat="47.549201" lon="8.022146">
        <ele>318.464653</ele>
        <time>2021-11-19T21:48:06.916Z</time>
      </trkpt>
      <trkpt lat="47.549268" lon="8.023385">
        <ele>318.742331</ele>
        <time>2021-11-19T21:48:20.868Z</time>
      </trkpt>
      <trkpt lat="47.549322" lon="8.024323">
        <ele>318.791038</ele>
        <time>2021-11-19T21:48:30.252Z</time>
      </trkpt>
      <trkpt lat="47.549436" lon="8.026046">
        <ele>318.496866</ele>
        <time>2021-11-19T21:48:46.472Z</time>
      </trkpt>
      <trkpt lat="47.549454" lon="8.027138">
        <ele>318.086517</ele>
        <time>2021-11-19T21:48:55.759Z</time>
      </trkpt>
      <trkpt lat="47.549445" lon="8.027599">
        <ele>317.913263</ele>
        <time>2021-11-19T21:48:59.719Z</time>
      </trkpt>
      <trkpt lat="47.549431" lon="8.028306">
        <ele>317.669829</ele>
        <time>2021-11-19T21:49:05.950Z</time>
      </trkpt>
      <trkpt lat="47.549418" lon="8.028906">
        <ele>317.471393</ele>
        <time>2021-11-19T21:49:11.368Z</time>
      </trkpt>
      <trkpt lat="47.549380" lon="8.030702">
        <ele>316.948235</ele>
        <time>2021-11-19T21:49:27.254Z</time>
      </trkpt>
      <trkpt lat="47.549378" lon="8.030790">
        <ele>316.946695</ele>
        <time>2021-11-19T21:49:28.183Z</time>
      </trkpt>
      <trkpt lat="47.549372" lon="8.031883">
        <ele>316.927581</ele>
        <time>2021-11-19T21:49:39.421Z</time>
      </trkpt>
      <trkpt lat="47.549368" lon="8.032544">
        <ele>316.916022</ele>
        <time>2021-11-19T21:49:45.670Z</time>
      </trkpt>
      <trkpt lat="47.549363" lon="8.032869">
        <ele>316.910337</ele>
        <time>2021-11-19T21:49:50.032Z</time>
      </trkpt>
      <trkpt lat="47.549374" lon="8.033423">
        <ele>316.847289</ele>
        <time>2021-11-19T21:49:56.038Z</time>
      </trkpt>
      <trkpt lat="47.549386" lon="8.033799">
        <ele>316.769685</ele>
        <time>2021-11-19T21:49:59.259Z</time>
      </trkpt>
      <trkpt lat="47.549394" lon="8.034003">
        <ele>316.727557</ele>
        <time>2021-11-19T21:50:02.349Z</time>
      </trkpt>
      <trkpt lat="47.549395" lon="8.034029">
        <ele>316.722188</ele>
        <time>2021-11-19T21:50:02.494Z</time>
      </trkpt>
      <trkpt lat="47.549442" lon="8.034584">
        <ele>316.606870</ele>
        <time>2021-11-19T21:50:07.699Z</time>
      </trkpt>
      <trkpt lat="47.549494" lon="8.034935">
        <ele>316.532783</ele>
        <time>2021-11-19T21:50:11.505Z</time>
      </trkpt>
      <trkpt lat="47.549554" lon="8.035288">
        <ele>316.457736</ele>
        <time>2021-11-19T21:50:14.583Z</time>
      </trkpt>
      <trkpt lat="47.549632" lon="8.035633">
        <ele>316.382725</ele>
        <time>2021-11-19T21:50:17.737Z</time>
      </trkpt>
      <trkpt lat="47.549699" lon="8.035900">
        <ele>316.269111</ele>
        <time>2021-11-19T21:50:20.233Z</time>
      </trkpt>
      <trkpt lat="47.549753" lon="8.036077">
        <ele>316.160802</ele>
        <time>2021-11-19T21:50:21.907Z</time>
      </trkpt>
      <trkpt lat="47.549832" lon="8.036349">
        <ele>315.995690</ele>
        <time>2021-11-19T21:50:24.347Z</time>
      </trkpt>
      <trkpt lat="47.550111" lon="8.037123">
        <ele>315.506420</ele>
        <time>2021-11-19T21:50:31.538Z</time>
      </trkpt>
      <trkpt lat="47.550424" lon="8.037956">
        <ele>314.974821</ele>
        <time>2021-11-19T21:50:39.307Z</time>
      </trkpt>
      <trkpt lat="47.550515" lon="8.038174">
        <ele>314.899803</ele>
        <time>2021-11-19T21:50:41.554Z</time>
      </trkpt>
      <trkpt lat="47.551001" lon="8.039426">
        <ele>315.519110</ele>
        <time>2021-11-19T21:50:56.853Z</time>
      </trkpt>
      <trkpt lat="47.551167" lon="8.039905">
        <ele>315.749994</ele>
        <time>2021-11-19T21:51:03.899Z</time>
      </trkpt>
      <trkpt lat="47.551627" lon="8.041127">
        <ele>317.128817</ele>
        <time>2021-11-19T21:51:24.445Z</time>
      </trkpt>
      <trkpt lat="47.552844" lon="8.044355">
        <ele>321.977200</ele>
        <time>2021-11-19T21:52:24.396Z</time>
      </trkpt>
      <trkpt lat="47.553619" lon="8.046372">
        <ele>322.893697</ele>
        <time>2021-11-19T21:52:52.234Z</time>
      </trkpt>
      <trkpt lat="47.553996" lon="8.047557">
        <ele>322.664254</ele>
        <time>2021-11-19T21:53:03.143Z</time>
      </trkpt>
      <trkpt lat="47.554309" lon="8.048719">
        <ele>321.094579</ele>
        <time>2021-11-19T21:53:12.421Z</time>
      </trkpt>
      <trkpt lat="47.554412" lon="8.049127">
        <ele>320.548063</ele>
        <time>2021-11-19T21:53:15.588Z</time>
      </trkpt>
      <trkpt lat="47.554715" lon="8.050527">
        <ele>318.949512</ele>
        <time>2021-11-19T21:53:26.493Z</time>
      </trkpt>
      <trkpt lat="47.554988" lon="8.051475">
        <ele>318.071168</ele>
        <time>2021-11-19T21:53:34.419Z</time>
      </trkpt>
      <trkpt lat="47.555259" lon="8.052135">
        <ele>317.412810</ele>
        <time>2021-11-19T21:53:41.192Z</time>
      </trkpt>
      <trkpt lat="47.555603" lon="8.052757">
        <ele>317.154260</ele>
        <time>2021-11-19T21:53:48.682Z</time>
      </trkpt>
      <trkpt lat="47.555773" lon="8.053070">
        <ele>317.121588</ele>
        <time>2021-11-19T21:53:52.531Z</time>
      </trkpt>
      <trkpt lat="47.555890" lon="8.053286">
        <ele>317.099066</ele>
        <time>2021-11-19T21:53:55.138Z</time>
      </trkpt>
      <trkpt lat="47.556032" lon="8.053510">
        <ele>317.074075</ele>
        <time>2021-11-19T21:53:57.804Z</time>
      </trkpt>
      <trkpt lat="47.556239" lon="8.053780">
        <ele>317.040845</ele>
        <time>2021-11-19T21:54:01.953Z</time>
      </trkpt>
      <trkpt lat="47.556494" lon="8.054073">
        <ele>317.001964</ele>
        <time>2021-11-19T21:54:07.013Z</time>
      </trkpt>
      <trkpt lat="47.557019" lon="8.054678">
        <ele>316.983356</ele>
        <time>2021-11-19T21:54:18.108Z</time>
      </trkpt>
      <trkpt lat="47.557034" lon="8.054696">
        <ele>316.983386</ele>
        <time>2021-11-19T21:54:18.312Z</time>
      </trkpt>
      <trkpt lat="47.557097" lon="8.054768">
        <ele>316.983513</ele>
        <time>2021-11-19T21:54:19.603Z</time>
      </trkpt>
      <trkpt lat="47.557097" lon="8.054768">
        <ele>316.983513</ele>
        <time>2021-11-19T21:54:19.607Z</time>
      </trkpt>
      <trkpt lat="47.557273" lon="8.054941">
        <ele>316.983850</ele>
        <time>2021-11-19T21:54:22.932Z</time>
      </trkpt>
      <trkpt lat="47.557500" lon="8.055133">
        <ele>316.984267</ele>
        <time>2021-11-19T21:54:26.497Z</time>
      </trkpt>
      <trkpt lat="47.557710" lon="8.055283">
        <ele>316.984639</ele>
        <time>2021-11-19T21:54:29.783Z</time>
      </trkpt>
      <trkpt lat="47.557918" lon="8.055409">
        <ele>316.984997</ele>
        <time>2021-11-19T21:54:32.909Z</time>
      </trkpt>
      <trkpt lat="47.558012" lon="8.055477">
        <ele>316.985164</ele>
        <time>2021-11-19T21:54:34.300Z</time>
      </trkpt>
      <trkpt lat="47.558239" lon="8.055639">
        <ele>316.998267</ele>
        <time>2021-11-19T21:54:38.105Z</time>
      </trkpt>
      <trkpt lat="47.558447" lon="8.055831">
        <ele>317.032799</ele>
        <time>2021-11-19T21:54:41.688Z</time>
      </trkpt>
      <trkpt lat="47.558662" lon="8.056061">
        <ele>317.070167</ele>
        <time>2021-11-19T21:54:46.115Z</time>
      </trkpt>
      <trkpt lat="47.559116" lon="8.056760">
        <ele>317.162425</ele>
        <time>2021-11-19T21:54:56.224Z</time>
      </trkpt>
      <trkpt lat="47.559294" lon="8.057130">
        <ele>317.205636</ele>
        <time>2021-11-19T21:55:00.893Z</time>
      </trkpt>
      <trkpt lat="47.559447" lon="8.057490">
        <ele>317.252702</ele>
        <time>2021-11-19T21:55:05.257Z</time>
      </trkpt>
      <trkpt lat="47.559548" lon="8.057827">
        <ele>317.319895</ele>
        <time>2021-11-19T21:55:09.248Z</time>
      </trkpt>
      <trkpt lat="47.559579" lon="8.057955">
        <ele>317.344677</ele>
        <time>2021-11-19T21:55:10.691Z</time>
      </trkpt>
      <trkpt lat="47.559654" lon="8.058257">
        <ele>317.403316</ele>
        <time>2021-11-19T21:55:14.295Z</time>
      </trkpt>
      <trkpt lat="47.559725" lon="8.058554">
        <ele>317.460732</ele>
        <time>2021-11-19T21:55:17.690Z</time>
      </trkpt>
      <trkpt lat="47.559859" lon="8.059093">
        <ele>317.565403</ele>
        <time>2021-11-19T21:55:23.808Z</time>
      </trkpt>
      <trkpt lat="47.559979" lon="8.059591">
        <ele>317.661761</ele>
        <time>2021-11-19T21:55:29.396Z</time>
      </trkpt>
      <trkpt lat="47.560019" lon="8.059741">
        <ele>317.691151</ele>
        <time>2021-11-19T21:55:31.205Z</time>
      </trkpt>
      <trkpt lat="47.560040" lon="8.059827">
        <ele>317.707817</ele>
        <time>2021-11-19T21:55:32.147Z</time>
      </trkpt>
      <trkpt lat="47.560069" lon="8.059943">
        <ele>317.739120</ele>
        <time>2021-11-19T21:55:33.392Z</time>
      </trkpt>
      <trkpt lat="47.560130" lon="8.060196">
        <ele>317.862183</ele>
        <time>2021-11-19T21:55:36.437Z</time>
      </trkpt>
      <trkpt lat="47.560262" lon="8.060729">
        <ele>318.122248</ele>
        <time>2021-11-19T21:55:42.695Z</time>
      </trkpt>
      <trkpt lat="47.560293" lon="8.060828">
        <ele>318.172240</ele>
        <time>2021-11-19T21:55:43.975Z</time>
      </trkpt>
      <trkpt lat="47.560335" lon="8.060984">
        <ele>318.249173</ele>
        <time>2021-11-19T21:55:46.008Z</time>
      </trkpt>
      <trkpt lat="47.560570" lon="8.061926">
        <ele>318.709200</ele>
        <time>2021-11-19T21:55:58.679Z</time>
      </trkpt>
      <trkpt lat="47.560765" lon="8.062729">
        <ele>319.117380</ele>
        <time>2021-11-19T21:56:08.850Z</time>
      </trkpt>
      <trkpt lat="47.560673" lon="8.062786">
        <ele>319.192628</ele>
        <time>2021-11-19T21:56:11.221Z</time>
      </trkpt>
      <trkpt lat="47.560580" lon="8.062890">
        <ele>319.280546</ele>
        <time>2021-11-19T21:56:13.960Z</time>
      </trkpt>
      <trkpt lat="47.560545" lon="8.062928">
        <ele>319.313287</ele>
        <time>2021-11-19T21:56:14.749Z</time>
      </trkpt>
      <trkpt lat="47.560443" lon="8.063042">
        <ele>319.409694</ele>
        <time>2021-11-19T21:56:17.172Z</time>
      </trkpt>
      <trkpt lat="47.560335" lon="8.063169">
        <ele>319.513733</ele>
        <time>2021-11-19T21:56:19.767Z</time>
      </trkpt>
      <trkpt lat="47.560392" lon="8.063300">
        <ele>319.593106</ele>
        <time>2021-11-19T21:56:21.614Z</time>
      </trkpt>
      <trkpt lat="47.560719" lon="8.063873">
        <ele>319.975239</ele>
        <time>2021-11-19T21:56:30.927Z</time>
      </trkpt>
      <trkpt lat="47.560806" lon="8.064037">
        <ele>320.081466</ele>
        <time>2021-11-19T21:56:33.429Z</time>
      </trkpt>
      <trkpt lat="47.560887" lon="8.064271">
        <ele>320.215385</ele>
        <time>2021-11-19T21:56:36.560Z</time>
      </trkpt>
      <trkpt lat="47.561017" lon="8.064820">
        <ele>320.320133</ele>
        <time>2021-11-19T21:56:43.185Z</time>
      </trkpt>
      <trkpt lat="47.561108" lon="8.065242">
        <ele>320.338920</ele>
        <time>2021-11-19T21:56:47.435Z</time>
      </trkpt>
      <trkpt lat="47.561253" lon="8.066385">
        <ele>320.388239</ele>
        <time>2021-11-19T21:56:58.420Z</time>
      </trkpt>
      <trkpt lat="47.561267" lon="8.066758">
        <ele>320.404080</ele>
        <time>2021-11-19T21:57:02.057Z</time>
      </trkpt>
      <trkpt lat="47.561276" lon="8.067022">
        <ele>320.415290</ele>
        <time>2021-11-19T21:57:04.670Z</time>
      </trkpt>
      <trkpt lat="47.561265" lon="8.067435">
        <ele>320.744156</ele>
        <time>2021-11-19T21:57:09.056Z</time>
      </trkpt>
      <trkpt lat="47.561229" lon="8.067903">
        <ele>321.128816</ele>
        <time>2021-11-19T21:57:14.806Z</time>
      </trkpt>
      <trkpt lat="47.561187" lon="8.068256">
        <ele>321.421536</ele>
        <time>2021-11-19T21:57:19.214Z</time>
      </trkpt>
      <trkpt lat="47.561130" lon="8.068650">
        <ele>321.750602</ele>
        <time>2021-11-19T21:57:24.449Z</time>
      </trkpt>
      <trkpt lat="47.560998" lon="8.069237">
        <ele>322.255885</ele>
        <time>2021-11-19T21:57:33.585Z</time>
      </trkpt>
      <trkpt lat="47.560904" lon="8.069780">
        <ele>322.822538</ele>
        <time>2021-11-19T21:57:42.545Z</time>
      </trkpt>
      <trkpt lat="47.560864" lon="8.070015">
        <ele>323.198195</ele>
        <time>2021-11-19T21:57:46.577Z</time>
      </trkpt>
      <trkpt lat="47.560739" lon="8.070551">
        <ele>324.077207</ele>
        <time>2021-11-19T21:57:56.191Z</time>
      </trkpt>
      <trkpt lat="47.560584" lon="8.070919">
        <ele>324.749598</ele>
        <time>2021-11-19T21:58:03.504Z</time>
      </trkpt>
      <trkpt lat="47.560553" lon="8.071099">
        <ele>325.037542</ele>
        <time>2021-11-19T21:58:06.695Z</time>
      </trkpt>
      <trkpt lat="47.560524" lon="8.071179">
        <ele>325.178301</ele>
        <time>2021-11-19T21:58:08.456Z</time>
      </trkpt>
      <trkpt lat="47.560318" lon="8.072316">
        <ele>326.921741</ele>
        <time>2021-11-19T21:58:27.357Z</time>
      </trkpt>
      <trkpt lat="47.559811" lon="8.074398">
        <ele>329.353274</ele>
        <time>2021-11-19T21:58:58.471Z</time>
      </trkpt>
      <trkpt lat="47.559426" lon="8.075372">
        <ele>330.561230</ele>
        <time>2021-11-19T21:59:14.052Z</time>
      </trkpt>
      <trkpt lat="47.559046" lon="8.076086">
        <ele>331.526146</ele>
        <time>2021-11-19T21:59:26.819Z</time>
      </trkpt>
      <trkpt lat="47.558994" lon="8.076176">
        <ele>331.651870</ele>
        <time>2021-11-19T21:59:28.896Z</time>
      </trkpt>
      <trkpt lat="47.558949" lon="8.076252">
        <ele>331.759158</ele>
        <time>2021-11-19T21:59:30.270Z</time>
      </trkpt>
      <trkpt lat="47.558613" lon="8.076826">
        <ele>332.532113</ele>
        <time>2021-11-19T21:59:41.430Z</time>
      </trkpt>
      <trkpt lat="47.557793" lon="8.078299">
        <ele>333.766329</ele>
        <time>2021-11-19T22:00:09.086Z</time>
      </trkpt>
      <trkpt lat="47.557256" lon="8.079416">
        <ele>332.987075</ele>
        <time>2021-11-19T22:00:20.895Z</time>
      </trkpt>
      <trkpt lat="47.557099" lon="8.079786">
        <ele>332.223706</ele>
        <time>2021-11-19T22:00:24.133Z</time>
      </trkpt>
      <trkpt lat="47.556853" lon="8.080477">
        <ele>330.859168</ele>
        <time>2021-11-19T22:00:29.519Z</time>
      </trkpt>
      <trkpt lat="47.556470" lon="8.081563">
        <ele>327.930459</ele>
        <time>2021-11-19T22:00:37.534Z</time>
      </trkpt>
      <trkpt lat="47.556083" lon="8.083354">
        <ele>321.520955</ele>
        <time>2021-11-19T22:00:49.338Z</time>
      </trkpt>
      <trkpt lat="47.555956" lon="8.084115">
        <ele>319.009638</ele>
        <time>2021-11-19T22:00:54.341Z</time>
      </trkpt>
      <trkpt lat="47.555899" lon="8.084472">
        <ele>317.883570</ele>
        <time>2021-11-19T22:00:56.661Z</time>
      </trkpt>
      <trkpt lat="47.555764" lon="8.085769">
        <ele>313.855328</ele>
        <time>2021-11-19T22:01:05.125Z</time>
      </trkpt>
      <trkpt lat="47.555733" lon="8.086819">
        <ele>311.902317</ele>
        <time>2021-11-19T22:01:12.054Z</time>
      </trkpt>
      <trkpt lat="47.555737" lon="8.087083">
        <ele>311.715628</ele>
        <time>2021-11-19T22:01:13.852Z</time>
      </trkpt>
      <trkpt lat="47.555780" lon="8.087557">
        <ele>311.377508</ele>
        <time>2021-11-19T22:01:17.342Z</time>
      </trkpt>
      <trkpt lat="47.555809" lon="8.087783">
        <ele>311.214870</ele>
        <time>2021-11-19T22:01:19.777Z</time>
      </trkpt>
      <trkpt lat="47.555829" lon="8.087941">
        <ele>311.101220</ele>
        <time>2021-11-19T22:01:21.374Z</time>
      </trkpt>
      <trkpt lat="47.555887" lon="8.088299">
        <ele>310.840933</ele>
        <time>2021-11-19T22:01:24.938Z</time>
      </trkpt>
      <trkpt lat="47.555939" lon="8.088552">
        <ele>310.653957</ele>
        <time>2021-11-19T22:01:27.734Z</time>
      </trkpt>
      <trkpt lat="47.555991" lon="8.088778">
        <ele>310.485151</ele>
        <time>2021-11-19T22:01:31.169Z</time>
      </trkpt>
      <trkpt lat="47.555997" lon="8.088801">
        <ele>310.467718</ele>
        <time>2021-11-19T22:01:31.762Z</time>
      </trkpt>
      <trkpt lat="47.556065" lon="8.089084">
        <ele>310.971287</ele>
        <time>2021-11-19T22:01:36.054Z</time>
      </trkpt>
      <trkpt lat="47.556111" lon="8.089266">
        <ele>311.518280</ele>
        <time>2021-11-19T22:01:39.862Z</time>
      </trkpt>
      <trkpt lat="47.556151" lon="8.089459">
        <ele>312.086526</ele>
        <time>2021-11-19T22:01:44.505Z</time>
      </trkpt>
      <trkpt lat="47.556137" lon="8.089730">
        <ele>312.851499</ele>
        <time>2021-11-19T22:01:49.723Z</time>
      </trkpt>
      <trkpt lat="47.556110" lon="8.089809">
        <ele>313.100735</ele>
        <time>2021-11-19T22:01:51.995Z</time>
      </trkpt>
      <trkpt lat="47.556193" lon="8.089926">
        <ele>313.578502</ele>
        <time>2021-11-19T22:01:55.972Z</time>
      </trkpt>
      <trkpt lat="47.556259" lon="8.090058">
        <ele>314.040878</ele>
        <time>2021-11-19T22:01:59.015Z</time>
      </trkpt>
      <trkpt lat="47.556527" lon="8.090721">
        <ele>316.216041</ele>
        <time>2021-11-19T22:02:17.271Z</time>
      </trkpt>
      <trkpt lat="47.556692" lon="8.091113">
        <ele>317.516342</ele>
        <time>2021-11-19T22:02:29.054Z</time>
      </trkpt>
      <trkpt lat="47.556850" lon="8.091457">
        <ele>318.732415</ele>
        <time>2021-11-19T22:02:39.563Z</time>
      </trkpt>
      <trkpt lat="47.557677" lon="8.092776">
        <ele>324.088826</ele>
        <time>2021-11-19T22:03:19.616Z</time>
      </trkpt>
      <trkpt lat="47.558531" lon="8.094661">
        <ele>330.399172</ele>
        <time>2021-11-19T22:04:02.799Z</time>
      </trkpt>
      <trkpt lat="47.558776" lon="8.095210">
        <ele>332.183809</ele>
        <time>2021-11-19T22:04:17.137Z</time>
      </trkpt>
      <trkpt lat="47.558857" lon="8.095293">
        <ele>332.579496</ele>
        <time>2021-11-19T22:04:21.960Z</time>
      </trkpt>
      <trkpt lat="47.558983" lon="8.095482">
        <ele>333.385550</ele>
        <time>2021-11-19T22:04:28.696Z</time>
      </trkpt>
      <trkpt lat="47.559606" lon="8.096837">
        <ele>339.396973</ele>
        <time>2021-11-19T22:05:17.640Z</time>
      </trkpt>
      <trkpt lat="47.560171" lon="8.097877">
        <ele>343.352833</ele>
        <time>2021-11-19T22:05:55.435Z</time>
      </trkpt>
      <trkpt lat="47.560787" lon="8.098864">
        <ele>345.118349</ele>
        <time>2021-11-19T22:06:23.682Z</time>
      </trkpt>
      <trkpt lat="47.561466" lon="8.099697">
        <ele>345.581631</ele>
        <time>2021-11-19T22:06:39.972Z</time>
      </trkpt>
      <trkpt lat="47.562207" lon="8.100413">
        <ele>343.033366</ele>
        <time>2021-11-19T22:06:52.564Z</time>
      </trkpt>
      <trkpt lat="47.563031" lon="8.100935">
        <ele>340.519081</ele>
        <time>2021-11-19T22:07:05.467Z</time>
      </trkpt>
      <trkpt lat="47.563202" lon="8.101042">
        <ele>340.036015</ele>
        <time>2021-11-19T22:07:08.054Z</time>
      </trkpt>
      <trkpt lat="47.564165" lon="8.101615">
        <ele>337.335379</ele>
        <time>2021-11-19T22:07:19.016Z</time>
      </trkpt>
      <trkpt lat="47.565727" lon="8.102512">
        <ele>333.926441</ele>
        <time>2021-11-19T22:07:38.204Z</time>
      </trkpt>
      <trkpt lat="47.566684" lon="8.102974">
        <ele>331.663828</ele>
        <time>2021-11-19T22:07:48.805Z</time>
      </trkpt>
      <trkpt lat="47.567683" lon="8.103272">
        <ele>329.072442</ele>
        <time>2021-11-19T22:07:59.425Z</time>
      </trkpt>
      <trkpt lat="47.569557" lon="8.103677">
        <ele>324.318312</ele>
        <time>2021-11-19T22:08:19.657Z</time>
      </trkpt>
      <trkpt lat="47.570159" lon="8.103813">
        <ele>322.079354</ele>
        <time>2021-11-19T22:08:25.961Z</time>
      </trkpt>
      <trkpt lat="47.570286" lon="8.103898">
        <ele>321.520432</ele>
        <time>2021-11-19T22:08:27.340Z</time>
      </trkpt>
      <trkpt lat="47.570517" lon="8.104111">
        <ele>320.429232</ele>
        <time>2021-11-19T22:08:29.904Z</time>
      </trkpt>
      <trkpt lat="47.570786" lon="8.104202">
        <ele>319.322532</ele>
        <time>2021-11-19T22:08:32.494Z</time>
      </trkpt>
      <trkpt lat="47.570863" lon="8.104203">
        <ele>319.013675</ele>
        <time>2021-11-19T22:08:33.249Z</time>
      </trkpt>
      <trkpt lat="47.571140" lon="8.104418">
        <ele>317.759513</ele>
        <time>2021-11-19T22:08:36.208Z</time>
      </trkpt>
      <trkpt lat="47.571149" lon="8.104460">
        <ele>317.640262</ele>
        <time>2021-11-19T22:08:36.523Z</time>
      </trkpt>
      <trkpt lat="47.571165" lon="8.104498">
        <ele>317.519047</ele>
        <time>2021-11-19T22:08:36.860Z</time>
      </trkpt>
      <trkpt lat="47.571190" lon="8.104530">
        <ele>317.386557</ele>
        <time>2021-11-19T22:08:37.176Z</time>
      </trkpt>
      <trkpt lat="47.571252" lon="8.104556">
        <ele>317.128114</ele>
        <time>2021-11-19T22:08:37.817Z</time>
      </trkpt>
      <trkpt lat="47.571285" lon="8.104547">
        <ele>316.993530</ele>
        <time>2021-11-19T22:08:38.134Z</time>
      </trkpt>
      <trkpt lat="47.571319" lon="8.104520">
        <ele>316.838817</ele>
        <time>2021-11-19T22:08:38.498Z</time>
      </trkpt>
      <trkpt lat="47.571345" lon="8.104476">
        <ele>316.722758</ele>
        <time>2021-11-19T22:08:38.862Z</time>
      </trkpt>
      <trkpt lat="47.571404" lon="8.104462">
        <ele>316.602713</ele>
        <time>2021-11-19T22:08:39.403Z</time>
      </trkpt>
      <trkpt lat="47.571506" lon="8.104457">
        <ele>316.397675</ele>
        <time>2021-11-19T22:08:40.449Z</time>
      </trkpt>
      <trkpt lat="47.571606" lon="8.104456">
        <ele>316.196763</ele>
        <time>2021-11-19T22:08:41.426Z</time>
      </trkpt>
      <trkpt lat="47.571788" lon="8.104486">
        <ele>315.828857</ele>
        <time>2021-11-19T22:08:43.129Z</time>
      </trkpt>
      <trkpt lat="47.572479" lon="8.104559">
        <ele>314.437065</ele>
        <time>2021-11-19T22:08:50.499Z</time>
      </trkpt>
      <trkpt lat="47.573291" lon="8.104448">
        <ele>313.465324</ele>
        <time>2021-11-19T22:09:01.933Z</time>
      </trkpt>
      <trkpt lat="47.573366" lon="8.104434">
        <ele>313.600427</ele>
        <time>2021-11-19T22:09:04.401Z</time>
      </trkpt>
      <trkpt lat="47.573446" lon="8.104418">
        <ele>313.744703</ele>
        <time>2021-11-19T22:09:06.653Z</time>
      </trkpt>
      <trkpt lat="47.573480" lon="8.104411">
        <ele>313.806054</ele>
        <time>2021-11-19T22:09:07.522Z</time>
      </trkpt>
      <trkpt lat="47.573668" lon="8.104380">
        <ele>314.144131</ele>
        <time>2021-11-19T22:09:11.327Z</time>
      </trkpt>
      <trkpt lat="47.573831" lon="8.104354">
        <ele>314.437136</ele>
        <time>2021-11-19T22:09:16.184Z</time>
      </trkpt>
      <trkpt lat="47.574232" lon="8.104312">
        <ele>315.155614</ele>
        <time>2021-11-19T22:09:25.873Z</time>
      </trkpt>
      <trkpt lat="47.574708" lon="8.104323">
        <ele>316.006453</ele>
        <time>2021-11-19T22:09:36.878Z</time>
      </trkpt>
      <trkpt lat="47.574899" lon="8.104362">
        <ele>316.351043</ele>
        <time>2021-11-19T22:09:42.440Z</time>
      </trkpt>
      <trkpt lat="47.575253" lon="8.104463">
        <ele>316.487558</ele>
        <time>2021-11-19T22:09:49.604Z</time>
      </trkpt>
      <trkpt lat="47.576181" lon="8.104949">
        <ele>316.826948</ele>
        <time>2021-11-19T22:10:04.175Z</time>
      </trkpt>
      <trkpt lat="47.576601" lon="8.105189">
        <ele>316.982167</ele>
        <time>2021-11-19T22:10:10.047Z</time>
      </trkpt>
      <trkpt lat="47.576841" lon="8.105315">
        <ele>317.064715</ele>
        <time>2021-11-19T22:10:13.423Z</time>
      </trkpt>
      <trkpt lat="47.577500" lon="8.105730">
        <ele>317.296107</ele>
        <time>2021-11-19T22:10:23.902Z</time>
      </trkpt>
      <trkpt lat="47.578068" lon="8.106263">
        <ele>317.513356</ele>
        <time>2021-11-19T22:10:35.414Z</time>
      </trkpt>
      <trkpt lat="47.578187" lon="8.106429">
        <ele>317.566163</ele>
        <time>2021-11-19T22:10:38.619Z</time>
      </trkpt>
      <trkpt lat="47.578335" lon="8.106654">
        <ele>317.926148</ele>
        <time>2021-11-19T22:10:42.776Z</time>
      </trkpt>
      <trkpt lat="47.579759" lon="8.109482">
        <ele>322.177207</ele>
        <time>2021-11-19T22:11:36.233Z</time>
      </trkpt>
      <trkpt lat="47.579823" lon="8.109617">
        <ele>322.388709</ele>
        <time>2021-11-19T22:11:39.047Z</time>
      </trkpt>
      <trkpt lat="47.579991" lon="8.109948">
        <ele>322.919669</ele>
        <time>2021-11-19T22:11:45.022Z</time>
      </trkpt>
      <trkpt lat="47.580212" lon="8.110399">
        <ele>323.634188</ele>
        <time>2021-11-19T22:11:53.204Z</time>
      </trkpt>
      <trkpt lat="47.580364" lon="8.110708">
        <ele>324.133170</ele>
        <time>2021-11-19T22:11:59.015Z</time>
      </trkpt>
      <trkpt lat="47.580670" lon="8.111332">
        <ele>325.420015</ele>
        <time>2021-11-19T22:12:10.902Z</time>
      </trkpt>
      <trkpt lat="47.581045" lon="8.112180">
        <ele>327.111378</ele>
        <time>2021-11-19T22:12:27.201Z</time>
      </trkpt>
      <trkpt lat="47.581182" lon="8.112552">
        <ele>327.818344</ele>
        <time>2021-11-19T22:12:34.643Z</time>
      </trkpt>
      <trkpt lat="47.581277" lon="8.112870">
        <ele>328.398470</ele>
        <time>2021-11-19T22:12:41.074Z</time>
      </trkpt>
      <trkpt lat="47.581391" lon="8.113276">
        <ele>329.321254</ele>
        <time>2021-11-19T22:12:50.007Z</time>
      </trkpt>
      <trkpt lat="47.581427" lon="8.113428">
        <ele>329.676295</ele>
        <time>2021-11-19T22:12:53.118Z</time>
      </trkpt>
      <trkpt lat="47.581503" lon="8.113781">
        <ele>330.492934</ele>
        <time>2021-11-19T22:13:00.574Z</time>
      </trkpt>
      <trkpt lat="47.581610" lon="8.114392">
        <ele>331.884148</ele>
        <time>2021-11-19T22:13:12.895Z</time>
      </trkpt>
      <trkpt lat="47.581698" lon="8.115075">
        <ele>333.416612</ele>
        <time>2021-11-19T22:13:25.935Z</time>
      </trkpt>
      <trkpt lat="47.581747" lon="8.115421">
        <ele>334.195778</ele>
        <time>2021-11-19T22:13:32.407Z</time>
      </trkpt>
      <trkpt lat="47.581851" lon="8.116146">
        <ele>335.416068</ele>
        <time>2021-11-19T22:13:45.069Z</time>
      </trkpt>
      <trkpt lat="47.582058" lon="8.118074">
        <ele>338.457371</ele>
        <time>2021-11-19T22:14:14.061Z</time>
      </trkpt>
      <trkpt lat="47.581997" lon="8.119489">
        <ele>341.993414</ele>
        <time>2021-11-19T22:14:41.275Z</time>
      </trkpt>
      <trkpt lat="47.581925" lon="8.120891">
        <ele>345.436453</ele>
        <time>2021-11-19T22:15:13.627Z</time>
      </trkpt>
      <trkpt lat="47.581872" lon="8.121939">
        <ele>346.380722</ele>
        <time>2021-11-19T22:15:34.235Z</time>
      </trkpt>
      <trkpt lat="47.581853" lon="8.122293">
        <ele>346.699796</ele>
        <time>2021-11-19T22:15:39.978Z</time>
      </trkpt>
      <trkpt lat="47.581616" lon="8.126107">
        <ele>344.422151</ele>
        <time>2021-11-19T22:16:09.587Z</time>
      </trkpt>
      <trkpt lat="47.581682" lon="8.126961">
        <ele>343.172020</ele>
        <time>2021-11-19T22:16:15.181Z</time>
      </trkpt>
      <trkpt lat="47.581995" lon="8.128036">
        <ele>341.465400</ele>
        <time>2021-11-19T22:16:23.519Z</time>
      </trkpt>
      <trkpt lat="47.582054" lon="8.128175">
        <ele>341.226025</ele>
        <time>2021-11-19T22:16:24.707Z</time>
      </trkpt>
      <trkpt lat="47.582271" lon="8.128732">
        <ele>340.658258</ele>
        <time>2021-11-19T22:16:30.713Z</time>
      </trkpt>
      <trkpt lat="47.582333" lon="8.128926">
        <ele>340.849163</ele>
        <time>2021-11-19T22:16:33.359Z</time>
      </trkpt>
      <trkpt lat="47.582383" lon="8.129121">
        <ele>341.034678</ele>
        <time>2021-11-19T22:16:35.312Z</time>
      </trkpt>
      <trkpt lat="47.582452" lon="8.129518">
        <ele>341.399253</ele>
        <time>2021-11-19T22:16:40.849Z</time>
      </trkpt>
      <trkpt lat="47.582476" lon="8.129918">
        <ele>341.756368</ele>
        <time>2021-11-19T22:16:46.354Z</time>
      </trkpt>
      <trkpt lat="47.582502" lon="8.130347">
        <ele>342.139405</ele>
        <time>2021-11-19T22:16:52.822Z</time>
      </trkpt>
      <trkpt lat="47.582401" lon="8.132729">
        <ele>343.051068</ele>
        <time>2021-11-19T22:17:32.339Z</time>
      </trkpt>
      <trkpt lat="47.582405" lon="8.133220">
        <ele>343.102502</ele>
        <time>2021-11-19T22:17:36.225Z</time>
      </trkpt>
      <trkpt lat="47.582445" lon="8.133813">
        <ele>343.164925</ele>
        <time>2021-11-19T22:17:40.454Z</time>
      </trkpt>
      <trkpt lat="47.582702" lon="8.135441">
        <ele>337.179075</ele>
        <time>2021-11-19T22:17:51.094Z</time>
      </trkpt>
      <trkpt lat="47.583161" lon="8.137044">
        <ele>330.272606</ele>
        <time>2021-11-19T22:18:01.645Z</time>
      </trkpt>
      <trkpt lat="47.583437" lon="8.137880">
        <ele>326.170526</ele>
        <time>2021-11-19T22:18:07.361Z</time>
      </trkpt>
      <trkpt lat="47.583514" lon="8.138100">
        <ele>325.078185</ele>
        <time>2021-11-19T22:18:08.928Z</time>
      </trkpt>
      <trkpt lat="47.583879" lon="8.139148">
        <ele>320.181130</ele>
        <time>2021-11-19T22:18:16.084Z</time>
      </trkpt>
      <trkpt lat="47.584040" lon="8.139585">
        <ele>318.359317</ele>
        <time>2021-11-19T22:18:19.208Z</time>
      </trkpt>
      <trkpt lat="47.584156" lon="8.139467">
        <ele>317.596233</ele>
        <time>2021-11-19T22:18:20.467Z</time>
      </trkpt>
      <trkpt lat="47.584278" lon="8.139277">
        <ele>316.636462</ele>
        <time>2021-11-19T22:18:22.219Z</time>
      </trkpt>
      <trkpt lat="47.584308" lon="8.139232">
        <ele>316.404974</ele>
        <time>2021-11-19T22:18:22.597Z</time>
      </trkpt>
      <trkpt lat="47.584365" lon="8.139157">
        <ele>315.991586</ele>
        <time>2021-11-19T22:18:23.272Z</time>
      </trkpt>
      <trkpt lat="47.584557" lon="8.139005">
        <ele>314.810950</ele>
        <time>2021-11-19T22:18:25.454Z</time>
      </trkpt>
      <trkpt lat="47.584806" lon="8.138964">
        <ele>313.452007</ele>
        <time>2021-11-19T22:18:27.787Z</time>
      </trkpt>
      <trkpt lat="47.585340" lon="8.139503">
        <ele>310.900994</ele>
        <time>2021-11-19T22:18:33.909Z</time>
      </trkpt>
      <trkpt lat="47.585467" lon="8.139649">
        <ele>310.455673</ele>
        <time>2021-11-19T22:18:35.513Z</time>
      </trkpt>
      <trkpt lat="47.585520" lon="8.139610">
        <ele>310.291714</ele>
        <time>2021-11-19T22:18:36.104Z</time>
      </trkpt>
      <trkpt lat="47.586064" lon="8.139426">
        <ele>308.745543</ele>
        <time>2021-11-19T22:18:41.875Z</time>
      </trkpt>
      <trkpt lat="47.586400" lon="8.139320">
        <ele>307.793632</ele>
        <time>2021-11-19T22:18:45.708Z</time>
      </trkpt>
      <trkpt lat="47.586494" lon="8.139309">
        <ele>307.532345</ele>
        <time>2021-11-19T22:18:46.679Z</time>
      </trkpt>
      <trkpt lat="47.588079" lon="8.138885">
        <ele>306.494320</ele>
        <time>2021-11-19T22:19:07.996Z</time>
      </trkpt>
      <trkpt lat="47.588355" lon="8.138811">
        <ele>306.409784</ele>
        <time>2021-11-19T22:19:12.851Z</time>
      </trkpt>
      <trkpt lat="47.588762" lon="8.138925">
        <ele>306.661274</ele>
        <time>2021-11-19T22:19:20.261Z</time>
      </trkpt>
      <trkpt lat="47.588849" lon="8.139014">
        <ele>306.770037</ele>
        <time>2021-11-19T22:19:22.392Z</time>
      </trkpt>
      <trkpt lat="47.588921" lon="8.138996">
        <ele>306.845170</ele>
        <time>2021-11-19T22:19:30.688Z</time>
      </trkpt>
      <trkpt lat="47.588961" lon="8.138999">
        <ele>306.886383</ele>
        <time>2021-11-19T22:19:35.234Z</time>
      </trkpt>
      <trkpt lat="47.588988" lon="8.138979">
        <ele>306.917440</ele>
        <time>2021-11-19T22:19:38.665Z</time>
      </trkpt>
      <trkpt lat="47.589010" lon="8.138950">
        <ele>306.947731</ele>
        <time>2021-11-19T22:19:42.151Z</time>
      </trkpt>
      <trkpt lat="47.589034" lon="8.138899">
        <ele>306.990889</ele>
        <time>2021-11-19T22:19:46.873Z</time>
      </trkpt>
      <trkpt lat="47.589035" lon="8.138792">
        <ele>307.065154</ele>
        <time>2021-11-19T22:19:55.263Z</time>
      </trkpt>
      <trkpt lat="47.589075" lon="8.137452">
        <ele>307.996025</ele>
        <time>2021-11-19T22:20:17.593Z</time>
      </trkpt>
      <trkpt lat="47.589120" lon="8.136200">
        <ele>309.221042</ele>
        <time>2021-11-19T22:20:34.889Z</time>
      </trkpt>
      <trkpt lat="47.589138" lon="8.135853">
        <ele>309.595437</ele>
        <time>2021-11-19T22:20:40.758Z</time>
      </trkpt>
      <trkpt lat="47.589491" lon="8.135869">
        <ele>310.158753</ele>
        <time>2021-11-19T22:20:48.771Z</time>
      </trkpt>
      <trkpt lat="47.589730" lon="8.135855">
        <ele>310.540268</ele>
        <time>2021-11-19T22:20:53.898Z</time>
      </trkpt>
      <trkpt lat="47.589749" lon="8.135792">
        <ele>310.614508</ele>
        <time>2021-11-19T22:20:54.667Z</time>
      </trkpt>
      <trkpt lat="47.589862" lon="8.134673">
        <ele>311.656677</ele>
        <time>2021-11-19T22:21:09.973Z</time>
      </trkpt>
      <trkpt lat="47.589882" lon="8.134609">
        <ele>311.714653</ele>
        <time>2021-11-19T22:21:11.044Z</time>
      </trkpt>
      <trkpt lat="47.589915" lon="8.134585">
        <ele>311.759447</ele>
        <time>2021-11-19T22:21:11.460Z</time>
      </trkpt>
      <trkpt lat="47.590548" lon="8.134710">
        <ele>312.537695</ele>
        <time>2021-11-19T22:21:24.148Z</time>
      </trkpt>
      <trkpt lat="47.590681" lon="8.134711">
        <ele>312.699784</ele>
        <time>2021-11-19T22:21:26.606Z</time>
      </trkpt>
      <trkpt lat="47.590729" lon="8.134772">
        <ele>312.776828</ele>
        <time>2021-11-19T22:21:28.045Z</time>
      </trkpt>
      <trkpt lat="47.591316" lon="8.134958">
        <ele>313.649865</ele>
        <time>2021-11-19T22:21:39.952Z</time>
      </trkpt>
      <trkpt lat="47.591403" lon="8.134907">
        <ele>313.835131</ele>
        <time>2021-11-19T22:21:41.347Z</time>
      </trkpt>
      <trkpt lat="47.591423" lon="8.134826">
        <ele>313.950335</ele>
        <time>2021-11-19T22:21:42.343Z</time>
      </trkpt>
      <trkpt lat="47.591492" lon="8.134487">
        <ele>314.423264</ele>
        <time>2021-11-19T22:21:46.800Z</time>
      </trkpt>
      <trkpt lat="47.591534" lon="8.134213">
        <ele>314.798543</ele>
        <time>2021-11-19T22:21:50.895Z</time>
      </trkpt>
      <trkpt lat="47.591641" lon="8.133972">
        <ele>315.183903</ele>
        <time>2021-11-19T22:21:54.844Z</time>
      </trkpt>
      <trkpt lat="47.592031" lon="8.133513">
        <ele>316.169955</ele>
        <time>2021-11-19T22:22:07.275Z</time>
      </trkpt>
      <trkpt lat="47.592062" lon="8.133399">
        <ele>316.334120</ele>
        <time>2021-11-19T22:22:09.786Z</time>
      </trkpt>
      <trkpt lat="47.592370" lon="8.133089">
        <ele>317.199429</ele>
        <time>2021-11-19T22:22:20.040Z</time>
      </trkpt>
      <trkpt lat="47.592423" lon="8.133035">
        <ele>317.398514</ele>
        <time>2021-11-19T22:22:21.582Z</time>
      </trkpt>
      <trkpt lat="47.592571" lon="8.132886">
        <ele>317.952338</ele>
        <time>2021-11-19T22:22:26.547Z</time>
      </trkpt>
      <trkpt lat="47.592658" lon="8.132770">
        <ele>318.314558</ele>
        <time>2021-11-19T22:22:30.164Z</time>
      </trkpt>
      <trkpt lat="47.592719" lon="8.132686">
        <ele>318.572284</ele>
        <time>2021-11-19T22:22:32.197Z</time>
      </trkpt>
      <trkpt lat="47.592814" lon="8.132534">
        <ele>319.004969</ele>
        <time>2021-11-19T22:22:35.752Z</time>
      </trkpt>
      <trkpt lat="47.592836" lon="8.132464">
        <ele>319.166211</ele>
        <time>2021-11-19T22:22:37.180Z</time>
      </trkpt>
      <trkpt lat="47.592867" lon="8.132225">
        <ele>319.674355</ele>
        <time>2021-11-19T22:22:41.794Z</time>
      </trkpt>
      <trkpt lat="47.592852" lon="8.131926">
        <ele>320.300350</ele>
        <time>2021-11-19T22:22:47.230Z</time>
      </trkpt>
      <trkpt lat="47.592756" lon="8.131619">
        <ele>321.006877</ele>
        <time>2021-11-19T22:22:53.701Z</time>
      </trkpt>
      <trkpt lat="47.592645" lon="8.131446">
        <ele>321.505433</ele>
        <time>2021-11-19T22:22:58.220Z</time>
      </trkpt>
      <trkpt lat="47.592405" lon="8.131115">
        <ele>322.527632</ele>
        <time>2021-11-19T22:23:06.853Z</time>
      </trkpt>
      <trkpt lat="47.592252" lon="8.130776">
        <ele>323.438280</ele>
        <time>2021-11-19T22:23:14.432Z</time>
      </trkpt>
      <trkpt lat="47.592238" lon="8.130462">
        <ele>324.140809</ele>
        <time>2021-11-19T22:23:19.956Z</time>
      </trkpt>
      <trkpt lat="47.592250" lon="8.130375">
        <ele>324.339055</ele>
        <time>2021-11-19T22:23:21.736Z</time>
      </trkpt>
      <trkpt lat="47.592262" lon="8.130337">
        <ele>324.432729</ele>
        <time>2021-11-19T22:23:22.600Z</time>
      </trkpt>
      <trkpt lat="47.592418" lon="8.130083">
        <ele>325.199685</ele>
        <time>2021-11-19T22:23:28.136Z</time>
      </trkpt>
      <trkpt lat="47.592466" lon="8.130020">
        <ele>325.411885</ele>
        <time>2021-11-19T22:23:30.205Z</time>
      </trkpt>
      <trkpt lat="47.592515" lon="8.129957">
        <ele>325.626574</ele>
        <time>2021-11-19T22:23:32.279Z</time>
      </trkpt>
      <trkpt lat="47.592584" lon="8.129875">
        <ele>325.919292</ele>
        <time>2021-11-19T22:23:34.618Z</time>
      </trkpt>
      <trkpt lat="47.592610" lon="8.129906">
        <ele>326.029733</ele>
        <time>2021-11-19T22:23:35.475Z</time>
      </trkpt>
      <trkpt lat="47.592642" lon="8.129925">
        <ele>326.143839</ele>
        <time>2021-11-19T22:23:36.516Z</time>
      </trkpt>
      <trkpt lat="47.592708" lon="8.129916">
        <ele>326.363241</ele>
        <time>2021-11-19T22:23:38.328Z</time>
      </trkpt>
      <trkpt lat="47.592737" lon="8.129890">
        <ele>326.475424</ele>
        <time>2021-11-19T22:23:39.531Z</time>
      </trkpt>
      <trkpt lat="47.592762" lon="8.129848">
        <ele>326.600485</ele>
        <time>2021-11-19T22:23:40.761Z</time>
      </trkpt>
      <trkpt lat="47.592775" lon="8.129797">
        <ele>326.722202</ele>
        <time>2021-11-19T22:23:41.914Z</time>
      </trkpt>
      <trkpt lat="47.592776" lon="8.129742">
        <ele>326.845032</ele>
        <time>2021-11-19T22:23:43.160Z</time>
      </trkpt>
      <trkpt lat="47.592769" lon="8.129700">
        <ele>326.941616</ele>
        <time>2021-11-19T22:23:43.823Z</time>
      </trkpt>
      <trkpt lat="47.592734" lon="8.129633">
        <ele>327.130815</ele>
        <time>2021-11-19T22:23:45.241Z</time>
      </trkpt>
      <trkpt lat="47.592710" lon="8.129612">
        <ele>327.223063</ele>
        <time>2021-11-19T22:23:45.892Z</time>
      </trkpt>
      <trkpt lat="47.592730" lon="8.129513">
        <ele>327.453780</ele>
        <time>2021-11-19T22:23:47.737Z</time>
      </trkpt>
      <trkpt lat="47.592790" lon="8.129276">
        <ele>328.018924</ele>
        <time>2021-11-19T22:23:53.426Z</time>
      </trkpt>
      <trkpt lat="47.592842" lon="8.129002">
        <ele>328.762993</ele>
        <time>2021-11-19T22:23:58.337Z</time>
      </trkpt>
      <trkpt lat="47.592890" lon="8.128474">
        <ele>330.400939</ele>
        <time>2021-11-19T22:24:09.315Z</time>
      </trkpt>
      <trkpt lat="47.592904" lon="8.128153">
        <ele>331.389870</ele>
        <time>2021-11-19T22:24:16.569Z</time>
      </trkpt>
      <trkpt lat="47.592940" lon="8.127847">
        <ele>332.344832</ele>
        <time>2021-11-19T22:24:23.661Z</time>
      </trkpt>
      <trkpt lat="47.593010" lon="8.127451">
        <ele>333.603404</ele>
        <time>2021-11-19T22:24:33.449Z</time>
      </trkpt>
      <trkpt lat="47.593149" lon="8.126960">
        <ele>335.240516</ele>
        <time>2021-11-19T22:24:46.376Z</time>
      </trkpt>
      <trkpt lat="47.593221" lon="8.126726">
        <ele>336.031252</ele>
        <time>2021-11-19T22:24:51.701Z</time>
      </trkpt>
      <trkpt lat="47.593285" lon="8.126540">
        <ele>336.704233</ele>
        <time>2021-11-19T22:24:57.224Z</time>
      </trkpt>
      <trkpt lat="47.593382" lon="8.126293">
        <ele>337.836876</ele>
        <time>2021-11-19T22:25:03.254Z</time>
      </trkpt>
      <trkpt lat="47.593457" lon="8.126120">
        <ele>338.651851</ele>
        <time>2021-11-19T22:25:08.352Z</time>
      </trkpt>
      <trkpt lat="47.593536" lon="8.125950">
        <ele>339.469954</ele>
        <time>2021-11-19T22:25:12.928Z</time>
      </trkpt>
      <trkpt lat="47.593606" lon="8.125816">
        <ele>340.141624</ele>
        <time>2021-11-19T22:25:15.760Z</time>
      </trkpt>
      <trkpt lat="47.593621" lon="8.125790">
        <ele>340.277210</ele>
        <time>2021-11-19T22:25:16.980Z</time>
      </trkpt>
      <trkpt lat="47.593722" lon="8.125617">
        <ele>341.183948</ele>
        <time>2021-11-19T22:25:22.250Z</time>
      </trkpt>
      <trkpt lat="47.594022" lon="8.125313">
        <ele>343.319034</ele>
        <time>2021-11-19T22:25:36.273Z</time>
      </trkpt>
      <trkpt lat="47.594324" lon="8.125162">
        <ele>345.191741</ele>
        <time>2021-11-19T22:25:49.367Z</time>
      </trkpt>
      <trkpt lat="47.594630" lon="8.125174">
        <ele>346.990415</ele>
        <time>2021-11-19T22:26:02.740Z</time>
      </trkpt>
      <trkpt lat="47.595021" lon="8.125427">
        <ele>350.371298</ele>
        <time>2021-11-19T22:26:21.921Z</time>
      </trkpt>
      <trkpt lat="47.595068" lon="8.125478">
        <ele>350.840138</ele>
        <time>2021-11-19T22:26:25.877Z</time>
      </trkpt>
      <trkpt lat="47.595440" lon="8.125887">
        <ele>354.568146</ele>
        <time>2021-11-19T22:26:47.576Z</time>
      </trkpt>
      <trkpt lat="47.595832" lon="8.126161">
        <ele>358.056817</ele>
        <time>2021-11-19T22:27:07.255Z</time>
      </trkpt>
      <trkpt lat="47.596245" lon="8.126326">
        <ele>361.500092</ele>
        <time>2021-11-19T22:27:28.208Z</time>
      </trkpt>
      <trkpt lat="47.596396" lon="8.126327">
        <ele>362.549056</ele>
        <time>2021-11-19T22:27:37.866Z</time>
      </trkpt>
      <trkpt lat="47.596572" lon="8.126294">
        <ele>363.761168</ele>
        <time>2021-11-19T22:27:45.350Z</time>
      </trkpt>
      <trkpt lat="47.596737" lon="8.126261">
        <ele>364.898754</ele>
        <time>2021-11-19T22:27:54.324Z</time>
      </trkpt>
      <trkpt lat="47.596990" lon="8.125976">
        <ele>367.069598</ele>
        <time>2021-11-19T22:28:07.464Z</time>
      </trkpt>
      <trkpt lat="47.597203" lon="8.125755">
        <ele>368.845794</ele>
        <time>2021-11-19T22:28:17.307Z</time>
      </trkpt>
      <trkpt lat="47.597372" lon="8.125534">
        <ele>370.385337</ele>
        <time>2021-11-19T22:28:27.734Z</time>
      </trkpt>
      <trkpt lat="47.597805" lon="8.125249">
        <ele>373.622173</ele>
        <time>2021-11-19T22:28:45.141Z</time>
      </trkpt>
      <trkpt lat="47.598391" lon="8.124142">
        <ele>378.773394</ele>
        <time>2021-11-19T22:29:16.285Z</time>
      </trkpt>
      <trkpt lat="47.598500" lon="8.123509">
        <ele>381.136593</ele>
        <time>2021-11-19T22:29:31.555Z</time>
      </trkpt>
      <trkpt lat="47.598619" lon="8.123313">
        <ele>382.090607</ele>
        <time>2021-11-19T22:29:38.214Z</time>
      </trkpt>
      <trkpt lat="47.598969" lon="8.123240">
        <ele>384.177899</ele>
        <time>2021-11-19T22:29:52.805Z</time>
      </trkpt>
      <trkpt lat="47.599133" lon="8.123121">
        <ele>385.588322</ele>
        <time>2021-11-19T22:30:00.845Z</time>
      </trkpt>
      <trkpt lat="47.599554" lon="8.121948">
        <ele>392.510162</ele>
        <time>2021-11-19T22:30:41.644Z</time>
      </trkpt>
      <trkpt lat="47.599666" lon="8.121843">
        <ele>393.533747</ele>
        <time>2021-11-19T22:30:48.326Z</time>
      </trkpt>
      <trkpt lat="47.599782" lon="8.121814">
        <ele>394.442491</ele>
        <time>2021-11-19T22:30:54.258Z</time>
      </trkpt>
      <trkpt lat="47.599965" lon="8.121910">
        <ele>395.942007</ele>
        <time>2021-11-19T22:31:04.442Z</time>
      </trkpt>
      <trkpt lat="47.600113" lon="8.122232">
        <ele>397.811811</ele>
        <time>2021-11-19T22:31:18.659Z</time>
      </trkpt>
      <trkpt lat="47.600352" lon="8.123023">
        <ele>400.951411</ele>
        <time>2021-11-19T22:31:43.002Z</time>
      </trkpt>
      <trkpt lat="47.600526" lon="8.123291">
        <ele>402.298976</ele>
        <time>2021-11-19T22:31:53.046Z</time>
      </trkpt>
      <trkpt lat="47.600861" lon="8.123386">
        <ele>404.131099</ele>
        <time>2021-11-19T22:32:04.677Z</time>
      </trkpt>
      <trkpt lat="47.601156" lon="8.123343">
        <ele>405.723387</ele>
        <time>2021-11-19T22:32:13.695Z</time>
      </trkpt>
      <trkpt lat="47.601429" lon="8.123093">
        <ele>407.050896</ele>
        <time>2021-11-19T22:32:22.114Z</time>
      </trkpt>
      <trkpt lat="47.601547" lon="8.122801">
        <ele>406.842412</ele>
        <time>2021-11-19T22:32:27.228Z</time>
      </trkpt>
      <trkpt lat="47.601654" lon="8.122431">
        <ele>406.595856</ele>
        <time>2021-11-19T22:32:32.703Z</time>
      </trkpt>
      <trkpt lat="47.601696" lon="8.121784">
        <ele>406.197789</ele>
        <time>2021-11-19T22:32:37.431Z</time>
      </trkpt>
      <trkpt lat="47.601617" lon="8.121097">
        <ele>405.770983</ele>
        <time>2021-11-19T22:32:42.191Z</time>
      </trkpt>
      <trkpt lat="47.601430" lon="8.120710">
        <ele>405.479403</ele>
        <time>2021-11-19T22:32:45.480Z</time>
      </trkpt>
      <trkpt lat="47.601109" lon="8.120324">
        <ele>405.272058</ele>
        <time>2021-11-19T22:32:50.303Z</time>
      </trkpt>
      <trkpt lat="47.601014" lon="8.120104">
        <ele>405.184615</ele>
        <time>2021-11-19T22:32:52.109Z</time>
      </trkpt>
      <trkpt lat="47.601015" lon="8.119536">
        <ele>404.994495</ele>
        <time>2021-11-19T22:32:56.612Z</time>
      </trkpt>
      <trkpt lat="47.601146" lon="8.118886">
        <ele>404.767420</ele>
        <time>2021-11-19T22:33:02.488Z</time>
      </trkpt>
      <trkpt lat="47.601754" lon="8.117487">
        <ele>408.382443</ele>
        <time>2021-11-19T22:33:31.356Z</time>
      </trkpt>
      <trkpt lat="47.602008" lon="8.116660">
        <ele>411.495340</ele>
        <time>2021-11-19T22:33:56.890Z</time>
      </trkpt>
      <trkpt lat="47.602040" lon="8.116422">
        <ele>412.326648</ele>
        <time>2021-11-19T22:34:05.919Z</time>
      </trkpt>
      <trkpt lat="47.602070" lon="8.116218">
        <ele>413.041866</ele>
        <time>2021-11-19T22:34:10.946Z</time>
      </trkpt>
      <trkpt lat="47.602160" lon="8.115597">
        <ele>415.503511</ele>
        <time>2021-11-19T22:34:29.069Z</time>
      </trkpt>
      <trkpt lat="47.602190" lon="8.115387">
        <ele>416.379094</ele>
        <time>2021-11-19T22:34:37.185Z</time>
      </trkpt>
      <trkpt lat="47.602299" lon="8.115102">
        <ele>417.715561</ele>
        <time>2021-11-19T22:34:44.914Z</time>
      </trkpt>
      <trkpt lat="47.602486" lon="8.114839">
        <ele>419.274549</ele>
        <time>2021-11-19T22:34:56.630Z</time>
      </trkpt>
      <trkpt lat="47.603292" lon="8.114537">
        <ele>424.303492</ele>
        <time>2021-11-19T22:35:26.711Z</time>
      </trkpt>
      <trkpt lat="47.603491" lon="8.114397">
        <ele>425.274363</ele>
        <time>2021-11-19T22:35:34.414Z</time>
      </trkpt>
      <trkpt lat="47.603875" lon="8.113901">
        <ele>427.280036</ele>
        <time>2021-11-19T22:35:47.568Z</time>
      </trkpt>
      <trkpt lat="47.604126" lon="8.113234">
        <ele>429.308606</ele>
        <time>2021-11-19T22:36:01.134Z</time>
      </trkpt>
      <trkpt lat="47.604115" lon="8.112594">
        <ele>431.008809</ele>
        <time>2021-11-19T22:36:15.260Z</time>
      </trkpt>
      <trkpt lat="47.604174" lon="8.112238">
        <ele>432.171393</ele>
        <time>2021-11-19T22:36:22.914Z</time>
      </trkpt>
      <trkpt lat="47.604293" lon="8.111846">
        <ele>434.036590</ele>
        <time>2021-11-19T22:36:33.932Z</time>
      </trkpt>
      <trkpt lat="47.604385" lon="8.111694">
        <ele>434.922807</ele>
        <time>2021-11-19T22:36:38.809Z</time>
      </trkpt>
      <trkpt lat="47.604629" lon="8.111584">
        <ele>436.563839</ele>
        <time>2021-11-19T22:36:49.006Z</time>
      </trkpt>
      <trkpt lat="47.604886" lon="8.111678">
        <ele>438.267139</ele>
        <time>2021-11-19T22:37:01.583Z</time>
      </trkpt>
      <trkpt lat="47.605059" lon="8.111643">
        <ele>439.390676</ele>
        <time>2021-11-19T22:37:08.112Z</time>
      </trkpt>
      <trkpt lat="47.605149" lon="8.111580">
        <ele>440.031073</ele>
        <time>2021-11-19T22:37:14.063Z</time>
      </trkpt>
      <trkpt lat="47.605417" lon="8.111394">
        <ele>441.935080</ele>
        <time>2021-11-19T22:37:25.395Z</time>
      </trkpt>
      <trkpt lat="47.606083" lon="8.110932">
        <ele>446.546128</ele>
        <time>2021-11-19T22:37:58.130Z</time>
      </trkpt>
      <trkpt lat="47.606243" lon="8.110732">
        <ele>447.845120</ele>
        <time>2021-11-19T22:38:07.203Z</time>
      </trkpt>
      <trkpt lat="47.606569" lon="8.110278">
        <ele>450.621229</ele>
        <time>2021-11-19T22:38:22.440Z</time>
      </trkpt>
      <trkpt lat="47.606704" lon="8.110161">
        <ele>451.591898</ele>
        <time>2021-11-19T22:38:27.172Z</time>
      </trkpt>
      <trkpt lat="47.607088" lon="8.110090">
        <ele>453.994230</ele>
        <time>2021-11-19T22:38:42.332Z</time>
      </trkpt>
      <trkpt lat="47.607173" lon="8.110024">
        <ele>454.646864</ele>
        <time>2021-11-19T22:38:46.421Z</time>
      </trkpt>
      <trkpt lat="47.607583" lon="8.109381">
        <ele>459.625569</ele>
        <time>2021-11-19T22:39:11.319Z</time>
      </trkpt>
      <trkpt lat="47.607629" lon="8.109302">
        <ele>460.212784</ele>
        <time>2021-11-19T22:39:13.974Z</time>
      </trkpt>
      <trkpt lat="47.607769" lon="8.109056">
        <ele>462.023770</ele>
        <time>2021-11-19T22:39:25.865Z</time>
      </trkpt>
      <trkpt lat="47.607835" lon="8.108941">
        <ele>462.873350</ele>
        <time>2021-11-19T22:39:30.847Z</time>
      </trkpt>
      <trkpt lat="47.608075" lon="8.109148">
        <ele>465.189846</ele>
        <time>2021-11-19T22:39:48.594Z</time>
      </trkpt>
      <trkpt lat="47.608812" lon="8.109891">
        <ele>471.994039</ele>
        <time>2021-11-19T22:40:39.192Z</time>
      </trkpt>
      <trkpt lat="47.609002" lon="8.110079">
        <ele>473.523059</ele>
        <time>2021-11-19T22:40:52.702Z</time>
      </trkpt>
      <trkpt lat="47.609208" lon="8.110195">
        <ele>474.998182</ele>
        <time>2021-11-19T22:41:05.208Z</time>
      </trkpt>
      <trkpt lat="47.609846" lon="8.110551">
        <ele>479.561555</ele>
        <time>2021-11-19T22:41:34.496Z</time>
      </trkpt>
      <trkpt lat="47.610137" lon="8.110586">
        <ele>481.484377</ele>
        <time>2021-11-19T22:41:44.819Z</time>
      </trkpt>
      <trkpt lat="47.610420" lon="8.110619">
        <ele>481.985443</ele>
        <time>2021-11-19T22:41:53.946Z</time>
      </trkpt>
      <trkpt lat="47.610839" lon="8.110598">
        <ele>482.725445</ele>
        <time>2021-11-19T22:42:02.443Z</time>
      </trkpt>
      <trkpt lat="47.611124" lon="8.110305">
        <ele>483.337514</ele>
        <time>2021-11-19T22:42:09.809Z</time>
      </trkpt>
      <trkpt lat="47.611166" lon="8.110243">
        <ele>483.442104</ele>
        <time>2021-11-19T22:42:10.621Z</time>
      </trkpt>
      <trkpt lat="47.611132" lon="8.110103">
        <ele>483.619178</ele>
        <time>2021-11-19T22:42:13.716Z</time>
      </trkpt>
      <trkpt lat="47.611123" lon="8.109613">
        <ele>484.202476</ele>
        <time>2021-11-19T22:42:22.236Z</time>
      </trkpt>
      <trkpt lat="47.611256" lon="8.108780">
        <ele>486.474039</ele>
        <time>2021-11-19T22:42:40.570Z</time>
      </trkpt>
      <trkpt lat="47.611310" lon="8.108499">
        <ele>487.581593</ele>
        <time>2021-11-19T22:42:47.781Z</time>
      </trkpt>
      <trkpt lat="47.611380" lon="8.108034">
        <ele>489.387572</ele>
        <time>2021-11-19T22:43:00.456Z</time>
      </trkpt>
      <trkpt lat="47.611462" lon="8.107501">
        <ele>491.459832</ele>
        <time>2021-11-19T22:43:17.383Z</time>
      </trkpt>
      <trkpt lat="47.611989" lon="8.104159">
        <ele>508.640651</ele>
        <time>2021-11-19T22:45:18.915Z</time>
      </trkpt>
      <trkpt lat="47.612033" lon="8.103872">
        <ele>510.137288</ele>
        <time>2021-11-19T22:45:30.071Z</time>
      </trkpt>
      <trkpt lat="47.612046" lon="8.103820">
        <ele>510.408772</ele>
        <time>2021-11-19T22:45:32.698Z</time>
      </trkpt>
      <trkpt lat="47.612753" lon="8.102988">
        <ele>516.961710</ele>
        <time>2021-11-19T22:46:16.700Z</time>
      </trkpt>
      <trkpt lat="47.612858" lon="8.102913">
        <ele>517.807918</ele>
        <time>2021-11-19T22:46:23.727Z</time>
      </trkpt>
      <trkpt lat="47.613164" lon="8.102691">
        <ele>520.281335</ele>
        <time>2021-11-19T22:46:40.220Z</time>
      </trkpt>
      <trkpt lat="47.613534" lon="8.102428">
        <ele>522.943627</ele>
        <time>2021-11-19T22:46:58.579Z</time>
      </trkpt>
      <trkpt lat="47.613926" lon="8.102132">
        <ele>525.106575</ele>
        <time>2021-11-19T22:47:16.647Z</time>
      </trkpt>
      <trkpt lat="47.614039" lon="8.102047">
        <ele>525.729587</ele>
        <time>2021-11-19T22:47:21.190Z</time>
      </trkpt>
      <trkpt lat="47.614082" lon="8.102011">
        <ele>525.972382</ele>
        <time>2021-11-19T22:47:23.513Z</time>
      </trkpt>
      <trkpt lat="47.614152" lon="8.101898">
        <ele>526.481096</ele>
        <time>2021-11-19T22:47:28.802Z</time>
      </trkpt>
      <trkpt lat="47.614426" lon="8.101285">
        <ele>528.919201</ele>
        <time>2021-11-19T22:47:47.569Z</time>
      </trkpt>
      <trkpt lat="47.614608" lon="8.100926">
        <ele>530.408191</ele>
        <time>2021-11-19T22:47:58.803Z</time>
      </trkpt>
      <trkpt lat="47.614823" lon="8.100584">
        <ele>531.677825</ele>
        <time>2021-11-19T22:48:10.059Z</time>
      </trkpt>
      <trkpt lat="47.615215" lon="8.100058">
        <ele>533.403821</ele>
        <time>2021-11-19T22:48:26.888Z</time>
      </trkpt>
      <trkpt lat="47.615144" lon="8.099935">
        <ele>533.760269</ele>
        <time>2021-11-19T22:48:30.304Z</time>
      </trkpt>
      <trkpt lat="47.614941" lon="8.099382">
        <ele>535.146324</ele>
        <time>2021-11-19T22:48:42.841Z</time>
      </trkpt>
      <trkpt lat="47.614745" lon="8.098653">
        <ele>536.873939</ele>
        <time>2021-11-19T22:49:01.089Z</time>
      </trkpt>
      <trkpt lat="47.614741" lon="8.097972">
        <ele>538.871285</ele>
        <time>2021-11-19T22:49:17.954Z</time>
      </trkpt>
      <trkpt lat="47.614825" lon="8.097393">
        <ele>540.646898</ele>
        <time>2021-11-19T22:49:32.533Z</time>
      </trkpt>
      <trkpt lat="47.614925" lon="8.097205">
        <ele>541.364864</ele>
        <time>2021-11-19T22:49:37.778Z</time>
      </trkpt>
      <trkpt lat="47.615138" lon="8.097211">
        <ele>542.312331</ele>
        <time>2021-11-19T22:49:46.892Z</time>
      </trkpt>
      <trkpt lat="47.615959" lon="8.097190">
        <ele>546.143236</ele>
        <time>2021-11-19T22:50:20.098Z</time>
      </trkpt>
      <trkpt lat="47.617165" lon="8.096880">
        <ele>552.593263</ele>
        <time>2021-11-19T22:51:12.646Z</time>
      </trkpt>
      <trkpt lat="47.617195" lon="8.096614">
        <ele>553.551294</ele>
        <time>2021-11-19T22:51:19.379Z</time>
      </trkpt>
      <trkpt lat="47.617226" lon="8.096351">
        <ele>554.491219</ele>
        <time>2021-11-19T22:51:24.633Z</time>
      </trkpt>
      <trkpt lat="47.617257" lon="8.096260">
        <ele>554.732389</ele>
        <time>2021-11-19T22:51:26.964Z</time>
      </trkpt>
      <trkpt lat="47.617288" lon="8.096168">
        <ele>554.975671</ele>
        <time>2021-11-19T22:51:29.855Z</time>
      </trkpt>
      <trkpt lat="47.617480" lon="8.095855">
        <ele>555.976674</ele>
        <time>2021-11-19T22:51:38.208Z</time>
      </trkpt>
      <trkpt lat="47.617920" lon="8.095173">
        <ele>558.209600</ele>
        <time>2021-11-19T22:51:56.967Z</time>
      </trkpt>
      <trkpt lat="47.618698" lon="8.093965">
        <ele>561.248128</ele>
        <time>2021-11-19T22:52:26.209Z</time>
      </trkpt>
      <trkpt lat="47.618954" lon="8.093555">
        <ele>561.692488</ele>
        <time>2021-11-19T22:52:35.218Z</time>
      </trkpt>
      <trkpt lat="47.619102" lon="8.093319">
        <ele>561.948782</ele>
        <time>2021-11-19T22:52:40.019Z</time>
      </trkpt>
      <trkpt lat="47.619464" lon="8.092810">
        <ele>562.537099</ele>
        <time>2021-11-19T22:52:48.667Z</time>
      </trkpt>
      <trkpt lat="47.619712" lon="8.092618">
        <ele>562.867069</ele>
        <time>2021-11-19T22:52:52.529Z</time>
      </trkpt>
      <trkpt lat="47.620014" lon="8.092731">
        <ele>561.587685</ele>
        <time>2021-11-19T22:52:56.269Z</time>
      </trkpt>
      <trkpt lat="47.620191" lon="8.092797">
        <ele>560.719363</ele>
        <time>2021-11-19T22:52:58.187Z</time>
      </trkpt>
      <trkpt lat="47.620663" lon="8.093010">
        <ele>558.372092</ele>
        <time>2021-11-19T22:53:03.081Z</time>
      </trkpt>
      <trkpt lat="47.621156" lon="8.092288">
        <ele>555.076208</ele>
        <time>2021-11-19T22:53:09.338Z</time>
      </trkpt>
      <trkpt lat="47.621541" lon="8.091890">
        <ele>551.807910</ele>
        <time>2021-11-19T22:53:13.424Z</time>
      </trkpt>
      <trkpt lat="47.621919" lon="8.091753">
        <ele>548.683408</ele>
        <time>2021-11-19T22:53:16.797Z</time>
      </trkpt>
      <trkpt lat="47.622311" lon="8.091144">
        <ele>544.125823</ele>
        <time>2021-11-19T22:53:21.751Z</time>
      </trkpt>
      <trkpt lat="47.622672" lon="8.090784">
        <ele>540.633135</ele>
        <time>2021-11-19T22:53:25.610Z</time>
      </trkpt>
      <trkpt lat="47.622984" lon="8.090174">
        <ele>538.510741</ele>
        <time>2021-11-19T22:53:30.373Z</time>
      </trkpt>
      <trkpt lat="47.623102" lon="8.090180">
        <ele>538.123471</ele>
        <time>2021-11-19T22:53:31.528Z</time>
      </trkpt>
      <trkpt lat="47.623875" lon="8.090680">
        <ele>535.357537</ele>
        <time>2021-11-19T22:53:41.048Z</time>
      </trkpt>
      <trkpt lat="47.623901" lon="8.090859">
        <ele>534.952733</ele>
        <time>2021-11-19T22:53:42.833Z</time>
      </trkpt>
      <trkpt lat="47.623761" lon="8.091574">
        <ele>532.796942</ele>
        <time>2021-11-19T22:53:48.712Z</time>
      </trkpt>
      <trkpt lat="47.624013" lon="8.093106">
        <ele>526.774542</ele>
        <time>2021-11-19T22:53:58.559Z</time>
      </trkpt>
      <trkpt lat="47.624093" lon="8.093346">
        <ele>525.752023</ele>
        <time>2021-11-19T22:54:00.178Z</time>
      </trkpt>
      <trkpt lat="47.624296" lon="8.093914">
        <ele>522.829350</ele>
        <time>2021-11-19T22:54:03.961Z</time>
      </trkpt>
      <trkpt lat="47.624392" lon="8.094169">
        <ele>520.709793</ele>
        <time>2021-11-19T22:54:05.730Z</time>
      </trkpt>
      <trkpt lat="47.624502" lon="8.094318">
        <ele>519.106124</ele>
        <time>2021-11-19T22:54:06.992Z</time>
      </trkpt>
      <trkpt lat="47.624585" lon="8.094303">
        <ele>518.205878</ele>
        <time>2021-11-19T22:54:07.712Z</time>
      </trkpt>
      <trkpt lat="47.624675" lon="8.094143">
        <ele>516.693581</ele>
        <time>2021-11-19T22:54:08.982Z</time>
      </trkpt>
      <trkpt lat="47.624666" lon="8.093965">
        <ele>515.398271</ele>
        <time>2021-11-19T22:54:09.995Z</time>
      </trkpt>
      <trkpt lat="47.624527" lon="8.093362">
        <ele>510.773667</ele>
        <time>2021-11-19T22:54:13.592Z</time>
      </trkpt>
      <trkpt lat="47.624489" lon="8.093062">
        <ele>508.558559</ele>
        <time>2021-11-19T22:54:15.332Z</time>
      </trkpt>
      <trkpt lat="47.624479" lon="8.092985">
        <ele>507.989518</ele>
        <time>2021-11-19T22:54:15.773Z</time>
      </trkpt>
      <trkpt lat="47.624472" lon="8.092160">
        <ele>502.532672</ele>
        <time>2021-11-19T22:54:20.473Z</time>
      </trkpt>
      <trkpt lat="47.624542" lon="8.091883">
        <ele>500.851007</ele>
        <time>2021-11-19T22:54:22.328Z</time>
      </trkpt>
      <trkpt lat="47.624603" lon="8.091835">
        <ele>500.268643</ele>
        <time>2021-11-19T22:54:22.922Z</time>
      </trkpt>
      <trkpt lat="47.624688" lon="8.091810">
        <ele>499.537784</ele>
        <time>2021-11-19T22:54:23.635Z</time>
      </trkpt>
      <trkpt lat="47.624819" lon="8.091982">
        <ele>498.062407</ele>
        <time>2021-11-19T22:54:25.240Z</time>
      </trkpt>
      <trkpt lat="47.624886" lon="8.092492">
        <ele>495.108746</ele>
        <time>2021-11-19T22:54:28.288Z</time>
      </trkpt>
      <trkpt lat="47.625091" lon="8.093056">
        <ele>491.466180</ele>
        <time>2021-11-19T22:54:32.166Z</time>
      </trkpt>
      <trkpt lat="47.625218" lon="8.093608">
        <ele>489.016438</ele>
        <time>2021-11-19T22:54:35.697Z</time>
      </trkpt>
      <trkpt lat="47.625279" lon="8.093598">
        <ele>488.895549</ele>
        <time>2021-11-19T22:54:36.227Z</time>
      </trkpt>
      <trkpt lat="47.625322" lon="8.093542">
        <ele>488.782849</ele>
        <time>2021-11-19T22:54:36.692Z</time>
      </trkpt>
      <trkpt lat="47.625274" lon="8.093406">
        <ele>488.579039</ele>
        <time>2021-11-19T22:54:38.579Z</time>
      </trkpt>
      <trkpt lat="47.625054" lon="8.091704">
        <ele>486.278297</ele>
        <time>2021-11-19T22:54:53.794Z</time>
      </trkpt>
      <trkpt lat="47.625051" lon="8.091437">
        <ele>485.923780</ele>
        <time>2021-11-19T22:54:55.998Z</time>
      </trkpt>
      <trkpt lat="47.625062" lon="8.091129">
        <ele>485.274898</ele>
        <time>2021-11-19T22:55:03.492Z</time>
      </trkpt>
      <trkpt lat="47.624990" lon="8.090705">
        <ele>484.071291</ele>
        <time>2021-11-19T22:55:07.171Z</time>
      </trkpt>
      <trkpt lat="47.624337" lon="8.089618">
        <ele>480.063063</ele>
        <time>2021-11-19T22:55:16.678Z</time>
      </trkpt>
      <trkpt lat="47.624167" lon="8.089495">
        <ele>479.290592</ele>
        <time>2021-11-19T22:55:18.633Z</time>
      </trkpt>
      <trkpt lat="47.624052" lon="8.089412">
        <ele>478.768286</ele>
        <time>2021-11-19T22:55:19.681Z</time>
      </trkpt>
      <trkpt lat="47.623845" lon="8.089179">
        <ele>476.887806</ele>
        <time>2021-11-19T22:55:22.021Z</time>
      </trkpt>
      <trkpt lat="47.623782" lon="8.088589">
        <ele>473.274470</ele>
        <time>2021-11-19T22:55:25.465Z</time>
      </trkpt>
      <trkpt lat="47.623614" lon="8.088310">
        <ele>471.011423</ele>
        <time>2021-11-19T22:55:27.817Z</time>
      </trkpt>
      <trkpt lat="47.623531" lon="8.088246">
        <ele>470.171937</ele>
        <time>2021-11-19T22:55:28.582Z</time>
      </trkpt>
      <trkpt lat="47.623408" lon="8.088193">
        <ele>469.022447</ele>
        <time>2021-11-19T22:55:29.684Z</time>
      </trkpt>
      <trkpt lat="47.623129" lon="8.088202">
        <ele>466.517934</ele>
        <time>2021-11-19T22:55:32.030Z</time>
      </trkpt>
      <trkpt lat="47.622931" lon="8.088318">
        <ele>464.607438</ele>
        <time>2021-11-19T22:55:34.217Z</time>
      </trkpt>
      <trkpt lat="47.622774" lon="8.088485">
        <ele>462.873717</ele>
        <time>2021-11-19T22:55:35.858Z</time>
      </trkpt>
      <trkpt lat="47.622641" lon="8.088690">
        <ele>462.137296</ele>
        <time>2021-11-19T22:55:37.947Z</time>
      </trkpt>
      <trkpt lat="47.622504" lon="8.089006">
        <ele>461.905446</ele>
        <time>2021-11-19T22:55:40.331Z</time>
      </trkpt>
      <trkpt lat="47.622349" lon="8.088752">
        <ele>461.694014</ele>
        <time>2021-11-19T22:55:42.378Z</time>
      </trkpt>
      <trkpt lat="47.622238" lon="8.088481">
        <ele>461.498330</ele>
        <time>2021-11-19T22:55:47.217Z</time>
      </trkpt>
      <trkpt lat="47.622166" lon="8.088212">
        <ele>461.319728</ele>
        <time>2021-11-19T22:55:50.583Z</time>
      </trkpt>
      <trkpt lat="47.622158" lon="8.088022">
        <ele>461.202255</ele>
        <time>2021-11-19T22:55:54.335Z</time>
      </trkpt>
      <trkpt lat="47.622213" lon="8.087851">
        <ele>461.085336</ele>
        <time>2021-11-19T22:55:56.666Z</time>
      </trkpt>
      <trkpt lat="47.622320" lon="8.087684">
        <ele>460.943154</ele>
        <time>2021-11-19T22:56:00.661Z</time>
      </trkpt>
      <trkpt lat="47.622700" lon="8.087335">
        <ele>460.911079</ele>
        <time>2021-11-19T22:56:11.258Z</time>
      </trkpt>
      <trkpt lat="47.623255" lon="8.086994">
        <ele>463.389581</ele>
        <time>2021-11-19T22:56:27.402Z</time>
      </trkpt>
      <trkpt lat="47.623672" lon="8.086821">
        <ele>465.176108</ele>
        <time>2021-11-19T22:56:41.639Z</time>
      </trkpt>
      <trkpt lat="47.623803" lon="8.086729">
        <ele>465.774103</ele>
        <time>2021-11-19T22:56:46.527Z</time>
      </trkpt>
      <trkpt lat="47.623926" lon="8.086613">
        <ele>466.375444</ele>
        <time>2021-11-19T22:56:50.039Z</time>
      </trkpt>
      <trkpt lat="47.624183" lon="8.086393">
        <ele>467.599651</ele>
        <time>2021-11-19T22:57:01.583Z</time>
      </trkpt>
      <trkpt lat="47.624478" lon="8.086321">
        <ele>469.658054</ele>
        <time>2021-11-19T22:57:13.390Z</time>
      </trkpt>
      <trkpt lat="47.624640" lon="8.086270">
        <ele>471.037572</ele>
        <time>2021-11-19T22:57:18.037Z</time>
      </trkpt>
      <trkpt lat="47.624789" lon="8.086173">
        <ele>472.392976</ele>
        <time>2021-11-19T22:57:26.172Z</time>
      </trkpt>
      <trkpt lat="47.625134" lon="8.085871">
        <ele>475.729744</ele>
        <time>2021-11-19T22:57:44.418Z</time>
      </trkpt>
      <trkpt lat="47.625252" lon="8.085683">
        <ele>477.172051</ele>
        <time>2021-11-19T22:57:52.232Z</time>
      </trkpt>
      <trkpt lat="47.625295" lon="8.085611">
        <ele>477.712147</ele>
        <time>2021-11-19T22:57:57.599Z</time>
      </trkpt>
      <trkpt lat="47.625463" lon="8.085333">
        <ele>479.808449</ele>
        <time>2021-11-19T22:58:09.611Z</time>
      </trkpt>
      <trkpt lat="47.625732" lon="8.085108">
        <ele>482.380775</ele>
        <time>2021-11-19T22:58:28.294Z</time>
      </trkpt>
      <trkpt lat="47.625977" lon="8.085030">
        <ele>484.395375</ele>
        <time>2021-11-19T22:58:44.383Z</time>
      </trkpt>
      <trkpt lat="47.626073" lon="8.085044">
        <ele>485.158935</ele>
        <time>2021-11-19T22:58:49.237Z</time>
      </trkpt>
      <trkpt lat="47.626234" lon="8.085078">
        <ele>486.446192</ele>
        <time>2021-11-19T22:58:59.681Z</time>
      </trkpt>
      <trkpt lat="47.626244" lon="8.085081">
        <ele>486.526950</ele>
        <time>2021-11-19T22:59:00.507Z</time>
      </trkpt>
      <trkpt lat="47.626429" lon="8.085134">
        <ele>488.018384</ele>
        <time>2021-11-19T22:59:09.065Z</time>
      </trkpt>
      <trkpt lat="47.626567" lon="8.085214">
        <ele>489.191151</ele>
        <time>2021-11-19T22:59:17.839Z</time>
      </trkpt>
      <trkpt lat="47.626672" lon="8.085292">
        <ele>490.120636</ele>
        <time>2021-11-19T22:59:23.516Z</time>
      </trkpt>
      <trkpt lat="47.626827" lon="8.085428">
        <ele>491.546022</ele>
        <time>2021-11-19T22:59:31.228Z</time>
      </trkpt>
      <trkpt lat="47.626937" lon="8.085580">
        <ele>492.735847</ele>
        <time>2021-11-19T22:59:37.437Z</time>
      </trkpt>
      <trkpt lat="47.627062" lon="8.085782">
        <ele>494.198817</ele>
        <time>2021-11-19T22:59:43.450Z</time>
      </trkpt>
      <trkpt lat="47.627235" lon="8.086232">
        <ele>496.962565</ele>
        <time>2021-11-19T22:59:54.962Z</time>
      </trkpt>
      <trkpt lat="47.627285" lon="8.086444">
        <ele>497.908398</ele>
        <time>2021-11-19T23:00:01.703Z</time>
      </trkpt>
      <trkpt lat="47.627324" lon="8.086709">
        <ele>498.957125</ele>
        <time>2021-11-19T23:00:05.722Z</time>
      </trkpt>
      <trkpt lat="47.627332" lon="8.087225">
        <ele>500.952690</ele>
        <time>2021-11-19T23:00:20.801Z</time>
      </trkpt>
      <trkpt lat="47.627336" lon="8.087310">
        <ele>501.282130</ele>
        <time>2021-11-19T23:00:22.871Z</time>
      </trkpt>
      <trkpt lat="47.627332" lon="8.087686">
        <ele>502.736059</ele>
        <time>2021-11-19T23:00:34.272Z</time>
      </trkpt>
      <trkpt lat="47.627349" lon="8.088057">
        <ele>504.173786</ele>
        <time>2021-11-19T23:00:44.912Z</time>
      </trkpt>
      <trkpt lat="47.627377" lon="8.088275">
        <ele>505.031820</ele>
        <time>2021-11-19T23:00:48.709Z</time>
      </trkpt>
      <trkpt lat="47.627466" lon="8.088587">
        <ele>506.341725</ele>
        <time>2021-11-19T23:00:58.416Z</time>
      </trkpt>
      <trkpt lat="47.627588" lon="8.088804">
        <ele>507.434321</ele>
        <time>2021-11-19T23:01:03.398Z</time>
      </trkpt>
      <trkpt lat="47.627667" lon="8.088896">
        <ele>507.990288</ele>
        <time>2021-11-19T23:01:06.934Z</time>
      </trkpt>
      <trkpt lat="47.627675" lon="8.088905">
        <ele>508.045291</ele>
        <time>2021-11-19T23:01:07.311Z</time>
      </trkpt>
      <trkpt lat="47.627704" lon="8.088939">
        <ele>508.247785</ele>
        <time>2021-11-19T23:01:09.730Z</time>
      </trkpt>
      <trkpt lat="47.627869" lon="8.089080">
        <ele>509.290969</ele>
        <time>2021-11-19T23:01:14.981Z</time>
      </trkpt>
      <trkpt lat="47.628114" lon="8.089174">
        <ele>510.677397</ele>
        <time>2021-11-19T23:01:24.599Z</time>
      </trkpt>
      <trkpt lat="47.628389" lon="8.089256">
        <ele>512.214160</ele>
        <time>2021-11-19T23:01:36.358Z</time>
      </trkpt>
      <trkpt lat="47.628893" lon="8.089318">
        <ele>514.984897</ele>
        <time>2021-11-19T23:01:57.034Z</time>
      </trkpt>
      <trkpt lat="47.629260" lon="8.089154">
        <ele>517.084780</ele>
        <time>2021-11-19T23:02:12.050Z</time>
      </trkpt>
      <trkpt lat="47.629477" lon="8.088953">
        <ele>518.240409</ele>
        <time>2021-11-19T23:02:19.066Z</time>
      </trkpt>
      <trkpt lat="47.630061" lon="8.088171">
        <ele>521.559499</ele>
        <time>2021-11-19T23:02:38.769Z</time>
      </trkpt>
      <trkpt lat="47.630220" lon="8.087696">
        <ele>523.067596</ele>
        <time>2021-11-19T23:02:49.349Z</time>
      </trkpt>
      <trkpt lat="47.630250" lon="8.087387">
        <ele>523.955305</ele>
        <time>2021-11-19T23:02:56.290Z</time>
      </trkpt>
      <trkpt lat="47.630268" lon="8.085605">
        <ele>532.644067</ele>
        <time>2021-11-19T23:03:47.005Z</time>
      </trkpt>
      <trkpt lat="47.630341" lon="8.085244">
        <ele>534.681823</ele>
        <time>2021-11-19T23:03:59.810Z</time>
      </trkpt>
      <trkpt lat="47.630515" lon="8.084926">
        <ele>536.896467</ele>
        <time>2021-11-19T23:04:17.160Z</time>
      </trkpt>
      <trkpt lat="47.631561" lon="8.083977">
        <ele>546.514524</ele>
        <time>2021-11-19T23:05:19.313Z</time>
      </trkpt>
      <trkpt lat="47.631692" lon="8.083922">
        <ele>547.574134</ele>
        <time>2021-11-19T23:05:24.445Z</time>
      </trkpt>
      <trkpt lat="47.631742" lon="8.083963">
        <ele>548.018752</ele>
        <time>2021-11-19T23:05:29.397Z</time>
      </trkpt>
      <trkpt lat="47.631775" lon="8.084021">
        <ele>548.416887</ele>
        <time>2021-11-19T23:05:30.787Z</time>
      </trkpt>
      <trkpt lat="47.631756" lon="8.084259">
        <ele>549.673919</ele>
        <time>2021-11-19T23:05:36.110Z</time>
      </trkpt>
      <trkpt lat="47.631301" lon="8.084551">
        <ele>553.506766</ele>
        <time>2021-11-19T23:05:57.516Z</time>
      </trkpt>
      <trkpt lat="47.631101" lon="8.084851">
        <ele>555.141931</ele>
        <time>2021-11-19T23:06:06.561Z</time>
      </trkpt>
      <trkpt lat="47.631024" lon="8.085360">
        <ele>557.163323</ele>
        <time>2021-11-19T23:06:19.566Z</time>
      </trkpt>
      <trkpt lat="47.631114" lon="8.085794">
        <ele>558.922838</ele>
        <time>2021-11-19T23:06:30.810Z</time>
      </trkpt>
      <trkpt lat="47.631152" lon="8.085945">
        <ele>559.547408</ele>
        <time>2021-11-19T23:06:33.489Z</time>
      </trkpt>
      <trkpt lat="47.631187" lon="8.086088">
        <ele>560.136928</ele>
        <time>2021-11-19T23:06:37.184Z</time>
      </trkpt>
      <trkpt lat="47.631233" lon="8.086570">
        <ele>562.023246</ele>
        <time>2021-11-19T23:06:47.034Z</time>
      </trkpt>
      <trkpt lat="47.631261" lon="8.086855">
        <ele>563.139254</ele>
        <time>2021-11-19T23:06:56.231Z</time>
      </trkpt>
      <trkpt lat="47.631608" lon="8.088705">
        <ele>573.935353</ele>
        <time>2021-11-19T23:07:58.634Z</time>
      </trkpt>
      <trkpt lat="47.631649" lon="8.088821">
        <ele>574.693208</ele>
        <time>2021-11-19T23:08:04.867Z</time>
      </trkpt>
      <trkpt lat="47.631801" lon="8.089106">
        <ele>576.796061</ele>
        <time>2021-11-19T23:08:16.393Z</time>
      </trkpt>
      <trkpt lat="47.631954" lon="8.089397">
        <ele>578.931511</ele>
        <time>2021-11-19T23:08:30.010Z</time>
      </trkpt>
      <trkpt lat="47.632241" lon="8.090442">
        <ele>586.422049</ele>
        <time>2021-11-19T23:09:10.163Z</time>
      </trkpt>
      <trkpt lat="47.632496" lon="8.091009">
        <ele>590.973658</ele>
        <time>2021-11-19T23:09:37.966Z</time>
      </trkpt>
      <trkpt lat="47.632765" lon="8.091359">
        <ele>594.518458</ele>
        <time>2021-11-19T23:09:56.570Z</time>
      </trkpt>
      <trkpt lat="47.633051" lon="8.091595">
        <ele>597.677049</ele>
        <time>2021-11-19T23:10:13.610Z</time>
      </trkpt>
      <trkpt lat="47.633459" lon="8.091675">
        <ele>601.279957</ele>
        <time>2021-11-19T23:10:34.481Z</time>
      </trkpt>
      <trkpt lat="47.633561" lon="8.091676">
        <ele>602.172942</ele>
        <time>2021-11-19T23:10:41.386Z</time>
      </trkpt>
      <trkpt lat="47.633609" lon="8.091656">
        <ele>602.609411</ele>
        <time>2021-11-19T23:10:44.899Z</time>
      </trkpt>
      <trkpt lat="47.633940" lon="8.091445">
        <ele>605.763216</ele>
        <time>2021-11-19T23:11:03.380Z</time>
      </trkpt>
      <trkpt lat="47.634134" lon="8.091193">
        <ele>608.020344</ele>
        <time>2021-11-19T23:11:14.430Z</time>
      </trkpt>
      <trkpt lat="47.634339" lon="8.090695">
        <ele>611.463023</ele>
        <time>2021-11-19T23:11:33.807Z</time>
      </trkpt>
      <trkpt lat="47.634387" lon="8.090382">
        <ele>613.176511</ele>
        <time>2021-11-19T23:11:42.785Z</time>
      </trkpt>
      <trkpt lat="47.634388" lon="8.090305">
        <ele>613.487107</ele>
        <time>2021-11-19T23:11:45.386Z</time>
      </trkpt>
      <trkpt lat="47.634388" lon="8.090021">
        <ele>614.632472</ele>
        <time>2021-11-19T23:11:56.171Z</time>
      </trkpt>
      <trkpt lat="47.634328" lon="8.089646">
        <ele>616.186886</ele>
        <time>2021-11-19T23:12:04.963Z</time>
      </trkpt>
      <trkpt lat="47.634324" lon="8.089620">
        <ele>616.294441</ele>
        <time>2021-11-19T23:12:05.688Z</time>
      </trkpt>
      <trkpt lat="47.633999" lon="8.088461">
        <ele>621.357235</ele>
        <time>2021-11-19T23:12:34.359Z</time>
      </trkpt>
      <trkpt lat="47.633906" lon="8.087890">
        <ele>623.721576</ele>
        <time>2021-11-19T23:12:50.651Z</time>
      </trkpt>
      <trkpt lat="47.633905" lon="8.087250">
        <ele>626.231520</ele>
        <time>2021-11-19T23:13:07.219Z</time>
      </trkpt>
      <trkpt lat="47.633950" lon="8.086884">
        <ele>627.690586</ele>
        <time>2021-11-19T23:13:16.137Z</time>
      </trkpt>
      <trkpt lat="47.634090" lon="8.086382">
        <ele>629.821255</ele>
        <time>2021-11-19T23:13:29.749Z</time>
      </trkpt>
      <trkpt lat="47.634138" lon="8.086270">
        <ele>630.341800</ele>
        <time>2021-11-19T23:13:33.659Z</time>
      </trkpt>
      <trkpt lat="47.634254" lon="8.086040">
        <ele>631.468463</ele>
        <time>2021-11-19T23:13:40.818Z</time>
      </trkpt>
      <trkpt lat="47.634424" lon="8.085773">
        <ele>632.909047</ele>
        <time>2021-11-19T23:13:50.442Z</time>
      </trkpt>
      <trkpt lat="47.634612" lon="8.085556">
        <ele>634.263266</ele>
        <time>2021-11-19T23:13:59.715Z</time>
      </trkpt>
      <trkpt lat="47.635210" lon="8.084864">
        <ele>638.165649</ele>
        <time>2021-11-19T23:14:29.302Z</time>
      </trkpt>
      <trkpt lat="47.635426" lon="8.084487">
        <ele>639.881646</ele>
        <time>2021-11-19T23:14:41.417Z</time>
      </trkpt>
      <trkpt lat="47.635570" lon="8.084157">
        <ele>641.244966</ele>
        <time>2021-11-19T23:14:50.022Z</time>
      </trkpt>
      <trkpt lat="47.635679" lon="8.083877">
        <ele>642.366294</ele>
        <time>2021-11-19T23:14:56.186Z</time>
      </trkpt>
      <trkpt lat="47.635712" lon="8.083829">
        <ele>642.604084</ele>
        <time>2021-11-19T23:14:57.686Z</time>
      </trkpt>
      <trkpt lat="47.635946" lon="8.083449">
        <ele>644.032581</ele>
        <time>2021-11-19T23:15:08.261Z</time>
      </trkpt>
      <trkpt lat="47.636293" lon="8.083010">
        <ele>645.627748</ele>
        <time>2021-11-19T23:15:22.713Z</time>
      </trkpt>
      <trkpt lat="47.636778" lon="8.082427">
        <ele>647.811209</ele>
        <time>2021-11-19T23:15:39.876Z</time>
      </trkpt>
      <trkpt lat="47.636832" lon="8.082378">
        <ele>648.032634</ele>
        <time>2021-11-19T23:15:41.983Z</time>
      </trkpt>
      <trkpt lat="47.636971" lon="8.082307">
        <ele>648.546901</ele>
        <time>2021-11-19T23:15:45.869Z</time>
      </trkpt>
      <trkpt lat="47.637174" lon="8.082215">
        <ele>649.289442</ele>
        <time>2021-11-19T23:15:51.777Z</time>
      </trkpt>
      <trkpt lat="47.637634" lon="8.082039">
        <ele>650.839440</ele>
        <time>2021-11-19T23:16:04.331Z</time>
      </trkpt>
      <trkpt lat="47.637765" lon="8.081957">
        <ele>651.296603</ele>
        <time>2021-11-19T23:16:07.959Z</time>
      </trkpt>
      <trkpt lat="47.637996" lon="8.081813">
        <ele>652.102244</ele>
        <time>2021-11-19T23:16:14.635Z</time>
      </trkpt>
      <trkpt lat="47.638239" lon="8.081609">
        <ele>652.999955</ele>
        <time>2021-11-19T23:16:22.138Z</time>
      </trkpt>
      <trkpt lat="47.638358" lon="8.081479">
        <ele>653.475084</ele>
        <time>2021-11-19T23:16:26.347Z</time>
      </trkpt>
      <trkpt lat="47.638934" lon="8.080851">
        <ele>655.965076</ele>
        <time>2021-11-19T23:16:46.517Z</time>
      </trkpt>
      <trkpt lat="47.639360" lon="8.080407">
        <ele>658.399856</ele>
        <time>2021-11-19T23:17:02.404Z</time>
      </trkpt>
      <trkpt lat="47.639532" lon="8.080262">
        <ele>659.325077</ele>
        <time>2021-11-19T23:17:09.058Z</time>
      </trkpt>
      <trkpt lat="47.639679" lon="8.080187">
        <ele>660.052131</ele>
        <time>2021-11-19T23:17:14.188Z</time>
      </trkpt>
      <trkpt lat="47.639838" lon="8.080127">
        <ele>660.819483</ele>
        <time>2021-11-19T23:17:20.334Z</time>
      </trkpt>
      <trkpt lat="47.640090" lon="8.080123">
        <ele>661.998227</ele>
        <time>2021-11-19T23:17:28.924Z</time>
      </trkpt>
      <trkpt lat="47.640659" lon="8.080202">
        <ele>664.831055</ele>
        <time>2021-11-19T23:17:50.853Z</time>
      </trkpt>
      <trkpt lat="47.640786" lon="8.080131">
        <ele>665.577659</ele>
        <time>2021-11-19T23:17:55.563Z</time>
      </trkpt>
      <trkpt lat="47.640872" lon="8.080028">
        <ele>666.185616</ele>
        <time>2021-11-19T23:18:00.813Z</time>
      </trkpt>
      <trkpt lat="47.640962" lon="8.079682">
        <ele>667.560399</ele>
        <time>2021-11-19T23:18:09.515Z</time>
      </trkpt>
      <trkpt lat="47.640967" lon="8.079614">
        <ele>667.813952</ele>
        <time>2021-11-19T23:18:11.666Z</time>
      </trkpt>
      <trkpt lat="47.640965" lon="8.079517">
        <ele>668.173673</ele>
        <time>2021-11-19T23:18:14.693Z</time>
      </trkpt>
      <trkpt lat="47.640963" lon="8.079344">
        <ele>668.815030</ele>
        <time>2021-11-19T23:18:18.651Z</time>
      </trkpt>
      <trkpt lat="47.641000" lon="8.079078">
        <ele>669.821810</ele>
        <time>2021-11-19T23:18:25.312Z</time>
      </trkpt>
      <trkpt lat="47.641014" lon="8.079017">
        <ele>670.060677</ele>
        <time>2021-11-19T23:18:27.243Z</time>
      </trkpt>
      <trkpt lat="47.641030" lon="8.078947">
        <ele>670.334672</ele>
        <time>2021-11-19T23:18:29.461Z</time>
      </trkpt>
      <trkpt lat="47.641153" lon="8.078641">
        <ele>671.655437</ele>
        <time>2021-11-19T23:18:36.636Z</time>
      </trkpt>
      <trkpt lat="47.641234" lon="8.078534">
        <ele>672.251993</ele>
        <time>2021-11-19T23:18:41.745Z</time>
      </trkpt>
      <trkpt lat="47.641183" lon="8.078369">
        <ele>672.924885</ele>
        <time>2021-11-19T23:18:45.437Z</time>
      </trkpt>
      <trkpt lat="47.641173" lon="8.078162">
        <ele>673.686395</ele>
        <time>2021-11-19T23:18:50.422Z</time>
      </trkpt>
      <trkpt lat="47.641168" lon="8.077834">
        <ele>674.632576</ele>
        <time>2021-11-19T23:18:58.536Z</time>
      </trkpt>
      <trkpt lat="47.641140" lon="8.077438">
        <ele>675.780895</ele>
        <time>2021-11-19T23:19:07.795Z</time>
      </trkpt>
      <trkpt lat="47.641113" lon="8.077040">
        <ele>676.934515</ele>
        <time>2021-11-19T23:19:15.383Z</time>
      </trkpt>
      <trkpt lat="47.641055" lon="8.076690">
        <ele>677.973984</ele>
        <time>2021-11-19T23:19:22.947Z</time>
      </trkpt>
      <trkpt lat="47.641250" lon="8.076497">
        <ele>678.977214</ele>
        <time>2021-11-19T23:19:30.142Z</time>
      </trkpt>
      <trkpt lat="47.641370" lon="8.076374">
        <ele>679.601437</ele>
        <time>2021-11-19T23:19:34.527Z</time>
      </trkpt>
      <trkpt lat="47.641621" lon="8.075826">
        <ele>681.543958</ele>
        <time>2021-11-19T23:19:47.792Z</time>
      </trkpt>
      <trkpt lat="47.641700" lon="8.075627">
        <ele>682.346042</ele>
        <time>2021-11-19T23:19:52.416Z</time>
      </trkpt>
      <trkpt lat="47.642004" lon="8.074948">
        <ele>685.177057</ele>
        <time>2021-11-19T23:20:11.831Z</time>
      </trkpt>
      <trkpt lat="47.642144" lon="8.074404">
        <ele>687.199263</ele>
        <time>2021-11-19T23:20:26.098Z</time>
      </trkpt>
      <trkpt lat="47.642216" lon="8.074073">
        <ele>688.407108</ele>
        <time>2021-11-19T23:20:34.481Z</time>
      </trkpt>
      <trkpt lat="47.642230" lon="8.074006">
        <ele>688.650703</ele>
        <time>2021-11-19T23:20:36.600Z</time>
      </trkpt>
      <trkpt lat="47.642292" lon="8.073721">
        <ele>689.690697</ele>
        <time>2021-11-19T23:20:43.989Z</time>
      </trkpt>
      <trkpt lat="47.642375" lon="8.073430">
        <ele>690.791749</ele>
        <time>2021-11-19T23:20:52.540Z</time>
      </trkpt>
      <trkpt lat="47.642416" lon="8.073313">
        <ele>691.260359</ele>
        <time>2021-11-19T23:20:55.781Z</time>
      </trkpt>
      <trkpt lat="47.642517" lon="8.073112">
        <ele>692.151334</ele>
        <time>2021-11-19T23:21:01.871Z</time>
      </trkpt>
      <trkpt lat="47.642555" lon="8.073029">
        <ele>692.507908</ele>
        <time>2021-11-19T23:21:04.910Z</time>
      </trkpt>
      <trkpt lat="47.642633" lon="8.072421">
        <ele>694.707136</ele>
        <time>2021-11-19T23:21:21.137Z</time>
      </trkpt>
      <trkpt lat="47.642698" lon="8.071858">
        <ele>696.736807</ele>
        <time>2021-11-19T23:21:35.159Z</time>
      </trkpt>
      <trkpt lat="47.642803" lon="8.070862">
        <ele>700.281335</ele>
        <time>2021-11-19T23:21:58.026Z</time>
      </trkpt>
      <trkpt lat="47.642950" lon="8.070205">
        <ele>702.289300</ele>
        <time>2021-11-19T23:22:11.986Z</time>
      </trkpt>
      <trkpt lat="47.643007" lon="8.069750">
        <ele>703.631647</ele>
        <time>2021-11-19T23:22:21.306Z</time>
      </trkpt>
      <trkpt lat="47.643038" lon="8.068877">
        <ele>706.167297</ele>
        <time>2021-11-19T23:22:39.277Z</time>
      </trkpt>
      <trkpt lat="47.643003" lon="8.068529">
        <ele>707.187855</ele>
        <time>2021-11-19T23:22:47.560Z</time>
      </trkpt>
      <trkpt lat="47.642992" lon="8.068483">
        <ele>707.329432</ele>
        <time>2021-11-19T23:22:48.600Z</time>
      </trkpt>
      <trkpt lat="47.642824" lon="8.067732">
        <ele>710.168249</ele>
        <time>2021-11-19T23:23:07.886Z</time>
      </trkpt>
      <trkpt lat="47.642765" lon="8.067362">
        <ele>711.610316</ele>
        <time>2021-11-19T23:23:16.971Z</time>
      </trkpt>
      <trkpt lat="47.642744" lon="8.067079">
        <ele>712.690143</ele>
        <time>2021-11-19T23:23:24.838Z</time>
      </trkpt>
      <trkpt lat="47.642779" lon="8.066763">
        <ele>713.904725</ele>
        <time>2021-11-19T23:23:32.452Z</time>
      </trkpt>
      <trkpt lat="47.642841" lon="8.066394">
        <ele>715.347094</ele>
        <time>2021-11-19T23:23:42.508Z</time>
      </trkpt>
      <trkpt lat="47.642915" lon="8.066070">
        <ele>716.644615</ele>
        <time>2021-11-19T23:23:52.173Z</time>
      </trkpt>
      <trkpt lat="47.643143" lon="8.065438">
        <ele>719.228500</ele>
        <time>2021-11-19T23:24:10.139Z</time>
      </trkpt>
      <trkpt lat="47.643242" lon="8.065165">
        <ele>720.289354</ele>
        <time>2021-11-19T23:24:19.051Z</time>
      </trkpt>
      <trkpt lat="47.644036" lon="8.063624">
        <ele>726.927433</ele>
        <time>2021-11-19T23:25:02.145Z</time>
      </trkpt>
      <trkpt lat="47.644061" lon="8.063574">
        <ele>727.140753</ele>
        <time>2021-11-19T23:25:04.049Z</time>
      </trkpt>
      <trkpt lat="47.644691" lon="8.062593">
        <ele>731.831483</ele>
        <time>2021-11-19T23:25:35.721Z</time>
      </trkpt>
      <trkpt lat="47.645037" lon="8.061955">
        <ele>734.666164</ele>
        <time>2021-11-19T23:25:55.169Z</time>
      </trkpt>
      <trkpt lat="47.645072" lon="8.061872">
        <ele>735.005062</ele>
        <time>2021-11-19T23:25:57.605Z</time>
      </trkpt>
      <trkpt lat="47.645299" lon="8.061689">
        <ele>736.332113</ele>
        <time>2021-11-19T23:26:06.660Z</time>
      </trkpt>
      <trkpt lat="47.645405" lon="8.061664">
        <ele>736.994126</ele>
        <time>2021-11-19T23:26:10.816Z</time>
      </trkpt>
      <trkpt lat="47.646033" lon="8.061849">
        <ele>740.974608</ele>
        <time>2021-11-19T23:26:35.688Z</time>
      </trkpt>
      <trkpt lat="47.646452" lon="8.061705">
        <ele>743.648481</ele>
        <time>2021-11-19T23:26:54.218Z</time>
      </trkpt>
      <trkpt lat="47.646596" lon="8.061599">
        <ele>744.647785</ele>
        <time>2021-11-19T23:27:00.843Z</time>
      </trkpt>
      <trkpt lat="47.646788" lon="8.061382">
        <ele>746.148106</ele>
        <time>2021-11-19T23:27:10.725Z</time>
      </trkpt>
      <trkpt lat="47.646974" lon="8.061076">
        <ele>747.915436</ele>
        <time>2021-11-19T23:27:21.073Z</time>
      </trkpt>
      <trkpt lat="47.647137" lon="8.060766">
        <ele>749.764669</ele>
        <time>2021-11-19T23:27:31.280Z</time>
      </trkpt>
      <trkpt lat="47.647336" lon="8.060206">
        <ele>752.741969</ele>
        <time>2021-11-19T23:27:48.981Z</time>
      </trkpt>
      <trkpt lat="47.647693" lon="8.059173">
        <ele>758.201519</ele>
        <time>2021-11-19T23:28:23.059Z</time>
      </trkpt>
      <trkpt lat="47.647926" lon="8.058696">
        <ele>761.205553</ele>
        <time>2021-11-19T23:28:40.843Z</time>
      </trkpt>
      <trkpt lat="47.648001" lon="8.058531">
        <ele>762.390409</ele>
        <time>2021-11-19T23:28:47.683Z</time>
      </trkpt>
      <trkpt lat="47.648166" lon="8.058163">
        <ele>765.021813</ele>
        <time>2021-11-19T23:29:01.502Z</time>
      </trkpt>
      <trkpt lat="47.648478" lon="8.057324">
        <ele>770.726463</ele>
        <time>2021-11-19T23:29:33.941Z</time>
      </trkpt>
      <trkpt lat="47.648555" lon="8.057123">
        <ele>772.102863</ele>
        <time>2021-11-19T23:29:43.050Z</time>
      </trkpt>
      <trkpt lat="47.648599" lon="8.057005">
        <ele>772.905692</ele>
        <time>2021-11-19T23:29:47.496Z</time>
      </trkpt>
      <trkpt lat="47.648733" lon="8.056667">
        <ele>775.240218</ele>
        <time>2021-11-19T23:30:02.393Z</time>
      </trkpt>
      <trkpt lat="47.649204" lon="8.055574">
        <ele>783.232391</ele>
        <time>2021-11-19T23:30:48.143Z</time>
      </trkpt>
      <trkpt lat="47.649605" lon="8.054713">
        <ele>789.703150</ele>
        <time>2021-11-19T23:31:24.934Z</time>
      </trkpt>
      <trkpt lat="47.650103" lon="8.053352">
        <ele>798.361530</ele>
        <time>2021-11-19T23:32:14.780Z</time>
      </trkpt>
      <trkpt lat="47.650268" lon="8.052516">
        <ele>803.019672</ele>
        <time>2021-11-19T23:32:42.233Z</time>
      </trkpt>
      <trkpt lat="47.650439" lon="8.052034">
        <ele>805.932563</ele>
        <time>2021-11-19T23:32:58.781Z</time>
      </trkpt>
      <trkpt lat="47.650597" lon="8.051482">
        <ele>808.656689</ele>
        <time>2021-11-19T23:33:16.525Z</time>
      </trkpt>
      <trkpt lat="47.650723" lon="8.050954">
        <ele>811.041693</ele>
        <time>2021-11-19T23:33:32.763Z</time>
      </trkpt>
      <trkpt lat="47.651412" lon="8.049203">
        <ele>819.174485</ele>
        <time>2021-11-19T23:34:25.410Z</time>
      </trkpt>
      <trkpt lat="47.651729" lon="8.048263">
        <ele>822.191720</ele>
        <time>2021-11-19T23:34:47.406Z</time>
      </trkpt>
      <trkpt lat="47.651746" lon="8.048091">
        <ele>822.690687</ele>
        <time>2021-11-19T23:34:51.383Z</time>
      </trkpt>
      <trkpt lat="47.651858" lon="8.046897">
        <ele>826.007752</ele>
        <time>2021-11-19T23:35:15.241Z</time>
      </trkpt>
      <trkpt lat="47.652012" lon="8.045916">
        <ele>827.715596</ele>
        <time>2021-11-19T23:35:34.122Z</time>
      </trkpt>
      <trkpt lat="47.652197" lon="8.045092">
        <ele>829.188229</ele>
        <time>2021-11-19T23:35:47.420Z</time>
      </trkpt>
      <trkpt lat="47.652217" lon="8.045019">
        <ele>829.321844</ele>
        <time>2021-11-19T23:35:48.594Z</time>
      </trkpt>
      <trkpt lat="47.652300" lon="8.044728">
        <ele>829.857634</ele>
        <time>2021-11-19T23:35:52.944Z</time>
      </trkpt>
      <trkpt lat="47.652374" lon="8.044584">
        <ele>830.164715</ele>
        <time>2021-11-19T23:35:55.979Z</time>
      </trkpt>
      <trkpt lat="47.652514" lon="8.044324">
        <ele>830.674991</ele>
        <time>2021-11-19T23:36:00.625Z</time>
      </trkpt>
      <trkpt lat="47.652798" lon="8.043714">
        <ele>831.762558</ele>
        <time>2021-11-19T23:36:12.267Z</time>
      </trkpt>
      <trkpt lat="47.653142" lon="8.042977">
        <ele>833.077627</ele>
        <time>2021-11-19T23:36:25.120Z</time>
      </trkpt>
      <trkpt lat="47.653497" lon="8.042144">
        <ele>834.946701</ele>
        <time>2021-11-19T23:36:40.775Z</time>
      </trkpt>
      <trkpt lat="47.653684" lon="8.041387">
        <ele>837.925017</ele>
        <time>2021-11-19T23:36:58.872Z</time>
      </trkpt>
      <trkpt lat="47.653899" lon="8.040345">
        <ele>841.950480</ele>
        <time>2021-11-19T23:37:28.100Z</time>
      </trkpt>
      <trkpt lat="47.653913" lon="8.040277">
        <ele>842.213128</ele>
        <time>2021-11-19T23:37:29.903Z</time>
      </trkpt>
      <trkpt lat="47.653953" lon="8.040085">
        <ele>842.955482</ele>
        <time>2021-11-19T23:37:36.446Z</time>
      </trkpt>
      <trkpt lat="47.654045" lon="8.039547">
        <ele>845.206374</ele>
        <time>2021-11-19T23:37:53.201Z</time>
      </trkpt>
      <trkpt lat="47.654889" lon="8.035928">
        <ele>861.564033</ele>
        <time>2021-11-19T23:39:39.640Z</time>
      </trkpt>
      <trkpt lat="47.654949" lon="8.035671">
        <ele>862.609306</ele>
        <time>2021-11-19T23:39:45.872Z</time>
      </trkpt>
      <trkpt lat="47.655077" lon="8.035267">
        <ele>864.325015</ele>
        <time>2021-11-19T23:39:56.625Z</time>
      </trkpt>
      <trkpt lat="47.655149" lon="8.035067">
        <ele>865.196480</ele>
        <time>2021-11-19T23:40:02.227Z</time>
      </trkpt>
      <trkpt lat="47.655331" lon="8.034648">
        <ele>866.875390</ele>
        <time>2021-11-19T23:40:13.415Z</time>
      </trkpt>
      <trkpt lat="47.655659" lon="8.033881">
        <ele>869.145425</ele>
        <time>2021-11-19T23:40:31.759Z</time>
      </trkpt>
      <trkpt lat="47.655733" lon="8.033712">
        <ele>869.649067</ele>
        <time>2021-11-19T23:40:35.578Z</time>
      </trkpt>
      <trkpt lat="47.655894" lon="8.033342">
        <ele>870.749673</ele>
        <time>2021-11-19T23:40:43.294Z</time>
      </trkpt>
      <trkpt lat="47.655931" lon="8.033259">
        <ele>870.998360</ele>
        <time>2021-11-19T23:40:45.187Z</time>
      </trkpt>
      <trkpt lat="47.655931" lon="8.033257">
        <ele>871.003357</ele>
        <time>2021-11-19T23:40:45.371Z</time>
      </trkpt>
      <trkpt lat="47.656135" lon="8.032699">
        <ele>872.589690</ele>
        <time>2021-11-19T23:40:57.146Z</time>
      </trkpt>
      <trkpt lat="47.656318" lon="8.032144">
        <ele>873.945142</ele>
        <time>2021-11-19T23:41:09.873Z</time>
      </trkpt>
      <trkpt lat="47.656340" lon="8.032084">
        <ele>874.084498</ele>
        <time>2021-11-19T23:41:10.776Z</time>
      </trkpt>
      <trkpt lat="47.656420" lon="8.031827">
        <ele>874.662038</ele>
        <time>2021-11-19T23:41:17.427Z</time>
      </trkpt>
      <trkpt lat="47.656572" lon="8.031531">
        <ele>875.421319</ele>
        <time>2021-11-19T23:41:22.646Z</time>
      </trkpt>
      <trkpt lat="47.656944" lon="8.031122">
        <ele>876.823230</ele>
        <time>2021-11-19T23:41:34.570Z</time>
      </trkpt>
      <trkpt lat="47.657201" lon="8.030956">
        <ele>877.672032</ele>
        <time>2021-11-19T23:41:41.003Z</time>
      </trkpt>
      <trkpt lat="47.657294" lon="8.030898">
        <ele>877.977525</ele>
        <time>2021-11-19T23:41:44.427Z</time>
      </trkpt>
      <trkpt lat="47.657701" lon="8.030540">
        <ele>879.654858</ele>
        <time>2021-11-19T23:41:56.877Z</time>
      </trkpt>
      <trkpt lat="47.658524" lon="8.029318">
        <ele>884.187031</ele>
        <time>2021-11-19T23:42:34.181Z</time>
      </trkpt>
      <trkpt lat="47.658840" lon="8.029028">
        <ele>885.598774</ele>
        <time>2021-11-19T23:42:45.475Z</time>
      </trkpt>
      <trkpt lat="47.658952" lon="8.028997">
        <ele>885.839599</ele>
        <time>2021-11-19T23:42:50.418Z</time>
      </trkpt>
      <trkpt lat="47.659262" lon="8.028895">
        <ele>886.510780</ele>
        <time>2021-11-19T23:42:58.670Z</time>
      </trkpt>
      <trkpt lat="47.659385" lon="8.028852">
        <ele>886.777889</ele>
        <time>2021-11-19T23:43:02.163Z</time>
      </trkpt>
      <trkpt lat="47.659698" lon="8.028730">
        <ele>887.461932</ele>
        <time>2021-11-19T23:43:10.367Z</time>
      </trkpt>
      <trkpt lat="47.660275" lon="8.028464">
        <ele>888.739044</ele>
        <time>2021-11-19T23:43:22.423Z</time>
      </trkpt>
      <trkpt lat="47.660285" lon="8.028026">
        <ele>889.357894</ele>
        <time>2021-11-19T23:43:27.452Z</time>
      </trkpt>
      <trkpt lat="47.660294" lon="8.027599">
        <ele>889.085769</ele>
        <time>2021-11-19T23:43:31.684Z</time>
      </trkpt>
      <trkpt lat="47.660254" lon="8.027140">
        <ele>888.790956</ele>
        <time>2021-11-19T23:43:36.535Z</time>
      </trkpt>
      <trkpt lat="47.660118" lon="8.026493">
        <ele>888.359222</ele>
        <time>2021-11-19T23:43:42.170Z</time>
      </trkpt>
      <trkpt lat="47.660079" lon="8.026313">
        <ele>888.238777</ele>
        <time>2021-11-19T23:43:43.676Z</time>
      </trkpt>
      <trkpt lat="47.660046" lon="8.026048">
        <ele>888.067115</ele>
        <time>2021-11-19T23:43:45.812Z</time>
      </trkpt>
      <trkpt lat="47.659981" lon="8.025033">
        <ele>886.726166</ele>
        <time>2021-11-19T23:43:53.292Z</time>
      </trkpt>
      <trkpt lat="47.659926" lon="8.024521">
        <ele>885.447321</ele>
        <time>2021-11-19T23:43:56.768Z</time>
      </trkpt>
      <trkpt lat="47.659919" lon="8.024478">
        <ele>885.338204</ele>
        <time>2021-11-19T23:43:57.083Z</time>
      </trkpt>
      <trkpt lat="47.659904" lon="8.024399">
        <ele>885.135750</ele>
        <time>2021-11-19T23:43:57.578Z</time>
      </trkpt>
      <trkpt lat="47.659572" lon="8.023543">
        <ele>882.699310</ele>
        <time>2021-11-19T23:44:04.096Z</time>
      </trkpt>
      <trkpt lat="47.659265" lon="8.023143">
        <ele>881.203493</ele>
        <time>2021-11-19T23:44:07.980Z</time>
      </trkpt>
      <trkpt lat="47.659130" lon="8.023024">
        <ele>880.589332</ele>
        <time>2021-11-19T23:44:09.458Z</time>
      </trkpt>
      <trkpt lat="47.659037" lon="8.022943">
        <ele>880.159530</ele>
        <time>2021-11-19T23:44:10.628Z</time>
      </trkpt>
      <trkpt lat="47.658991" lon="8.022915">
        <ele>879.961350</ele>
        <time>2021-11-19T23:44:11.115Z</time>
      </trkpt>
      <trkpt lat="47.658648" lon="8.022676">
        <ele>878.450977</ele>
        <time>2021-11-19T23:44:14.840Z</time>
      </trkpt>
      <trkpt lat="47.658389" lon="8.022448">
        <ele>877.250698</ele>
        <time>2021-11-19T23:44:17.763Z</time>
      </trkpt>
      <trkpt lat="47.658383" lon="8.022443">
        <ele>877.223270</ele>
        <time>2021-11-19T23:44:17.830Z</time>
      </trkpt>
      <trkpt lat="47.658056" lon="8.022001">
        <ele>875.460466</ele>
        <time>2021-11-19T23:44:22.209Z</time>
      </trkpt>
      <trkpt lat="47.658001" lon="8.021883">
        <ele>875.075180</ele>
        <time>2021-11-19T23:44:23.076Z</time>
      </trkpt>
      <trkpt lat="47.657916" lon="8.021656">
        <ele>874.377844</ele>
        <time>2021-11-19T23:44:24.780Z</time>
      </trkpt>
      <trkpt lat="47.657842" lon="8.021387">
        <ele>873.710564</ele>
        <time>2021-11-19T23:44:26.676Z</time>
      </trkpt>
      <trkpt lat="47.657823" lon="8.021288">
        <ele>873.536814</ele>
        <time>2021-11-19T23:44:27.456Z</time>
      </trkpt>
      <trkpt lat="47.657753" lon="8.020920">
        <ele>872.891385</ele>
        <time>2021-11-19T23:44:30.027Z</time>
      </trkpt>
      <trkpt lat="47.657717" lon="8.020646">
        <ele>872.420193</ele>
        <time>2021-11-19T23:44:31.987Z</time>
      </trkpt>
      <trkpt lat="47.657670" lon="8.019971">
        <ele>871.274809</ele>
        <time>2021-11-19T23:44:36.773Z</time>
      </trkpt>
      <trkpt lat="47.657668" lon="8.019942">
        <ele>871.225605</ele>
        <time>2021-11-19T23:44:36.956Z</time>
      </trkpt>
      <trkpt lat="47.657664" lon="8.019541">
        <ele>870.548694</ele>
        <time>2021-11-19T23:44:39.853Z</time>
      </trkpt>
      <trkpt lat="47.657680" lon="8.019137">
        <ele>869.865617</ele>
        <time>2021-11-19T23:44:43.080Z</time>
      </trkpt>
      <trkpt lat="47.657833" lon="8.017983">
        <ele>868.859503</ele>
        <time>2021-11-19T23:44:52.776Z</time>
      </trkpt>
      <trkpt lat="47.657881" lon="8.017777">
        <ele>868.729507</ele>
        <time>2021-11-19T23:44:54.515Z</time>
      </trkpt>
      <trkpt lat="47.658036" lon="8.017215">
        <ele>868.367339</ele>
        <time>2021-11-19T23:44:59.746Z</time>
      </trkpt>
      <trkpt lat="47.658084" lon="8.017056">
        <ele>868.263428</ele>
        <time>2021-11-19T23:45:01.692Z</time>
      </trkpt>
      <trkpt lat="47.658204" lon="8.016720">
        <ele>868.036623</ele>
        <time>2021-11-19T23:45:05.302Z</time>
      </trkpt>
      <trkpt lat="47.658385" lon="8.016199">
        <ele>867.548192</ele>
        <time>2021-11-19T23:45:10.402Z</time>
      </trkpt>
      <trkpt lat="47.658623" lon="8.015519">
        <ele>866.538958</ele>
        <time>2021-11-19T23:45:16.161Z</time>
      </trkpt>
      <trkpt lat="47.658807" lon="8.014878">
        <ele>865.621313</ele>
        <time>2021-11-19T23:45:21.427Z</time>
      </trkpt>
      <trkpt lat="47.658859" lon="8.014690">
        <ele>865.353660</ele>
        <time>2021-11-19T23:45:22.914Z</time>
      </trkpt>
      <trkpt lat="47.659203" lon="8.013313">
        <ele>862.858627</ele>
        <time>2021-11-19T23:45:33.103Z</time>
      </trkpt>
      <trkpt lat="47.658947" lon="8.013116">
        <ele>861.929523</ele>
        <time>2021-11-19T23:45:36.099Z</time>
      </trkpt>
      <trkpt lat="47.658746" lon="8.012848">
        <ele>861.059020</ele>
        <time>2021-11-19T23:45:38.793Z</time>
      </trkpt>
      <trkpt lat="47.658620" lon="8.012560">
        <ele>860.313687</ele>
        <time>2021-11-19T23:45:41.150Z</time>
      </trkpt>
      <trkpt lat="47.658460" lon="8.012239">
        <ele>859.447000</ele>
        <time>2021-11-19T23:45:43.734Z</time>
      </trkpt>
      <trkpt lat="47.658202" lon="8.011892">
        <ele>858.321438</ele>
        <time>2021-11-19T23:45:47.228Z</time>
      </trkpt>
      <trkpt lat="47.657999" lon="8.011737">
        <ele>857.568716</ele>
        <time>2021-11-19T23:45:49.638Z</time>
      </trkpt>
      <trkpt lat="47.657917" lon="8.011675">
        <ele>857.265279</ele>
        <time>2021-11-19T23:45:50.612Z</time>
      </trkpt>
      <trkpt lat="47.657873" lon="8.011642">
        <ele>857.102729</ele>
        <time>2021-11-19T23:45:51.069Z</time>
      </trkpt>
      <trkpt lat="47.657300" lon="8.011543">
        <ele>855.200531</ele>
        <time>2021-11-19T23:45:56.737Z</time>
      </trkpt>
      <trkpt lat="47.657021" lon="8.011540">
        <ele>854.280514</ele>
        <time>2021-11-19T23:45:59.430Z</time>
      </trkpt>
      <trkpt lat="47.656912" lon="8.011553">
        <ele>853.919933</ele>
        <time>2021-11-19T23:46:00.636Z</time>
      </trkpt>
      <trkpt lat="47.656296" lon="8.011585">
        <ele>852.079252</ele>
        <time>2021-11-19T23:46:07.133Z</time>
      </trkpt>
      <trkpt lat="47.656095" lon="8.011596">
        <ele>851.605583</ele>
        <time>2021-11-19T23:46:09.370Z</time>
      </trkpt>
      <trkpt lat="47.655654" lon="8.011463">
        <ele>850.545831</ele>
        <time>2021-11-19T23:46:14.200Z</time>
      </trkpt>
      <trkpt lat="47.655421" lon="8.011331">
        <ele>849.958530</ele>
        <time>2021-11-19T23:46:17.021Z</time>
      </trkpt>
      <trkpt lat="47.655159" lon="8.011068">
        <ele>849.213722</ele>
        <time>2021-11-19T23:46:20.598Z</time>
      </trkpt>
      <trkpt lat="47.654909" lon="8.010618">
        <ele>848.233887</ele>
        <time>2021-11-19T23:46:24.826Z</time>
      </trkpt>
      <trkpt lat="47.654667" lon="8.009807">
        <ele>844.590805</ele>
        <time>2021-11-19T23:46:30.758Z</time>
      </trkpt>
      <trkpt lat="47.654406" lon="8.009271">
        <ele>841.874397</ele>
        <time>2021-11-19T23:46:34.838Z</time>
      </trkpt>
      <trkpt lat="47.653890" lon="8.008724">
        <ele>838.008386</ele>
        <time>2021-11-19T23:46:40.415Z</time>
      </trkpt>
      <trkpt lat="47.653433" lon="8.008511">
        <ele>834.027656</ele>
        <time>2021-11-19T23:46:44.562Z</time>
      </trkpt>
      <trkpt lat="47.653079" lon="8.008399">
        <ele>830.789143</ele>
        <time>2021-11-19T23:46:47.704Z</time>
      </trkpt>
      <trkpt lat="47.652961" lon="8.008365">
        <ele>829.713646</ele>
        <time>2021-11-19T23:46:48.765Z</time>
      </trkpt>
      <trkpt lat="47.652247" lon="8.008164">
        <ele>823.211349</ele>
        <time>2021-11-19T23:46:55.080Z</time>
      </trkpt>
      <trkpt lat="47.652087" lon="8.008133">
        <ele>821.767624</ele>
        <time>2021-11-19T23:46:56.485Z</time>
      </trkpt>
      <trkpt lat="47.651879" lon="8.008189">
        <ele>820.266021</ele>
        <time>2021-11-19T23:46:58.324Z</time>
      </trkpt>
      <trkpt lat="47.651604" lon="8.008538">
        <ele>817.939042</ele>
        <time>2021-11-19T23:47:01.516Z</time>
      </trkpt>
      <trkpt lat="47.651569" lon="8.008582">
        <ele>817.644055</ele>
        <time>2021-11-19T23:47:01.941Z</time>
      </trkpt>
      <trkpt lat="47.651438" lon="8.008748">
        <ele>816.536271</ele>
        <time>2021-11-19T23:47:03.447Z</time>
      </trkpt>
      <trkpt lat="47.651228" lon="8.008918">
        <ele>814.997827</ele>
        <time>2021-11-19T23:47:05.711Z</time>
      </trkpt>
      <trkpt lat="47.651195" lon="8.008934">
        <ele>814.774545</ele>
        <time>2021-11-19T23:47:06.015Z</time>
      </trkpt>
      <trkpt lat="47.651119" lon="8.008974">
        <ele>814.255919</ele>
        <time>2021-11-19T23:47:06.711Z</time>
      </trkpt>
      <trkpt lat="47.650513" lon="8.009097">
        <ele>810.322020</ele>
        <time>2021-11-19T23:47:12.639Z</time>
      </trkpt>
      <trkpt lat="47.650285" lon="8.009248">
        <ele>809.100589</ele>
        <time>2021-11-19T23:47:14.978Z</time>
      </trkpt>
      <trkpt lat="47.648808" lon="8.011136">
        <ele>801.794982</ele>
        <time>2021-11-19T23:47:34.213Z</time>
      </trkpt>
      <trkpt lat="47.648498" lon="8.011376">
        <ele>800.781545</ele>
        <time>2021-11-19T23:47:37.743Z</time>
      </trkpt>
      <trkpt lat="47.648139" lon="8.011511">
        <ele>799.708076</ele>
        <time>2021-11-19T23:47:41.521Z</time>
      </trkpt>
      <trkpt lat="47.647931" lon="8.011553">
        <ele>799.099614</ele>
        <time>2021-11-19T23:47:43.670Z</time>
      </trkpt>
      <trkpt lat="47.647700" lon="8.011578">
        <ele>798.428261</ele>
        <time>2021-11-19T23:47:46.126Z</time>
      </trkpt>
      <trkpt lat="47.647461" lon="8.011563">
        <ele>797.734877</ele>
        <time>2021-11-19T23:47:48.732Z</time>
      </trkpt>
      <trkpt lat="47.647254" lon="8.011528">
        <ele>797.355445</ele>
        <time>2021-11-19T23:47:50.999Z</time>
      </trkpt>
      <trkpt lat="47.647129" lon="8.011490">
        <ele>797.239102</ele>
        <time>2021-11-19T23:47:52.457Z</time>
      </trkpt>
      <trkpt lat="47.646783" lon="8.011351">
        <ele>796.912261</ele>
        <time>2021-11-19T23:47:56.561Z</time>
      </trkpt>
      <trkpt lat="47.646418" lon="8.011132">
        <ele>796.553285</ele>
        <time>2021-11-19T23:48:01.237Z</time>
      </trkpt>
      <trkpt lat="47.646246" lon="8.010992">
        <ele>796.374419</ele>
        <time>2021-11-19T23:48:03.774Z</time>
      </trkpt>
      <trkpt lat="47.646056" lon="8.010808">
        <ele>796.167561</ele>
        <time>2021-11-19T23:48:06.991Z</time>
      </trkpt>
      <trkpt lat="47.645893" lon="8.010578">
        <ele>795.962493</ele>
        <time>2021-11-19T23:48:10.149Z</time>
      </trkpt>
      <trkpt lat="47.645752" lon="8.010251">
        <ele>795.870237</ele>
        <time>2021-11-19T23:48:14.349Z</time>
      </trkpt>
      <trkpt lat="47.645630" lon="8.009847">
        <ele>796.019489</ele>
        <time>2021-11-19T23:48:19.550Z</time>
      </trkpt>
      <trkpt lat="47.645380" lon="8.008349">
        <ele>796.539762</ele>
        <time>2021-11-19T23:48:37.915Z</time>
      </trkpt>
      <trkpt lat="47.645208" lon="8.007812">
        <ele>796.745439</ele>
        <time>2021-11-19T23:48:44.381Z</time>
      </trkpt>
      <trkpt lat="47.645005" lon="8.007361">
        <ele>796.972178</ele>
        <time>2021-11-19T23:48:50.206Z</time>
      </trkpt>
      <trkpt lat="47.644813" lon="8.006998">
        <ele>797.165102</ele>
        <time>2021-11-19T23:48:55.272Z</time>
      </trkpt>
      <trkpt lat="47.644652" lon="8.006827">
        <ele>797.287942</ele>
        <time>2021-11-19T23:48:58.431Z</time>
      </trkpt>
      <trkpt lat="47.644119" lon="8.006394">
        <ele>797.664956</ele>
        <time>2021-11-19T23:49:08.997Z</time>
      </trkpt>
      <trkpt lat="47.643978" lon="8.006145">
        <ele>797.800932</ele>
        <time>2021-11-19T23:49:12.910Z</time>
      </trkpt>
      <trkpt lat="47.643811" lon="8.005674">
        <ele>798.397084</ele>
        <time>2021-11-19T23:49:19.580Z</time>
      </trkpt>
      <trkpt lat="47.643684" lon="8.005510">
        <ele>798.708083</ele>
        <time>2021-11-19T23:49:23.912Z</time>
      </trkpt>
      <trkpt lat="47.642796" lon="8.004845">
        <ele>800.545627</ele>
        <time>2021-11-19T23:49:48.062Z</time>
      </trkpt>
      <trkpt lat="47.642427" lon="8.004770">
        <ele>801.152237</ele>
        <time>2021-11-19T23:49:56.103Z</time>
      </trkpt>
      <trkpt lat="47.642337" lon="8.004796">
        <ele>801.140740</ele>
        <time>2021-11-19T23:49:59.073Z</time>
      </trkpt>
      <trkpt lat="47.642209" lon="8.004861">
        <ele>801.123776</ele>
        <time>2021-11-19T23:50:00.939Z</time>
      </trkpt>
      <trkpt lat="47.641961" lon="8.005163">
        <ele>801.083552</ele>
        <time>2021-11-19T23:50:06.823Z</time>
      </trkpt>
      <trkpt lat="47.641834" lon="8.005484">
        <ele>801.052103</ele>
        <time>2021-11-19T23:50:12.102Z</time>
      </trkpt>
      <trkpt lat="47.641804" lon="8.005576">
        <ele>801.043468</ele>
        <time>2021-11-19T23:50:12.796Z</time>
      </trkpt>
      <trkpt lat="47.641616" lon="8.005980">
        <ele>801.001987</ele>
        <time>2021-11-19T23:50:18.237Z</time>
      </trkpt>
      <trkpt lat="47.641404" lon="8.006152">
        <ele>800.971692</ele>
        <time>2021-11-19T23:50:21.225Z</time>
      </trkpt>
      <trkpt lat="47.640890" lon="8.006404">
        <ele>800.015379</ele>
        <time>2021-11-19T23:50:27.107Z</time>
      </trkpt>
      <trkpt lat="47.640257" lon="8.007048">
        <ele>796.872923</ele>
        <time>2021-11-19T23:50:34.456Z</time>
      </trkpt>
      <trkpt lat="47.640249" lon="8.007052">
        <ele>796.838357</ele>
        <time>2021-11-19T23:50:34.544Z</time>
      </trkpt>
      <trkpt lat="47.640044" lon="8.007144">
        <ele>795.961406</ele>
        <time>2021-11-19T23:50:36.569Z</time>
      </trkpt>
      <trkpt lat="47.639834" lon="8.007071">
        <ele>795.078247</ele>
        <time>2021-11-19T23:50:38.691Z</time>
      </trkpt>
      <trkpt lat="47.639742" lon="8.006994">
        <ele>794.645762</ele>
        <time>2021-11-19T23:50:39.646Z</time>
      </trkpt>
      <trkpt lat="47.639631" lon="8.006838">
        <ele>794.019802</ele>
        <time>2021-11-19T23:50:41.069Z</time>
      </trkpt>
      <trkpt lat="47.639324" lon="8.006323">
        <ele>791.932867</ele>
        <time>2021-11-19T23:50:45.549Z</time>
      </trkpt>
      <trkpt lat="47.639248" lon="8.006245">
        <ele>791.504787</ele>
        <time>2021-11-19T23:50:46.374Z</time>
      </trkpt>
      <trkpt lat="47.639158" lon="8.006154">
        <ele>791.000267</ele>
        <time>2021-11-19T23:50:47.401Z</time>
      </trkpt>
      <trkpt lat="47.638830" lon="8.006018">
        <ele>789.422521</ele>
        <time>2021-11-19T23:50:50.653Z</time>
      </trkpt>
      <trkpt lat="47.638494" lon="8.006004">
        <ele>787.865288</ele>
        <time>2021-11-19T23:50:53.831Z</time>
      </trkpt>
      <trkpt lat="47.638358" lon="8.005969">
        <ele>787.225825</ele>
        <time>2021-11-19T23:50:55.151Z</time>
      </trkpt>
      <trkpt lat="47.638215" lon="8.005891">
        <ele>786.520007</ele>
        <time>2021-11-19T23:50:56.545Z</time>
      </trkpt>
      <trkpt lat="47.638107" lon="8.005814">
        <ele>785.964924</ele>
        <time>2021-11-19T23:50:57.771Z</time>
      </trkpt>
      <trkpt lat="47.637957" lon="8.005580">
        <ele>785.018835</ele>
        <time>2021-11-19T23:50:59.854Z</time>
      </trkpt>
      <trkpt lat="47.637787" lon="8.004794">
        <ele>783.018771</ele>
        <time>2021-11-19T23:51:05.477Z</time>
      </trkpt>
      <trkpt lat="47.637523" lon="8.004214">
        <ele>781.322930</ele>
        <time>2021-11-19T23:51:10.180Z</time>
      </trkpt>
      <trkpt lat="47.637184" lon="8.003698">
        <ele>779.576832</ele>
        <time>2021-11-19T23:51:14.987Z</time>
      </trkpt>
      <trkpt lat="47.636315" lon="8.003463">
        <ele>777.535868</ele>
        <time>2021-11-19T23:51:23.901Z</time>
      </trkpt>
      <trkpt lat="47.636070" lon="8.003329">
        <ele>777.047435</ele>
        <time>2021-11-19T23:51:26.754Z</time>
      </trkpt>
      <trkpt lat="47.635796" lon="8.002999">
        <ele>776.387336</ele>
        <time>2021-11-19T23:51:31.007Z</time>
      </trkpt>
      <trkpt lat="47.635608" lon="8.002439">
        <ele>775.598705</ele>
        <time>2021-11-19T23:51:37.354Z</time>
      </trkpt>
      <trkpt lat="47.635108" lon="8.000327">
        <ele>773.696719</ele>
        <time>2021-11-19T23:51:56.004Z</time>
      </trkpt>
      <trkpt lat="47.634953" lon="7.999648">
        <ele>773.020865</ele>
        <time>2021-11-19T23:52:01.256Z</time>
      </trkpt>
      <trkpt lat="47.634762" lon="7.999174">
        <ele>772.192497</ele>
        <time>2021-11-19T23:52:05.149Z</time>
      </trkpt>
      <trkpt lat="47.634587" lon="7.998962">
        <ele>771.689666</ele>
        <time>2021-11-19T23:52:07.515Z</time>
      </trkpt>
      <trkpt lat="47.634410" lon="7.998818">
        <ele>771.240370</ele>
        <time>2021-11-19T23:52:09.514Z</time>
      </trkpt>
      <trkpt lat="47.633905" lon="7.998683">
        <ele>770.098224</ele>
        <time>2021-11-19T23:52:14.695Z</time>
      </trkpt>
      <trkpt lat="47.633717" lon="7.998578">
        <ele>769.651108</ele>
        <time>2021-11-19T23:52:16.902Z</time>
      </trkpt>
      <trkpt lat="47.633574" lon="7.998408">
        <ele>769.243270</ele>
        <time>2021-11-19T23:52:19.134Z</time>
      </trkpt>
      <trkpt lat="47.633477" lon="7.998164">
        <ele>769.269376</ele>
        <time>2021-11-19T23:52:21.710Z</time>
      </trkpt>
      <trkpt lat="47.633385" lon="7.997544">
        <ele>769.405698</ele>
        <time>2021-11-19T23:52:30.196Z</time>
      </trkpt>
      <trkpt lat="47.633251" lon="7.995948">
        <ele>769.751057</ele>
        <time>2021-11-19T23:52:49.420Z</time>
      </trkpt>
      <trkpt lat="47.633236" lon="7.995517">
        <ele>769.727628</ele>
        <time>2021-11-19T23:52:54.406Z</time>
      </trkpt>
      <trkpt lat="47.633225" lon="7.995204">
        <ele>769.659500</ele>
        <time>2021-11-19T23:52:57.058Z</time>
      </trkpt>
      <trkpt lat="47.633165" lon="7.994756">
        <ele>769.560217</ele>
        <time>2021-11-19T23:53:01.873Z</time>
      </trkpt>
      <trkpt lat="47.633096" lon="7.994417">
        <ele>769.483242</ele>
        <time>2021-11-19T23:53:05.441Z</time>
      </trkpt>
      <trkpt lat="47.633034" lon="7.994185">
        <ele>769.428993</ele>
        <time>2021-11-19T23:53:07.387Z</time>
      </trkpt>
      <trkpt lat="47.632976" lon="7.993592">
        <ele>769.298745</ele>
        <time>2021-11-19T23:53:12.504Z</time>
      </trkpt>
      <trkpt lat="47.633263" lon="7.990675">
        <ele>768.360422</ele>
        <time>2021-11-19T23:53:37.939Z</time>
      </trkpt>
      <trkpt lat="47.633206" lon="7.989849">
        <ele>768.399122</ele>
        <time>2021-11-19T23:53:47.674Z</time>
      </trkpt>
      <trkpt lat="47.633172" lon="7.989666">
        <ele>768.423761</ele>
        <time>2021-11-19T23:53:50.072Z</time>
      </trkpt>
      <trkpt lat="47.633147" lon="7.989515">
        <ele>768.443944</ele>
        <time>2021-11-19T23:53:51.774Z</time>
      </trkpt>
      <trkpt lat="47.632909" lon="7.988820">
        <ele>768.545134</ele>
        <time>2021-11-19T23:54:00.358Z</time>
      </trkpt>
      <trkpt lat="47.632690" lon="7.988422">
        <ele>768.611829</ele>
        <time>2021-11-19T23:54:05.714Z</time>
      </trkpt>
      <trkpt lat="47.632504" lon="7.988217">
        <ele>768.656456</ele>
        <time>2021-11-19T23:54:09.097Z</time>
      </trkpt>
      <trkpt lat="47.632324" lon="7.988059">
        <ele>768.388840</ele>
        <time>2021-11-19T23:54:12.123Z</time>
      </trkpt>
      <trkpt lat="47.632243" lon="7.988006">
        <ele>768.273552</ele>
        <time>2021-11-19T23:54:13.297Z</time>
      </trkpt>
      <trkpt lat="47.632056" lon="7.987880">
        <ele>768.006087</ele>
        <time>2021-11-19T23:54:15.908Z</time>
      </trkpt>
      <trkpt lat="47.631642" lon="7.987687">
        <ele>767.440944</ele>
        <time>2021-11-19T23:54:21.267Z</time>
      </trkpt>
      <trkpt lat="47.631277" lon="7.987638">
        <ele>766.963654</ele>
        <time>2021-11-19T23:54:25.506Z</time>
      </trkpt>
      <trkpt lat="47.630656" lon="7.987791">
        <ele>765.923636</ele>
        <time>2021-11-19T23:54:32.308Z</time>
      </trkpt>
      <trkpt lat="47.628500" lon="7.989076">
        <ele>758.722803</ele>
        <time>2021-11-19T23:54:55.920Z</time>
      </trkpt>
      <trkpt lat="47.627783" lon="7.989478">
        <ele>756.117370</ele>
        <time>2021-11-19T23:55:03.517Z</time>
      </trkpt>
      <trkpt lat="47.627745" lon="7.989499">
        <ele>755.979531</ele>
        <time>2021-11-19T23:55:03.919Z</time>
      </trkpt>
      <trkpt lat="47.627368" lon="7.989707">
        <ele>754.672939</ele>
        <time>2021-11-19T23:55:07.925Z</time>
      </trkpt>
      <trkpt lat="47.627037" lon="7.989869">
        <ele>753.805822</ele>
        <time>2021-11-19T23:55:11.438Z</time>
      </trkpt>
      <trkpt lat="47.626890" lon="7.989948">
        <ele>753.416860</ele>
        <time>2021-11-19T23:55:13.034Z</time>
      </trkpt>
      <trkpt lat="47.626641" lon="7.990055">
        <ele>752.771931</ele>
        <time>2021-11-19T23:55:15.662Z</time>
      </trkpt>
      <trkpt lat="47.626285" lon="7.990191">
        <ele>751.857374</ele>
        <time>2021-11-19T23:55:19.535Z</time>
      </trkpt>
      <trkpt lat="47.626059" lon="7.990262">
        <ele>751.282657</ele>
        <time>2021-11-19T23:55:22.110Z</time>
      </trkpt>
      <trkpt lat="47.626001" lon="7.990279">
        <ele>751.135573</ele>
        <time>2021-11-19T23:55:22.728Z</time>
      </trkpt>
      <trkpt lat="47.625865" lon="7.990306">
        <ele>750.794211</ele>
        <time>2021-11-19T23:55:24.284Z</time>
      </trkpt>
      <trkpt lat="47.625484" lon="7.990308">
        <ele>750.459499</ele>
        <time>2021-11-19T23:55:28.795Z</time>
      </trkpt>
      <trkpt lat="47.625165" lon="7.990242">
        <ele>750.607823</ele>
        <time>2021-11-19T23:55:33.063Z</time>
      </trkpt>
      <trkpt lat="47.625082" lon="7.990226">
        <ele>750.646367</ele>
        <time>2021-11-19T23:55:34.519Z</time>
      </trkpt>
      <trkpt lat="47.624491" lon="7.989945">
        <ele>750.932163</ele>
        <time>2021-11-19T23:55:45.556Z</time>
      </trkpt>
      <trkpt lat="47.624001" lon="7.989485">
        <ele>751.217142</ele>
        <time>2021-11-19T23:55:57.722Z</time>
      </trkpt>
      <trkpt lat="47.623838" lon="7.989292">
        <ele>751.553820</ele>
        <time>2021-11-19T23:56:02.529Z</time>
      </trkpt>
      <trkpt lat="47.623561" lon="7.988865">
        <ele>752.198694</ele>
        <time>2021-11-19T23:56:11.677Z</time>
      </trkpt>
      <trkpt lat="47.623508" lon="7.988782">
        <ele>752.323105</ele>
        <time>2021-11-19T23:56:13.331Z</time>
      </trkpt>
      <trkpt lat="47.623445" lon="7.988631">
        <ele>752.516344</ele>
        <time>2021-11-19T23:56:16.170Z</time>
      </trkpt>
      <trkpt lat="47.623303" lon="7.988291">
        <ele>752.951577</ele>
        <time>2021-11-19T23:56:22.153Z</time>
      </trkpt>
      <trkpt lat="47.623087" lon="7.987725">
        <ele>753.659330</ele>
        <time>2021-11-19T23:56:32.175Z</time>
      </trkpt>
      <trkpt lat="47.622073" lon="7.985033">
        <ele>754.837002</ele>
        <time>2021-11-19T23:57:07.621Z</time>
      </trkpt>
      <trkpt lat="47.622067" lon="7.985017">
        <ele>754.808640</ele>
        <time>2021-11-19T23:57:07.775Z</time>
      </trkpt>
      <trkpt lat="47.621842" lon="7.984392">
        <ele>753.711060</ele>
        <time>2021-11-19T23:57:13.534Z</time>
      </trkpt>
      <trkpt lat="47.621773" lon="7.984199">
        <ele>753.372645</ele>
        <time>2021-11-19T23:57:15.145Z</time>
      </trkpt>
      <trkpt lat="47.621453" lon="7.983289">
        <ele>751.782715</ele>
        <time>2021-11-19T23:57:22.504Z</time>
      </trkpt>
      <trkpt lat="47.621414" lon="7.983181">
        <ele>751.592921</ele>
        <time>2021-11-19T23:57:23.322Z</time>
      </trkpt>
      <trkpt lat="47.621287" lon="7.982952">
        <ele>751.133550</ele>
        <time>2021-11-19T23:57:25.351Z</time>
      </trkpt>
      <trkpt lat="47.621273" lon="7.982924">
        <ele>751.079546</ele>
        <time>2021-11-19T23:57:25.568Z</time>
      </trkpt>
      <trkpt lat="47.621148" lon="7.982684">
        <ele>750.476529</ele>
        <time>2021-11-19T23:57:27.556Z</time>
      </trkpt>
      <trkpt lat="47.620712" lon="7.982017">
        <ele>747.379118</ele>
        <time>2021-11-19T23:57:33.488Z</time>
      </trkpt>
      <trkpt lat="47.620533" lon="7.981699">
        <ele>745.997975</ele>
        <time>2021-11-19T23:57:36.038Z</time>
      </trkpt>
      <trkpt lat="47.620263" lon="7.981105">
        <ele>743.609599</ele>
        <time>2021-11-19T23:57:40.546Z</time>
      </trkpt>
      <trkpt lat="47.619965" lon="7.980295">
        <ele>740.812085</ele>
        <time>2021-11-19T23:57:46.431Z</time>
      </trkpt>
      <trkpt lat="47.619797" lon="7.980012">
        <ele>739.825298</ele>
        <time>2021-11-19T23:57:48.962Z</time>
      </trkpt>
      <trkpt lat="47.619731" lon="7.979949">
        <ele>739.520626</ele>
        <time>2021-11-19T23:57:49.659Z</time>
      </trkpt>
      <trkpt lat="47.619309" lon="7.979839">
        <ele>737.857279</ele>
        <time>2021-11-19T23:57:53.853Z</time>
      </trkpt>
      <trkpt lat="47.619073" lon="7.979702">
        <ele>736.873458</ele>
        <time>2021-11-19T23:57:56.422Z</time>
      </trkpt>
      <trkpt lat="47.618976" lon="7.979589">
        <ele>736.394671</ele>
        <time>2021-11-19T23:57:57.701Z</time>
      </trkpt>
      <trkpt lat="47.618419" lon="7.978768">
        <ele>733.472368</ele>
        <time>2021-11-19T23:58:05.710Z</time>
      </trkpt>
      <trkpt lat="47.617897" lon="7.977926">
        <ele>730.729885</ele>
        <time>2021-11-19T23:58:13.462Z</time>
      </trkpt>
      <trkpt lat="47.617863" lon="7.977860">
        <ele>730.530743</ele>
        <time>2021-11-19T23:58:13.925Z</time>
      </trkpt>
      <trkpt lat="47.617183" lon="7.976739">
        <ele>727.985957</ele>
        <time>2021-11-19T23:58:24.190Z</time>
      </trkpt>
      <trkpt lat="47.617143" lon="7.976643">
        <ele>727.904125</ele>
        <time>2021-11-19T23:58:24.844Z</time>
      </trkpt>
      <trkpt lat="47.617122" lon="7.976576">
        <ele>727.850550</ele>
        <time>2021-11-19T23:58:25.532Z</time>
      </trkpt>
      <trkpt lat="47.617087" lon="7.976456">
        <ele>727.755745</ele>
        <time>2021-11-19T23:58:26.612Z</time>
      </trkpt>
      <trkpt lat="47.617050" lon="7.976280">
        <ele>727.622069</ele>
        <time>2021-11-19T23:58:29.325Z</time>
      </trkpt>
      <trkpt lat="47.617035" lon="7.976194">
        <ele>727.557658</ele>
        <time>2021-11-19T23:58:29.857Z</time>
      </trkpt>
      <trkpt lat="47.616932" lon="7.975644">
        <ele>727.143760</ele>
        <time>2021-11-19T23:58:34.854Z</time>
      </trkpt>
      <trkpt lat="47.616823" lon="7.975315">
        <ele>726.877952</ele>
        <time>2021-11-19T23:58:39.969Z</time>
      </trkpt>
      <trkpt lat="47.616605" lon="7.975163">
        <ele>726.618850</ele>
        <time>2021-11-19T23:58:43.403Z</time>
      </trkpt>
      <trkpt lat="47.616374" lon="7.975153">
        <ele>726.956634</ele>
        <time>2021-11-19T23:58:47.924Z</time>
      </trkpt>
      <trkpt lat="47.615835" lon="7.975151">
        <ele>728.718611</ele>
        <time>2021-11-19T23:59:02.912Z</time>
      </trkpt>
      <trkpt lat="47.615388" lon="7.975207">
        <ele>730.185039</ele>
        <time>2021-11-19T23:59:17.201Z</time>
      </trkpt>
      <trkpt lat="47.615223" lon="7.975285">
        <ele>730.751142</ele>
        <time>2021-11-19T23:59:22.583Z</time>
      </trkpt>
      <trkpt lat="47.614735" lon="7.975625">
        <ele>732.548065</ele>
        <time>2021-11-19T23:59:39.212Z</time>
      </trkpt>
      <trkpt lat="47.614050" lon="7.976273">
        <ele>735.977115</ele>
        <time>2021-11-20T00:00:02.130Z</time>
      </trkpt>
      <trkpt lat="47.613802" lon="7.976286">
        <ele>737.024509</ele>
        <time>2021-11-20T00:00:10.030Z</time>
      </trkpt>
      <trkpt lat="47.613780" lon="7.976270">
        <ele>737.127924</ele>
        <time>2021-11-20T00:00:10.830Z</time>
      </trkpt>
      <trkpt lat="47.613439" lon="7.976020">
        <ele>738.733378</ele>
        <time>2021-11-20T00:00:24.205Z</time>
      </trkpt>
      <trkpt lat="47.613266" lon="7.975808">
        <ele>739.680495</ele>
        <time>2021-11-20T00:00:32.067Z</time>
      </trkpt>
      <trkpt lat="47.613184" lon="7.975689">
        <ele>740.163642</ele>
        <time>2021-11-20T00:00:36.262Z</time>
      </trkpt>
      <trkpt lat="47.612962" lon="7.975399">
        <ele>741.404923</ele>
        <time>2021-11-20T00:00:46.180Z</time>
      </trkpt>
      <trkpt lat="47.612866" lon="7.975328">
        <ele>741.855051</ele>
        <time>2021-11-20T00:00:50.027Z</time>
      </trkpt>
      <trkpt lat="47.612717" lon="7.975295">
        <ele>742.487216</ele>
        <time>2021-11-20T00:00:55.436Z</time>
      </trkpt>
      <trkpt lat="47.612535" lon="7.975326">
        <ele>743.255944</ele>
        <time>2021-11-20T00:01:01.197Z</time>
      </trkpt>
      <trkpt lat="47.612357" lon="7.975517">
        <ele>744.177805</ele>
        <time>2021-11-20T00:01:08.390Z</time>
      </trkpt>
      <trkpt lat="47.612223" lon="7.975718">
        <ele>744.977477</ele>
        <time>2021-11-20T00:01:14.971Z</time>
      </trkpt>
      <trkpt lat="47.612189" lon="7.975789">
        <ele>745.223841</ele>
        <time>2021-11-20T00:01:16.846Z</time>
      </trkpt>
      <trkpt lat="47.612133" lon="7.975906">
        <ele>745.629752</ele>
        <time>2021-11-20T00:01:19.885Z</time>
      </trkpt>
      <trkpt lat="47.611876" lon="7.976376">
        <ele>747.341694</ele>
        <time>2021-11-20T00:01:32.083Z</time>
      </trkpt>
      <trkpt lat="47.611711" lon="7.976600">
        <ele>747.129890</ele>
        <time>2021-11-20T00:01:38.690Z</time>
      </trkpt>
      <trkpt lat="47.611588" lon="7.976702">
        <ele>746.809442</ele>
        <time>2021-11-20T00:01:42.383Z</time>
      </trkpt>
      <trkpt lat="47.611343" lon="7.976840">
        <ele>746.213489</ele>
        <time>2021-11-20T00:01:46.948Z</time>
      </trkpt>
      <trkpt lat="47.610048" lon="7.976910">
        <ele>742.783359</ele>
        <time>2021-11-20T00:01:59.474Z</time>
      </trkpt>
      <trkpt lat="47.609956" lon="7.976908">
        <ele>742.003987</ele>
        <time>2021-11-20T00:02:00.307Z</time>
      </trkpt>
      <trkpt lat="47.609734" lon="7.976902">
        <ele>740.123220</ele>
        <time>2021-11-20T00:02:02.284Z</time>
      </trkpt>
      <trkpt lat="47.609554" lon="7.976848">
        <ele>738.567654</ele>
        <time>2021-11-20T00:02:03.886Z</time>
      </trkpt>
      <trkpt lat="47.609405" lon="7.976774">
        <ele>737.236679</ele>
        <time>2021-11-20T00:02:05.291Z</time>
      </trkpt>
      <trkpt lat="47.609225" lon="7.976647">
        <ele>735.548281</ele>
        <time>2021-11-20T00:02:07.009Z</time>
      </trkpt>
      <trkpt lat="47.609083" lon="7.976509">
        <ele>734.110288</ele>
        <time>2021-11-20T00:02:08.483Z</time>
      </trkpt>
      <trkpt lat="47.609057" lon="7.976492">
        <ele>733.869607</ele>
        <time>2021-11-20T00:02:08.718Z</time>
      </trkpt>
      <trkpt lat="47.608829" lon="7.976172">
        <ele>731.210785</ele>
        <time>2021-11-20T00:02:11.462Z</time>
      </trkpt>
      <trkpt lat="47.608764" lon="7.976082">
        <ele>730.457590</ele>
        <time>2021-11-20T00:02:12.200Z</time>
      </trkpt>
      <trkpt lat="47.608361" lon="7.975503">
        <ele>726.472044</ele>
        <time>2021-11-20T00:02:17.087Z</time>
      </trkpt>
      <trkpt lat="47.608085" lon="7.975248">
        <ele>724.561491</ele>
        <time>2021-11-20T00:02:19.922Z</time>
      </trkpt>
      <trkpt lat="47.607949" lon="7.975198">
        <ele>723.738224</ele>
        <time>2021-11-20T00:02:21.149Z</time>
      </trkpt>
      <trkpt lat="47.607811" lon="7.975152">
        <ele>722.907163</ele>
        <time>2021-11-20T00:02:22.431Z</time>
      </trkpt>
      <trkpt lat="47.607703" lon="7.975163">
        <ele>722.271100</ele>
        <time>2021-11-20T00:02:23.468Z</time>
      </trkpt>
      <trkpt lat="47.607293" lon="7.975219">
        <ele>719.851898</ele>
        <time>2021-11-20T00:02:27.488Z</time>
      </trkpt>
      <trkpt lat="47.607002" lon="7.975117">
        <ele>718.094992</ele>
        <time>2021-11-20T00:02:30.836Z</time>
      </trkpt>
      <trkpt lat="47.606836" lon="7.974966">
        <ele>717.512378</ele>
        <time>2021-11-20T00:02:32.955Z</time>
      </trkpt>
      <trkpt lat="47.606683" lon="7.974772">
        <ele>717.292778</ele>
        <time>2021-11-20T00:02:35.256Z</time>
      </trkpt>
      <trkpt lat="47.606512" lon="7.974504">
        <ele>717.021371</ele>
        <time>2021-11-20T00:02:38.145Z</time>
      </trkpt>
      <trkpt lat="47.606402" lon="7.974261">
        <ele>716.806082</ele>
        <time>2021-11-20T00:02:40.471Z</time>
      </trkpt>
      <trkpt lat="47.606300" lon="7.973918">
        <ele>716.530337</ele>
        <time>2021-11-20T00:02:44.151Z</time>
      </trkpt>
      <trkpt lat="47.606116" lon="7.973296">
        <ele>716.030721</ele>
        <time>2021-11-20T00:02:49.873Z</time>
      </trkpt>
      <trkpt lat="47.606058" lon="7.973155">
        <ele>715.909229</ele>
        <time>2021-11-20T00:02:51.504Z</time>
      </trkpt>
      <trkpt lat="47.605981" lon="7.973005">
        <ele>715.770555</ele>
        <time>2021-11-20T00:02:53.350Z</time>
      </trkpt>
      <trkpt lat="47.605871" lon="7.972904">
        <ele>715.673839</ele>
        <time>2021-11-20T00:02:54.790Z</time>
      </trkpt>
      <trkpt lat="47.605644" lon="7.972831">
        <ele>715.651382</ele>
        <time>2021-11-20T00:02:58.326Z</time>
      </trkpt>
      <trkpt lat="47.605516" lon="7.972819">
        <ele>715.638982</ele>
        <time>2021-11-20T00:02:59.711Z</time>
      </trkpt>
      <trkpt lat="47.605454" lon="7.972717">
        <ele>715.630029</ele>
        <time>2021-11-20T00:03:01.187Z</time>
      </trkpt>
      <trkpt lat="47.605365" lon="7.972611">
        <ele>715.618994</ele>
        <time>2021-11-20T00:03:02.936Z</time>
      </trkpt>
      <trkpt lat="47.605224" lon="7.972488">
        <ele>715.603178</ele>
        <time>2021-11-20T00:03:04.925Z</time>
      </trkpt>
      <trkpt lat="47.605056" lon="7.972376">
        <ele>715.585370</ele>
        <time>2021-11-20T00:03:07.847Z</time>
      </trkpt>
      <trkpt lat="47.604922" lon="7.972287">
        <ele>715.571175</ele>
        <time>2021-11-20T00:03:09.609Z</time>
      </trkpt>
      <trkpt lat="47.604528" lon="7.971728">
        <ele>715.518459</ele>
        <time>2021-11-20T00:03:18.090Z</time>
      </trkpt>
      <trkpt lat="47.604419" lon="7.971600">
        <ele>715.505017</ele>
        <time>2021-11-20T00:03:20.122Z</time>
      </trkpt>
      <trkpt lat="47.604366" lon="7.971555">
        <ele>715.680741</ele>
        <time>2021-11-20T00:03:21.306Z</time>
      </trkpt>
      <trkpt lat="47.604294" lon="7.971507">
        <ele>715.942406</ele>
        <time>2021-11-20T00:03:22.951Z</time>
      </trkpt>
      <trkpt lat="47.604261" lon="7.971490">
        <ele>716.058203</ele>
        <time>2021-11-20T00:03:23.660Z</time>
      </trkpt>
      <trkpt lat="47.604163" lon="7.971460">
        <ele>716.389897</ele>
        <time>2021-11-20T00:03:25.469Z</time>
      </trkpt>
      <trkpt lat="47.604023" lon="7.971466">
        <ele>716.854156</ele>
        <time>2021-11-20T00:03:28.533Z</time>
      </trkpt>
      <trkpt lat="47.603588" lon="7.971607">
        <ele>718.330110</ele>
        <time>2021-11-20T00:03:38.636Z</time>
      </trkpt>
      <trkpt lat="47.603305" lon="7.971596">
        <ele>719.268508</ele>
        <time>2021-11-20T00:03:46.130Z</time>
      </trkpt>
      <trkpt lat="47.603054" lon="7.971469">
        <ele>720.147598</ele>
        <time>2021-11-20T00:03:54.182Z</time>
      </trkpt>
      <trkpt lat="47.602252" lon="7.970803">
        <ele>725.798620</ele>
        <time>2021-11-20T00:04:32.829Z</time>
      </trkpt>
      <trkpt lat="47.601859" lon="7.970629">
        <ele>729.206920</ele>
        <time>2021-11-20T00:04:53.350Z</time>
      </trkpt>
      <trkpt lat="47.601648" lon="7.970592">
        <ele>730.972567</ele>
        <time>2021-11-20T00:05:05.076Z</time>
      </trkpt>
      <trkpt lat="47.601402" lon="7.970556">
        <ele>733.026783</ele>
        <time>2021-11-20T00:05:18.080Z</time>
      </trkpt>
      <trkpt lat="47.601180" lon="7.970508">
        <ele>734.891131</ele>
        <time>2021-11-20T00:05:28.739Z</time>
      </trkpt>
      <trkpt lat="47.600971" lon="7.970428">
        <ele>736.637520</ele>
        <time>2021-11-20T00:05:40.896Z</time>
      </trkpt>
      <trkpt lat="47.600336" lon="7.970065">
        <ele>741.307191</ele>
        <time>2021-11-20T00:06:15.645Z</time>
      </trkpt>
      <trkpt lat="47.599718" lon="7.969767">
        <ele>745.766248</ele>
        <time>2021-11-20T00:06:43.444Z</time>
      </trkpt>
      <trkpt lat="47.599352" lon="7.969493">
        <ele>748.579482</ele>
        <time>2021-11-20T00:06:57.240Z</time>
      </trkpt>
      <trkpt lat="47.598765" lon="7.968887">
        <ele>749.219631</ele>
        <time>2021-11-20T00:07:13.183Z</time>
      </trkpt>
      <trkpt lat="47.598343" lon="7.968578">
        <ele>749.536712</ele>
        <time>2021-11-20T00:07:20.568Z</time>
      </trkpt>
      <trkpt lat="47.597978" lon="7.968440">
        <ele>749.790488</ele>
        <time>2021-11-20T00:07:25.430Z</time>
      </trkpt>
      <trkpt lat="47.597103" lon="7.968192">
        <ele>748.332059</ele>
        <time>2021-11-20T00:07:35.217Z</time>
      </trkpt>
      <trkpt lat="47.596111" lon="7.968029">
        <ele>745.738789</ele>
        <time>2021-11-20T00:07:45.366Z</time>
      </trkpt>
      <trkpt lat="47.595897" lon="7.967970">
        <ele>745.187706</ele>
        <time>2021-11-20T00:07:47.603Z</time>
      </trkpt>
      <trkpt lat="47.595731" lon="7.967840">
        <ele>744.758701</ele>
        <time>2021-11-20T00:07:49.556Z</time>
      </trkpt>
      <trkpt lat="47.595487" lon="7.967606">
        <ele>744.094649</ele>
        <time>2021-11-20T00:07:52.500Z</time>
      </trkpt>
      <trkpt lat="47.595222" lon="7.967319">
        <ele>743.344737</ele>
        <time>2021-11-20T00:07:55.855Z</time>
      </trkpt>
      <trkpt lat="47.594433" lon="7.966488">
        <ele>741.204359</ele>
        <time>2021-11-20T00:08:06.343Z</time>
      </trkpt>
      <trkpt lat="47.594369" lon="7.966419">
        <ele>741.281637</ele>
        <time>2021-11-20T00:08:07.236Z</time>
      </trkpt>
      <trkpt lat="47.593845" lon="7.965844">
        <ele>741.918276</ele>
        <time>2021-11-20T00:08:18.959Z</time>
      </trkpt>
      <trkpt lat="47.593572" lon="7.965514">
        <ele>742.262259</ele>
        <time>2021-11-20T00:08:26.144Z</time>
      </trkpt>
      <trkpt lat="47.593274" lon="7.965197">
        <ele>742.620438</ele>
        <time>2021-11-20T00:08:34.090Z</time>
      </trkpt>
      <trkpt lat="47.592819" lon="7.964868">
        <ele>743.216067</ele>
        <time>2021-11-20T00:08:46.459Z</time>
      </trkpt>
      <trkpt lat="47.592518" lon="7.964704">
        <ele>743.710250</ele>
        <time>2021-11-20T00:08:55.032Z</time>
      </trkpt>
      <trkpt lat="47.591169" lon="7.964077">
        <ele>745.298870</ele>
        <time>2021-11-20T00:09:25.368Z</time>
      </trkpt>
      <trkpt lat="47.590665" lon="7.963794">
        <ele>743.367479</ele>
        <time>2021-11-20T00:09:31.212Z</time>
      </trkpt>
      <trkpt lat="47.590624" lon="7.963772">
        <ele>743.211220</ele>
        <time>2021-11-20T00:09:31.669Z</time>
      </trkpt>
      <trkpt lat="47.590227" lon="7.963517">
        <ele>741.660707</ele>
        <time>2021-11-20T00:09:35.862Z</time>
      </trkpt>
      <trkpt lat="47.589112" lon="7.962950">
        <ele>735.926264</ele>
        <time>2021-11-20T00:09:46.633Z</time>
      </trkpt>
      <trkpt lat="47.588758" lon="7.962844">
        <ele>733.563546</ele>
        <time>2021-11-20T00:09:49.836Z</time>
      </trkpt>
      <trkpt lat="47.588243" lon="7.962855">
        <ele>730.193930</ele>
        <time>2021-11-20T00:09:54.516Z</time>
      </trkpt>
      <trkpt lat="47.587999" lon="7.962882">
        <ele>728.593178</ele>
        <time>2021-11-20T00:09:56.735Z</time>
      </trkpt>
      <trkpt lat="47.587762" lon="7.962890">
        <ele>727.049787</ele>
        <time>2021-11-20T00:09:58.881Z</time>
      </trkpt>
      <trkpt lat="47.587593" lon="7.962854">
        <ele>725.951224</ele>
        <time>2021-11-20T00:10:00.446Z</time>
      </trkpt>
      <trkpt lat="47.587527" lon="7.962835">
        <ele>725.518629</ele>
        <time>2021-11-20T00:10:01.065Z</time>
      </trkpt>
      <trkpt lat="47.587299" lon="7.962810">
        <ele>724.047602</ele>
        <time>2021-11-20T00:10:03.172Z</time>
      </trkpt>
      <trkpt lat="47.587114" lon="7.962708">
        <ele>722.777616</ele>
        <time>2021-11-20T00:10:05.001Z</time>
      </trkpt>
      <trkpt lat="47.586786" lon="7.962503">
        <ele>720.487316</ele>
        <time>2021-11-20T00:10:08.235Z</time>
      </trkpt>
      <trkpt lat="47.586624" lon="7.962373">
        <ele>719.302075</ele>
        <time>2021-11-20T00:10:09.892Z</time>
      </trkpt>
      <trkpt lat="47.586491" lon="7.962168">
        <ele>718.067646</ele>
        <time>2021-11-20T00:10:11.641Z</time>
      </trkpt>
      <trkpt lat="47.586296" lon="7.961772">
        <ele>715.939810</ele>
        <time>2021-11-20T00:10:14.627Z</time>
      </trkpt>
      <trkpt lat="47.586005" lon="7.961489">
        <ele>713.798184</ele>
        <time>2021-11-20T00:10:17.760Z</time>
      </trkpt>
      <trkpt lat="47.585805" lon="7.961386">
        <ele>712.495672</ele>
        <time>2021-11-20T00:10:19.649Z</time>
      </trkpt>
      <trkpt lat="47.585514" lon="7.961317">
        <ele>710.682695</ele>
        <time>2021-11-20T00:10:22.319Z</time>
      </trkpt>
      <trkpt lat="47.585281" lon="7.961295">
        <ele>709.246379</ele>
        <time>2021-11-20T00:10:24.497Z</time>
      </trkpt>
      <trkpt lat="47.585149" lon="7.961311">
        <ele>708.431607</ele>
        <time>2021-11-20T00:10:25.672Z</time>
      </trkpt>
      <trkpt lat="47.585078" lon="7.961320">
        <ele>707.993223</ele>
        <time>2021-11-20T00:10:26.343Z</time>
      </trkpt>
      <trkpt lat="47.584845" lon="7.961410">
        <ele>706.511961</ele>
        <time>2021-11-20T00:10:28.608Z</time>
      </trkpt>
      <trkpt lat="47.584506" lon="7.961629">
        <ele>704.427527</ele>
        <time>2021-11-20T00:10:32.003Z</time>
      </trkpt>
      <trkpt lat="47.583450" lon="7.962220">
        <ele>699.606384</ele>
        <time>2021-11-20T00:10:42.727Z</time>
      </trkpt>
      <trkpt lat="47.583243" lon="7.962307">
        <ele>698.687388</ele>
        <time>2021-11-20T00:10:44.862Z</time>
      </trkpt>
      <trkpt lat="47.583134" lon="7.962356">
        <ele>698.200886</ele>
        <time>2021-11-20T00:10:46.039Z</time>
      </trkpt>
      <trkpt lat="47.582968" lon="7.962415">
        <ele>697.471763</ele>
        <time>2021-11-20T00:10:47.814Z</time>
      </trkpt>
      <trkpt lat="47.582545" lon="7.962501">
        <ele>696.697146</ele>
        <time>2021-11-20T00:10:52.341Z</time>
      </trkpt>
      <trkpt lat="47.582180" lon="7.962548">
        <ele>696.205561</ele>
        <time>2021-11-20T00:10:56.361Z</time>
      </trkpt>
      <trkpt lat="47.581514" lon="7.962514">
        <ele>695.311423</ele>
        <time>2021-11-20T00:11:04.242Z</time>
      </trkpt>
      <trkpt lat="47.580893" lon="7.962449">
        <ele>694.947829</ele>
        <time>2021-11-20T00:11:13.660Z</time>
      </trkpt>
      <trkpt lat="47.580131" lon="7.962271">
        <ele>695.607104</ele>
        <time>2021-11-20T00:11:28.136Z</time>
      </trkpt>
      <trkpt lat="47.579759" lon="7.962106">
        <ele>695.938958</ele>
        <time>2021-11-20T00:11:36.014Z</time>
      </trkpt>
      <trkpt lat="47.579647" lon="7.962017">
        <ele>696.047563</ele>
        <time>2021-11-20T00:11:38.493Z</time>
      </trkpt>
      <trkpt lat="47.579169" lon="7.961638">
        <ele>696.505918</ele>
        <time>2021-11-20T00:11:48.936Z</time>
      </trkpt>
      <trkpt lat="47.578838" lon="7.961180">
        <ele>696.883780</ele>
        <time>2021-11-20T00:11:57.742Z</time>
      </trkpt>
      <trkpt lat="47.578655" lon="7.960775">
        <ele>697.158199</ele>
        <time>2021-11-20T00:12:03.947Z</time>
      </trkpt>
      <trkpt lat="47.578614" lon="7.960661">
        <ele>697.230927</ele>
        <time>2021-11-20T00:12:05.508Z</time>
      </trkpt>
      <trkpt lat="47.578556" lon="7.960464">
        <ele>697.351932</ele>
        <time>2021-11-20T00:12:08.016Z</time>
      </trkpt>
      <trkpt lat="47.578521" lon="7.960284">
        <ele>697.457389</ele>
        <time>2021-11-20T00:12:10.326Z</time>
      </trkpt>
      <trkpt lat="47.578451" lon="7.959921">
        <ele>697.669929</ele>
        <time>2021-11-20T00:12:14.437Z</time>
      </trkpt>
      <trkpt lat="47.578428" lon="7.959421">
        <ele>697.724715</ele>
        <time>2021-11-20T00:12:19.912Z</time>
      </trkpt>
      <trkpt lat="47.578453" lon="7.959023">
        <ele>697.607671</ele>
        <time>2021-11-20T00:12:24.105Z</time>
      </trkpt>
      <trkpt lat="47.578554" lon="7.958491">
        <ele>697.445843</ele>
        <time>2021-11-20T00:12:29.568Z</time>
      </trkpt>
      <trkpt lat="47.578723" lon="7.958003">
        <ele>697.285220</ele>
        <time>2021-11-20T00:12:34.842Z</time>
      </trkpt>
      <trkpt lat="47.579019" lon="7.957379">
        <ele>697.061853</ele>
        <time>2021-11-20T00:12:41.118Z</time>
      </trkpt>
      <trkpt lat="47.579581" lon="7.956485">
        <ele>695.096881</ele>
        <time>2021-11-20T00:12:50.238Z</time>
      </trkpt>
      <trkpt lat="47.579879" lon="7.956035">
        <ele>693.978279</ele>
        <time>2021-11-20T00:12:54.658Z</time>
      </trkpt>
      <trkpt lat="47.580034" lon="7.955780">
        <ele>693.369395</ele>
        <time>2021-11-20T00:12:57.010Z</time>
      </trkpt>
      <trkpt lat="47.580265" lon="7.955293">
        <ele>692.313338</ele>
        <time>2021-11-20T00:13:01.099Z</time>
      </trkpt>
      <trkpt lat="47.580339" lon="7.955104">
        <ele>691.708415</ele>
        <time>2021-11-20T00:13:02.572Z</time>
      </trkpt>
      <trkpt lat="47.580388" lon="7.954967">
        <ele>691.270174</ele>
        <time>2021-11-20T00:13:03.529Z</time>
      </trkpt>
      <trkpt lat="47.580536" lon="7.954398">
        <ele>689.546696</ele>
        <time>2021-11-20T00:13:07.460Z</time>
      </trkpt>
      <trkpt lat="47.580783" lon="7.953015">
        <ele>685.503489</ele>
        <time>2021-11-20T00:13:16.985Z</time>
      </trkpt>
      <trkpt lat="47.580801" lon="7.952840">
        <ele>685.003201</ele>
        <time>2021-11-20T00:13:18.075Z</time>
      </trkpt>
      <trkpt lat="47.580789" lon="7.952623">
        <ele>684.113480</ele>
        <time>2021-11-20T00:13:19.667Z</time>
      </trkpt>
      <trkpt lat="47.580514" lon="7.951308">
        <ele>677.324853</ele>
        <time>2021-11-20T00:13:28.091Z</time>
      </trkpt>
      <trkpt lat="47.580578" lon="7.950534">
        <ele>673.479741</ele>
        <time>2021-11-20T00:13:32.726Z</time>
      </trkpt>
      <trkpt lat="47.580705" lon="7.949917">
        <ele>669.608900</ele>
        <time>2021-11-20T00:13:36.498Z</time>
      </trkpt>
      <trkpt lat="47.580743" lon="7.949656">
        <ele>667.598571</ele>
        <time>2021-11-20T00:13:38.023Z</time>
      </trkpt>
      <trkpt lat="47.580939" lon="7.948093">
        <ele>655.629099</ele>
        <time>2021-11-20T00:13:47.073Z</time>
      </trkpt>
      <trkpt lat="47.580865" lon="7.947817">
        <ele>653.392961</ele>
        <time>2021-11-20T00:13:48.780Z</time>
      </trkpt>
      <trkpt lat="47.580562" lon="7.947489">
        <ele>649.934430</ele>
        <time>2021-11-20T00:13:51.965Z</time>
      </trkpt>
      <trkpt lat="47.580077" lon="7.947070">
        <ele>645.631710</ele>
        <time>2021-11-20T00:13:56.895Z</time>
      </trkpt>
      <trkpt lat="47.579781" lon="7.947052">
        <ele>643.360963</ele>
        <time>2021-11-20T00:13:59.572Z</time>
      </trkpt>
      <trkpt lat="47.579396" lon="7.946888">
        <ele>640.290524</ele>
        <time>2021-11-20T00:14:03.263Z</time>
      </trkpt>
      <trkpt lat="47.578644" lon="7.947268">
        <ele>634.086433</ele>
        <time>2021-11-20T00:14:10.623Z</time>
      </trkpt>
      <trkpt lat="47.578396" lon="7.947244">
        <ele>632.120035</ele>
        <time>2021-11-20T00:14:12.836Z</time>
      </trkpt>
      <trkpt lat="47.578328" lon="7.947192">
        <ele>631.514638</ele>
        <time>2021-11-20T00:14:14.595Z</time>
      </trkpt>
      <trkpt lat="47.578220" lon="7.946989">
        <ele>630.134724</ele>
        <time>2021-11-20T00:14:16.098Z</time>
      </trkpt>
      <trkpt lat="47.578055" lon="7.946424">
        <ele>626.848617</ele>
        <time>2021-11-20T00:14:19.825Z</time>
      </trkpt>
      <trkpt lat="47.577848" lon="7.945352">
        <ele>618.278195</ele>
        <time>2021-11-20T00:14:26.235Z</time>
      </trkpt>
      <trkpt lat="47.577504" lon="7.944765">
        <ele>609.976064</ele>
        <time>2021-11-20T00:14:30.600Z</time>
      </trkpt>
      <trkpt lat="47.576917" lon="7.944153">
        <ele>598.617498</ele>
        <time>2021-11-20T00:14:36.500Z</time>
      </trkpt>
      <trkpt lat="47.576848" lon="7.944056">
        <ele>597.112393</ele>
        <time>2021-11-20T00:14:37.283Z</time>
      </trkpt>
      <trkpt lat="47.576803" lon="7.944012">
        <ele>596.259167</ele>
        <time>2021-11-20T00:14:37.735Z</time>
      </trkpt>
      <trkpt lat="47.576670" lon="7.943775">
        <ele>592.347093</ele>
        <time>2021-11-20T00:14:39.457Z</time>
      </trkpt>
      <trkpt lat="47.576415" lon="7.943598">
        <ele>586.560696</ele>
        <time>2021-11-20T00:14:41.754Z</time>
      </trkpt>
      <trkpt lat="47.575978" lon="7.943401">
        <ele>577.174089</ele>
        <time>2021-11-20T00:14:45.485Z</time>
      </trkpt>
      <trkpt lat="47.575613" lon="7.943320">
        <ele>569.589616</ele>
        <time>2021-11-20T00:14:48.494Z</time>
      </trkpt>
      <trkpt lat="47.574655" lon="7.943625">
        <ele>550.924574</ele>
        <time>2021-11-20T00:14:56.507Z</time>
      </trkpt>
      <trkpt lat="47.574394" lon="7.943856">
        <ele>545.742427</ele>
        <time>2021-11-20T00:14:58.995Z</time>
      </trkpt>
      <trkpt lat="47.574153" lon="7.944610">
        <ele>536.146860</ele>
        <time>2021-11-20T00:15:03.638Z</time>
      </trkpt>
      <trkpt lat="47.573532" lon="7.946081">
        <ele>521.321793</ele>
        <time>2021-11-20T00:15:13.450Z</time>
      </trkpt>
      <trkpt lat="47.573421" lon="7.946607">
        <ele>517.879336</ele>
        <time>2021-11-20T00:15:16.680Z</time>
      </trkpt>
      <trkpt lat="47.573457" lon="7.946845">
        <ele>516.355844</ele>
        <time>2021-11-20T00:15:18.147Z</time>
      </trkpt>
      <trkpt lat="47.573702" lon="7.947589">
        <ele>511.184664</ele>
        <time>2021-11-20T00:15:23.281Z</time>
      </trkpt>
      <trkpt lat="47.573779" lon="7.948382">
        <ele>508.717110</ele>
        <time>2021-11-20T00:15:28.530Z</time>
      </trkpt>
      <trkpt lat="47.573841" lon="7.949945">
        <ele>504.343578</ele>
        <time>2021-11-20T00:15:39.084Z</time>
      </trkpt>
      <trkpt lat="47.573833" lon="7.950164">
        <ele>503.730940</ele>
        <time>2021-11-20T00:15:40.595Z</time>
      </trkpt>
      <trkpt lat="47.573830" lon="7.950662">
        <ele>501.897795</ele>
        <time>2021-11-20T00:15:43.763Z</time>
      </trkpt>
      <trkpt lat="47.573809" lon="7.950963">
        <ele>500.672140</ele>
        <time>2021-11-20T00:15:45.749Z</time>
      </trkpt>
      <trkpt lat="47.573771" lon="7.951175">
        <ele>499.783676</ele>
        <time>2021-11-20T00:15:47.082Z</time>
      </trkpt>
      <trkpt lat="47.573543" lon="7.952446">
        <ele>494.456792</ele>
        <time>2021-11-20T00:15:55.207Z</time>
      </trkpt>
      <trkpt lat="47.573526" lon="7.952563">
        <ele>493.972033</ele>
        <time>2021-11-20T00:15:55.904Z</time>
      </trkpt>
      <trkpt lat="47.573508" lon="7.952785">
        <ele>493.066381</ele>
        <time>2021-11-20T00:15:57.242Z</time>
      </trkpt>
      <trkpt lat="47.573460" lon="7.953097">
        <ele>491.570681</ele>
        <time>2021-11-20T00:15:59.212Z</time>
      </trkpt>
      <trkpt lat="47.573085" lon="7.954089">
        <ele>485.744859</ele>
        <time>2021-11-20T00:16:05.967Z</time>
      </trkpt>
      <trkpt lat="47.572895" lon="7.955000">
        <ele>480.859534</ele>
        <time>2021-11-20T00:16:11.640Z</time>
      </trkpt>
      <trkpt lat="47.572816" lon="7.955144">
        <ele>479.908629</ele>
        <time>2021-11-20T00:16:12.850Z</time>
      </trkpt>
      <trkpt lat="47.572732" lon="7.955226">
        <ele>479.144809</ele>
        <time>2021-11-20T00:16:13.726Z</time>
      </trkpt>
      <trkpt lat="47.572685" lon="7.955235">
        <ele>478.794723</ele>
        <time>2021-11-20T00:16:14.135Z</time>
      </trkpt>
      <trkpt lat="47.572561" lon="7.955012">
        <ele>477.496742</ele>
        <time>2021-11-20T00:16:16.031Z</time>
      </trkpt>
      <trkpt lat="47.572543" lon="7.954643">
        <ele>475.835026</ele>
        <time>2021-11-20T00:16:18.270Z</time>
      </trkpt>
      <trkpt lat="47.572493" lon="7.953580">
        <ele>471.048895</ele>
        <time>2021-11-20T00:16:24.715Z</time>
      </trkpt>
      <trkpt lat="47.572431" lon="7.953273">
        <ele>469.609526</ele>
        <time>2021-11-20T00:16:26.673Z</time>
      </trkpt>
      <trkpt lat="47.572136" lon="7.952448">
        <ele>465.475405</ele>
        <time>2021-11-20T00:16:32.438Z</time>
      </trkpt>
      <trkpt lat="47.572063" lon="7.952158">
        <ele>464.141462</ele>
        <time>2021-11-20T00:16:34.420Z</time>
      </trkpt>
      <trkpt lat="47.572029" lon="7.952049">
        <ele>463.623938</ele>
        <time>2021-11-20T00:16:35.138Z</time>
      </trkpt>
      <trkpt lat="47.571881" lon="7.951642">
        <ele>461.631370</ele>
        <time>2021-11-20T00:16:38.021Z</time>
      </trkpt>
      <trkpt lat="47.571580" lon="7.951400">
        <ele>459.444002</ele>
        <time>2021-11-20T00:16:41.149Z</time>
      </trkpt>
      <trkpt lat="47.571432" lon="7.951352">
        <ele>458.476241</ele>
        <time>2021-11-20T00:16:42.489Z</time>
      </trkpt>
      <trkpt lat="47.571372" lon="7.951351">
        <ele>458.092950</ele>
        <time>2021-11-20T00:16:43.031Z</time>
      </trkpt>
      <trkpt lat="47.571274" lon="7.951357">
        <ele>457.466412</ele>
        <time>2021-11-20T00:16:43.939Z</time>
      </trkpt>
      <trkpt lat="47.571169" lon="7.951380">
        <ele>456.788409</ele>
        <time>2021-11-20T00:16:44.886Z</time>
      </trkpt>
      <trkpt lat="47.571014" lon="7.951483">
        <ele>455.703347</ele>
        <time>2021-11-20T00:16:46.398Z</time>
      </trkpt>
      <trkpt lat="47.570777" lon="7.951728">
        <ele>453.604109</ele>
        <time>2021-11-20T00:16:48.978Z</time>
      </trkpt>
      <trkpt lat="47.570730" lon="7.951945">
        <ele>452.460516</ele>
        <time>2021-11-20T00:16:50.410Z</time>
      </trkpt>
      <trkpt lat="47.570707" lon="7.952052">
        <ele>451.897022</ele>
        <time>2021-11-20T00:16:51.132Z</time>
      </trkpt>
      <trkpt lat="47.570624" lon="7.952436">
        <ele>449.873721</ele>
        <time>2021-11-20T00:16:53.574Z</time>
      </trkpt>
      <trkpt lat="47.570406" lon="7.952888">
        <ele>447.085752</ele>
        <time>2021-11-20T00:16:56.916Z</time>
      </trkpt>
      <trkpt lat="47.570258" lon="7.953004">
        <ele>445.840607</ele>
        <time>2021-11-20T00:16:58.415Z</time>
      </trkpt>
      <trkpt lat="47.569469" lon="7.953110">
        <ele>439.316469</ele>
        <time>2021-11-20T00:17:05.388Z</time>
      </trkpt>
      <trkpt lat="47.568801" lon="7.953205">
        <ele>432.805199</ele>
        <time>2021-11-20T00:17:11.203Z</time>
      </trkpt>
      <trkpt lat="47.568529" lon="7.953233">
        <ele>430.159666</ele>
        <time>2021-11-20T00:17:13.556Z</time>
      </trkpt>
      <trkpt lat="47.568322" lon="7.953261">
        <ele>428.142830</ele>
        <time>2021-11-20T00:17:15.339Z</time>
      </trkpt>
      <trkpt lat="47.568036" lon="7.953298">
        <ele>425.357265</ele>
        <time>2021-11-20T00:17:17.779Z</time>
      </trkpt>
      <trkpt lat="47.567660" lon="7.953207">
        <ele>421.380546</ele>
        <time>2021-11-20T00:17:21.027Z</time>
      </trkpt>
      <trkpt lat="47.567503" lon="7.953060">
        <ele>419.405270</ele>
        <time>2021-11-20T00:17:22.630Z</time>
      </trkpt>
      <trkpt lat="47.567451" lon="7.952996">
        <ele>418.686317</ele>
        <time>2021-11-20T00:17:23.188Z</time>
      </trkpt>
      <trkpt lat="47.567312" lon="7.952728">
        <ele>416.260353</ele>
        <time>2021-11-20T00:17:25.154Z</time>
      </trkpt>
      <trkpt lat="47.567222" lon="7.952062">
        <ele>411.385691</ele>
        <time>2021-11-20T00:17:29.054Z</time>
      </trkpt>
      <trkpt lat="47.567206" lon="7.950456">
        <ele>401.213933</ele>
        <time>2021-11-20T00:17:38.386Z</time>
      </trkpt>
      <trkpt lat="47.567150" lon="7.950174">
        <ele>399.616568</ele>
        <time>2021-11-20T00:17:40.131Z</time>
      </trkpt>
      <trkpt lat="47.566740" lon="7.949245">
        <ele>393.584410</ele>
        <time>2021-11-20T00:17:46.826Z</time>
      </trkpt>
      <trkpt lat="47.566807" lon="7.948128">
        <ele>387.878089</ele>
        <time>2021-11-20T00:17:53.716Z</time>
      </trkpt>
      <trkpt lat="47.566739" lon="7.947778">
        <ele>386.120266</ele>
        <time>2021-11-20T00:17:55.921Z</time>
      </trkpt>
      <trkpt lat="47.566559" lon="7.947459">
        <ele>384.113279</ele>
        <time>2021-11-20T00:17:58.392Z</time>
      </trkpt>
      <trkpt lat="47.566361" lon="7.947197">
        <ele>382.214664</ele>
        <time>2021-11-20T00:18:00.745Z</time>
      </trkpt>
      <trkpt lat="47.566181" lon="7.947137">
        <ele>380.894985</ele>
        <time>2021-11-20T00:18:02.433Z</time>
      </trkpt>
      <trkpt lat="47.566104" lon="7.947141">
        <ele>380.343876</ele>
        <time>2021-11-20T00:18:03.127Z</time>
      </trkpt>
      <trkpt lat="47.566041" lon="7.947154">
        <ele>379.888899</ele>
        <time>2021-11-20T00:18:03.678Z</time>
      </trkpt>
      <trkpt lat="47.566020" lon="7.947169">
        <ele>379.722153</ele>
        <time>2021-11-20T00:18:03.883Z</time>
      </trkpt>
      <trkpt lat="47.565946" lon="7.947239">
        <ele>379.094213</ele>
        <time>2021-11-20T00:18:04.688Z</time>
      </trkpt>
      <trkpt lat="47.565560" lon="7.947737">
        <ele>374.996855</ele>
        <time>2021-11-20T00:18:09.302Z</time>
      </trkpt>
      <trkpt lat="47.565487" lon="7.947832">
        <ele>374.187668</ele>
        <time>2021-11-20T00:18:10.143Z</time>
      </trkpt>
      <trkpt lat="47.565349" lon="7.947927">
        <ele>372.920270</ele>
        <time>2021-11-20T00:18:11.514Z</time>
      </trkpt>
      <trkpt lat="47.565219" lon="7.948009">
        <ele>371.743463</ele>
        <time>2021-11-20T00:18:12.759Z</time>
      </trkpt>
      <trkpt lat="47.565100" lon="7.948048">
        <ele>370.728327</ele>
        <time>2021-11-20T00:18:13.831Z</time>
      </trkpt>
      <trkpt lat="47.565021" lon="7.948043">
        <ele>370.069710</ele>
        <time>2021-11-20T00:18:14.524Z</time>
      </trkpt>
      <trkpt lat="47.564900" lon="7.948021">
        <ele>369.054305</ele>
        <time>2021-11-20T00:18:15.591Z</time>
      </trkpt>
      <trkpt lat="47.564785" lon="7.947966">
        <ele>368.047790</ele>
        <time>2021-11-20T00:18:16.622Z</time>
      </trkpt>
      <trkpt lat="47.564750" lon="7.947944">
        <ele>367.731126</ele>
        <time>2021-11-20T00:18:16.960Z</time>
      </trkpt>
      <trkpt lat="47.564704" lon="7.947878">
        <ele>367.197836</ele>
        <time>2021-11-20T00:18:17.522Z</time>
      </trkpt>
      <trkpt lat="47.564636" lon="7.947804">
        <ele>366.495143</ele>
        <time>2021-11-20T00:18:18.258Z</time>
      </trkpt>
      <trkpt lat="47.564602" lon="7.947749">
        <ele>366.075914</ele>
        <time>2021-11-20T00:18:18.693Z</time>
      </trkpt>
      <trkpt lat="47.564466" lon="7.947344">
        <ele>363.533399</ele>
        <time>2021-11-20T00:18:21.341Z</time>
      </trkpt>
      <trkpt lat="47.564404" lon="7.946994">
        <ele>361.363862</ele>
        <time>2021-11-20T00:18:23.459Z</time>
      </trkpt>
      <trkpt lat="47.564365" lon="7.946824">
        <ele>360.269481</ele>
        <time>2021-11-20T00:18:24.518Z</time>
      </trkpt>
      <trkpt lat="47.564271" lon="7.946559">
        <ele>358.444752</ele>
        <time>2021-11-20T00:18:26.284Z</time>
      </trkpt>
      <trkpt lat="47.564141" lon="7.946291">
        <ele>356.433040</ele>
        <time>2021-11-20T00:18:28.237Z</time>
      </trkpt>
      <trkpt lat="47.564119" lon="7.946229">
        <ele>356.006090</ele>
        <time>2021-11-20T00:18:28.640Z</time>
      </trkpt>
      <trkpt lat="47.564025" lon="7.945964">
        <ele>354.181354</ele>
        <time>2021-11-20T00:18:30.450Z</time>
      </trkpt>
      <trkpt lat="47.563874" lon="7.945541">
        <ele>351.264634</ele>
        <time>2021-11-20T00:18:33.230Z</time>
      </trkpt>
      <trkpt lat="47.563855" lon="7.945417">
        <ele>350.489618</ele>
        <time>2021-11-20T00:18:33.971Z</time>
      </trkpt>
      <trkpt lat="47.563798" lon="7.945261">
        <ele>349.408354</ele>
        <time>2021-11-20T00:18:34.983Z</time>
      </trkpt>
      <trkpt lat="47.563725" lon="7.945071">
        <ele>348.075741</ele>
        <time>2021-11-20T00:18:36.295Z</time>
      </trkpt>
      <trkpt lat="47.563643" lon="7.944887">
        <ele>346.757538</ele>
        <time>2021-11-20T00:18:37.585Z</time>
      </trkpt>
      <trkpt lat="47.563617" lon="7.944825">
        <ele>346.401429</ele>
        <time>2021-11-20T00:18:37.999Z</time>
      </trkpt>
      <trkpt lat="47.563376" lon="7.944323">
        <ele>343.395923</ele>
        <time>2021-11-20T00:18:41.645Z</time>
      </trkpt>
      <trkpt lat="47.563250" lon="7.944210">
        <ele>342.331176</ele>
        <time>2021-11-20T00:18:43.003Z</time>
      </trkpt>
      <trkpt lat="47.563121" lon="7.944175">
        <ele>341.383052</ele>
        <time>2021-11-20T00:18:44.148Z</time>
      </trkpt>
      <trkpt lat="47.562993" lon="7.944148">
        <ele>340.448331</ele>
        <time>2021-11-20T00:18:45.311Z</time>
      </trkpt>
      <trkpt lat="47.562431" lon="7.944285">
        <ele>336.330670</ele>
        <time>2021-11-20T00:18:50.521Z</time>
      </trkpt>
      <trkpt lat="47.562104" lon="7.944442">
        <ele>333.845827</ele>
        <time>2021-11-20T00:18:53.677Z</time>
      </trkpt>
      <trkpt lat="47.561884" lon="7.944575">
        <ele>332.160924</ele>
        <time>2021-11-20T00:18:55.874Z</time>
      </trkpt>
      <trkpt lat="47.561590" lon="7.944808">
        <ele>329.796678</ele>
        <time>2021-11-20T00:18:58.867Z</time>
      </trkpt>
      <trkpt lat="47.561549" lon="7.944844">
        <ele>329.458732</ele>
        <time>2021-11-20T00:18:59.339Z</time>
      </trkpt>
      <trkpt lat="47.561253" lon="7.945105">
        <ele>327.016246</ele>
        <time>2021-11-20T00:19:02.457Z</time>
      </trkpt>
      <trkpt lat="47.561051" lon="7.945242">
        <ele>325.440915</ele>
        <time>2021-11-20T00:19:04.433Z</time>
      </trkpt>
      <trkpt lat="47.560884" lon="7.945275">
        <ele>324.246188</ele>
        <time>2021-11-20T00:19:05.941Z</time>
      </trkpt>
      <trkpt lat="47.560748" lon="7.945268">
        <ele>323.281190</ele>
        <time>2021-11-20T00:19:07.163Z</time>
      </trkpt>
      <trkpt lat="47.560632" lon="7.945223">
        <ele>322.430882</ele>
        <time>2021-11-20T00:19:08.207Z</time>
      </trkpt>
      <trkpt lat="47.560464" lon="7.945085">
        <ele>321.064486</ele>
        <time>2021-11-20T00:19:09.913Z</time>
      </trkpt>
      <trkpt lat="47.560288" lon="7.944850">
        <ele>319.172848</ele>
        <time>2021-11-20T00:19:11.982Z</time>
      </trkpt>
      <trkpt lat="47.560144" lon="7.944665">
        <ele>317.651095</ele>
        <time>2021-11-20T00:19:13.632Z</time>
      </trkpt>
      <trkpt lat="47.560106" lon="7.944624">
        <ele>317.275768</ele>
        <time>2021-11-20T00:19:14.029Z</time>
      </trkpt>
      <trkpt lat="47.559855" lon="7.944533">
        <ele>315.212473</ele>
        <time>2021-11-20T00:19:16.290Z</time>
      </trkpt>
      <trkpt lat="47.559774" lon="7.944500">
        <ele>314.541707</ele>
        <time>2021-11-20T00:19:17.020Z</time>
      </trkpt>
      <trkpt lat="47.559609" lon="7.944534">
        <ele>313.211539</ele>
        <time>2021-11-20T00:19:18.496Z</time>
      </trkpt>
      <trkpt lat="47.559263" lon="7.944710">
        <ele>310.290563</ele>
        <time>2021-11-20T00:19:21.704Z</time>
      </trkpt>
      <trkpt lat="47.559249" lon="7.944727">
        <ele>310.146038</ele>
        <time>2021-11-20T00:19:21.854Z</time>
      </trkpt>
      <trkpt lat="47.558967" lon="7.945068">
        <ele>307.239772</ele>
        <time>2021-11-20T00:19:25.126Z</time>
      </trkpt>
      <trkpt lat="47.558781" lon="7.945419">
        <ele>305.817092</ele>
        <time>2021-11-20T00:19:27.924Z</time>
      </trkpt>
      <trkpt lat="47.558676" lon="7.945591">
        <ele>305.211319</ele>
        <time>2021-11-20T00:19:29.360Z</time>
      </trkpt>
      <trkpt lat="47.558644" lon="7.945668">
        <ele>304.975131</ele>
        <time>2021-11-20T00:19:29.950Z</time>
      </trkpt>
      <trkpt lat="47.558608" lon="7.945765">
        <ele>304.685996</ele>
        <time>2021-11-20T00:19:30.660Z</time>
      </trkpt>
      <trkpt lat="47.558540" lon="7.945722">
        <ele>304.399852</ele>
        <time>2021-11-20T00:19:31.363Z</time>
      </trkpt>
      <trkpt lat="47.558415" lon="7.945666">
        <ele>303.894435</ele>
        <time>2021-11-20T00:19:32.566Z</time>
      </trkpt>
      <trkpt lat="47.558161" lon="7.945614">
        <ele>302.902033</ele>
        <time>2021-11-20T00:19:35.192Z</time>
      </trkpt>
      <trkpt lat="47.558102" lon="7.945615">
        <ele>302.673668</ele>
        <time>2021-11-20T00:19:35.713Z</time>
      </trkpt>
      <trkpt lat="47.558009" lon="7.945617">
        <ele>302.313690</ele>
        <time>2021-11-20T00:19:36.663Z</time>
      </trkpt>
      <trkpt lat="47.557910" lon="7.945625">
        <ele>301.929957</ele>
        <time>2021-11-20T00:19:37.700Z</time>
      </trkpt>
      <trkpt lat="47.557744" lon="7.945674">
        <ele>301.274859</ele>
        <time>2021-11-20T00:19:39.481Z</time>
      </trkpt>
      <trkpt lat="47.557613" lon="7.945697">
        <ele>300.764299</ele>
        <time>2021-11-20T00:19:40.967Z</time>
      </trkpt>
      <trkpt lat="47.557529" lon="7.945747">
        <ele>300.413942</ele>
        <time>2021-11-20T00:19:42.009Z</time>
      </trkpt>
      <trkpt lat="47.557394" lon="7.945716">
        <ele>299.885211</ele>
        <time>2021-11-20T00:19:43.603Z</time>
      </trkpt>
      <trkpt lat="47.557268" lon="7.945688">
        <ele>299.713738</ele>
        <time>2021-11-20T00:19:45.230Z</time>
      </trkpt>
      <trkpt lat="47.557196" lon="7.945663">
        <ele>299.665123</ele>
        <time>2021-11-20T00:19:46.213Z</time>
      </trkpt>
      <trkpt lat="47.557110" lon="7.945492">
        <ele>299.570507</ele>
        <time>2021-11-20T00:19:48.057Z</time>
      </trkpt>
      <trkpt lat="47.556999" lon="7.945268">
        <ele>299.447214</ele>
        <time>2021-11-20T00:19:50.474Z</time>
      </trkpt>
      <trkpt lat="47.556919" lon="7.945110">
        <ele>299.359580</ele>
        <time>2021-11-20T00:19:52.246Z</time>
      </trkpt>
      <trkpt lat="47.556919" lon="7.945110">
        <ele>299.359580</ele>
        <time>2021-11-20T00:19:52.280Z</time>
      </trkpt>
      <trkpt lat="47.556919" lon="7.945110">
        <ele>299.359580</ele>
        <time>2021-11-20T00:19:52.314Z</time>
      </trkpt>
      <trkpt lat="47.556830" lon="7.944931">
        <ele>299.260939</ele>
        <time>2021-11-20T00:19:54.142Z</time>
      </trkpt>
      <trkpt lat="47.556650" lon="7.944566">
        <ele>299.060374</ele>
        <time>2021-11-20T00:19:58.075Z</time>
      </trkpt>
      <trkpt lat="47.556439" lon="7.944137">
        <ele>298.824859</ele>
        <time>2021-11-20T00:20:02.885Z</time>
      </trkpt>
      <trkpt lat="47.556345" lon="7.943946">
        <ele>298.719980</ele>
        <time>2021-11-20T00:20:05.053Z</time>
      </trkpt>
      <trkpt lat="47.556302" lon="7.943858">
        <ele>298.671778</ele>
        <time>2021-11-20T00:20:06.100Z</time>
      </trkpt>
      <trkpt lat="47.556288" lon="7.943830">
        <ele>298.656317</ele>
        <time>2021-11-20T00:20:06.454Z</time>
      </trkpt>
      <trkpt lat="47.556069" lon="7.943386">
        <ele>298.544384</ele>
        <time>2021-11-20T00:20:12.016Z</time>
      </trkpt>
      <trkpt lat="47.555911" lon="7.943042">
        <ele>298.491712</ele>
        <time>2021-11-20T00:20:16.419Z</time>
      </trkpt>
      <trkpt lat="47.555828" lon="7.942869">
        <ele>298.464844</ele>
        <time>2021-11-20T00:20:18.744Z</time>
      </trkpt>
      <trkpt lat="47.555765" lon="7.942732">
        <ele>298.443859</ele>
        <time>2021-11-20T00:20:20.456Z</time>
      </trkpt>
      <trkpt lat="47.555711" lon="7.942617">
        <ele>298.426125</ele>
        <time>2021-11-20T00:20:21.845Z</time>
      </trkpt>
      <trkpt lat="47.555633" lon="7.942436">
        <ele>298.398941</ele>
        <time>2021-11-20T00:20:23.967Z</time>
      </trkpt>
      <trkpt lat="47.555530" lon="7.942195">
        <ele>298.362831</ele>
        <time>2021-11-20T00:20:26.531Z</time>
      </trkpt>
      <trkpt lat="47.555494" lon="7.942104">
        <ele>298.349479</ele>
        <time>2021-11-20T00:20:27.477Z</time>
      </trkpt>
      <trkpt lat="47.555456" lon="7.942017">
        <ele>298.336361</ele>
        <time>2021-11-20T00:20:28.408Z</time>
      </trkpt>
      <trkpt lat="47.555313" lon="7.941663">
        <ele>298.284137</ele>
        <time>2021-11-20T00:20:31.912Z</time>
      </trkpt>
      <trkpt lat="47.555223" lon="7.941452">
        <ele>298.238179</ele>
        <time>2021-11-20T00:20:34.154Z</time>
      </trkpt>
      <trkpt lat="47.554981" lon="7.940858">
        <ele>297.975177</ele>
        <time>2021-11-20T00:20:40.447Z</time>
      </trkpt>
      <trkpt lat="47.554831" lon="7.940510">
        <ele>297.818658</ele>
        <time>2021-11-20T00:20:44.323Z</time>
      </trkpt>
      <trkpt lat="47.554786" lon="7.940407">
        <ele>297.772148</ele>
        <time>2021-11-20T00:20:45.398Z</time>
      </trkpt>
      <trkpt lat="47.554653" lon="7.940102">
        <ele>297.634503</ele>
        <time>2021-11-20T00:20:48.682Z</time>
      </trkpt>
      <trkpt lat="47.554446" lon="7.939644">
        <ele>297.425561</ele>
        <time>2021-11-20T00:20:53.491Z</time>
      </trkpt>
      <trkpt lat="47.554246" lon="7.939196">
        <ele>297.224646</ele>
        <time>2021-11-20T00:20:58.046Z</time>
      </trkpt>
      <trkpt lat="47.554109" lon="7.938885">
        <ele>297.097626</ele>
        <time>2021-11-20T00:21:01.189Z</time>
      </trkpt>
      <trkpt lat="47.553978" lon="7.938519">
        <ele>296.955934</ele>
        <time>2021-11-20T00:21:04.698Z</time>
      </trkpt>
      <trkpt lat="47.553909" lon="7.938319">
        <ele>296.879111</ele>
        <time>2021-11-20T00:21:06.632Z</time>
      </trkpt>
      <trkpt lat="47.553848" lon="7.938105">
        <ele>296.799659</ele>
        <time>2021-11-20T00:21:08.744Z</time>
      </trkpt>
      <trkpt lat="47.553805" lon="7.937948">
        <ele>296.741709</ele>
        <time>2021-11-20T00:21:10.284Z</time>
      </trkpt>
      <trkpt lat="47.553775" lon="7.937797">
        <ele>296.687873</ele>
        <time>2021-11-20T00:21:11.671Z</time>
      </trkpt>
      <trkpt lat="47.553769" lon="7.937764">
        <ele>296.676184</ele>
        <time>2021-11-20T00:21:11.986Z</time>
      </trkpt>
      <trkpt lat="47.553744" lon="7.937573">
        <ele>296.609641</ele>
        <time>2021-11-20T00:21:13.840Z</time>
      </trkpt>
      <trkpt lat="47.553727" lon="7.937367">
        <ele>296.538661</ele>
        <time>2021-11-20T00:21:15.749Z</time>
      </trkpt>
      <trkpt lat="47.553724" lon="7.937134">
        <ele>296.458956</ele>
        <time>2021-11-20T00:21:17.917Z</time>
      </trkpt>
      <trkpt lat="47.553732" lon="7.936945">
        <ele>296.394187</ele>
        <time>2021-11-20T00:21:19.711Z</time>
      </trkpt>
      <trkpt lat="47.553754" lon="7.936703">
        <ele>296.331449</ele>
        <time>2021-11-20T00:21:21.948Z</time>
      </trkpt>
      <trkpt lat="47.553763" lon="7.936585">
        <ele>296.321692</ele>
        <time>2021-11-20T00:21:23.077Z</time>
      </trkpt>
      <trkpt lat="47.553712" lon="7.936520">
        <ele>296.313502</ele>
        <time>2021-11-20T00:21:24.035Z</time>
      </trkpt>
      <trkpt lat="47.553680" lon="7.936493">
        <ele>296.309019</ele>
        <time>2021-11-20T00:21:24.558Z</time>
      </trkpt>
      <trkpt lat="47.553579" lon="7.936483">
        <ele>296.296696</ele>
        <time>2021-11-20T00:21:25.959Z</time>
      </trkpt>
      <trkpt lat="47.553468" lon="7.936486">
        <ele>296.283180</ele>
        <time>2021-11-20T00:21:27.549Z</time>
      </trkpt>
      <trkpt lat="47.553364" lon="7.936511">
        <ele>296.270353</ele>
        <time>2021-11-20T00:21:29.105Z</time>
      </trkpt>
      <trkpt lat="47.553300" lon="7.936498">
        <ele>296.262489</ele>
        <time>2021-11-20T00:21:30.088Z</time>
      </trkpt>
      <trkpt lat="47.553216" lon="7.936481">
        <ele>296.252167</ele>
        <time>2021-11-20T00:21:31.412Z</time>
      </trkpt>
      <trkpt lat="47.553130" lon="7.936464">
        <ele>296.241605</ele>
        <time>2021-11-20T00:21:32.790Z</time>
      </trkpt>
      <trkpt lat="47.553015" lon="7.936441">
        <ele>296.227477</ele>
        <time>2021-11-20T00:21:34.696Z</time>
      </trkpt>
      <trkpt lat="47.552921" lon="7.936425">
        <ele>296.215958</ele>
        <time>2021-11-20T00:21:36.325Z</time>
      </trkpt>
      <trkpt lat="47.552791" lon="7.936403">
        <ele>296.200028</ele>
        <time>2021-11-20T00:21:38.164Z</time>
      </trkpt>
      <trkpt lat="47.552493" lon="7.936374">
        <ele>296.163671</ele>
        <time>2021-11-20T00:21:42.639Z</time>
      </trkpt>
      <trkpt lat="47.552311" lon="7.936357">
        <ele>296.141469</ele>
        <time>2021-11-20T00:21:45.161Z</time>
      </trkpt>
      <trkpt lat="47.551926" lon="7.936360">
        <ele>295.749345</ele>
        <time>2021-11-20T00:21:50.515Z</time>
      </trkpt>
      <trkpt lat="47.551730" lon="7.936373">
        <ele>295.388159</ele>
        <time>2021-11-20T00:21:53.123Z</time>
      </trkpt>
      <trkpt lat="47.551599" lon="7.936386">
        <ele>295.146455</ele>
        <time>2021-11-20T00:21:54.806Z</time>
      </trkpt>
      <trkpt lat="47.551477" lon="7.936401">
        <ele>294.921088</ele>
        <time>2021-11-20T00:21:56.165Z</time>
      </trkpt>
      <trkpt lat="47.551303" lon="7.936435">
        <ele>294.597990</ele>
        <time>2021-11-20T00:21:58.096Z</time>
      </trkpt>
      <trkpt lat="47.550607" lon="7.936694">
        <ele>293.276897</ele>
        <time>2021-11-20T00:22:05.728Z</time>
      </trkpt>
      <trkpt lat="47.550221" lon="7.936962">
        <ele>292.291867</ele>
        <time>2021-11-20T00:22:10.142Z</time>
      </trkpt>
      <trkpt lat="47.550098" lon="7.937070">
        <ele>291.861680</ele>
        <time>2021-11-20T00:22:11.531Z</time>
      </trkpt>
      <trkpt lat="47.549970" lon="7.937189">
        <ele>291.407017</ele>
        <time>2021-11-20T00:22:13.056Z</time>
      </trkpt>
      <trkpt lat="47.549714" lon="7.937478">
        <ele>290.438658</ele>
        <time>2021-11-20T00:22:16.290Z</time>
      </trkpt>
      <trkpt lat="47.549404" lon="7.937916">
        <ele>289.149806</ele>
        <time>2021-11-20T00:22:20.655Z</time>
      </trkpt>
      <trkpt lat="47.549168" lon="7.938309">
        <ele>288.081554</ele>
        <time>2021-11-20T00:22:24.253Z</time>
      </trkpt>
      <trkpt lat="47.549055" lon="7.938483">
        <ele>287.591191</ele>
        <time>2021-11-20T00:22:25.870Z</time>
      </trkpt>
      <trkpt lat="47.548911" lon="7.938838">
        <ele>287.159208</ele>
        <time>2021-11-20T00:22:28.851Z</time>
      </trkpt>
      <trkpt lat="47.548679" lon="7.939412">
        <ele>286.660924</ele>
        <time>2021-11-20T00:22:33.990Z</time>
      </trkpt>
      <trkpt lat="47.548592" lon="7.939666">
        <ele>286.448789</ele>
        <time>2021-11-20T00:22:36.368Z</time>
      </trkpt>
      <trkpt lat="47.548585" lon="7.939688">
        <ele>286.430674</ele>
        <time>2021-11-20T00:22:36.572Z</time>
      </trkpt>
      <trkpt lat="47.548563" lon="7.939753">
        <ele>286.376519</ele>
        <time>2021-11-20T00:22:37.171Z</time>
      </trkpt>
      <trkpt lat="47.548509" lon="7.939765">
        <ele>286.316267</ele>
        <time>2021-11-20T00:22:37.801Z</time>
      </trkpt>
      <trkpt lat="47.548479" lon="7.939789">
        <ele>286.278647</ele>
        <time>2021-11-20T00:22:38.200Z</time>
      </trkpt>
      <trkpt lat="47.548455" lon="7.939823">
        <ele>286.242007</ele>
        <time>2021-11-20T00:22:38.612Z</time>
      </trkpt>
      <trkpt lat="47.548437" lon="7.939866">
        <ele>286.204322</ele>
        <time>2021-11-20T00:22:39.030Z</time>
      </trkpt>
      <trkpt lat="47.548426" lon="7.939924">
        <ele>286.159453</ele>
        <time>2021-11-20T00:22:39.545Z</time>
      </trkpt>
      <trkpt lat="47.548427" lon="7.939957">
        <ele>286.134850</ele>
        <time>2021-11-20T00:22:39.858Z</time>
      </trkpt>
      <trkpt lat="47.548446" lon="7.940038">
        <ele>286.070985</ele>
        <time>2021-11-20T00:22:40.603Z</time>
      </trkpt>
      <trkpt lat="47.548468" lon="7.940081">
        <ele>286.030799</ele>
        <time>2021-11-20T00:22:41.110Z</time>
      </trkpt>
      <trkpt lat="47.548420" lon="7.940256">
        <ele>285.890113</ele>
        <time>2021-11-20T00:22:42.764Z</time>
      </trkpt>
      <trkpt lat="47.548303" lon="7.940599">
        <ele>285.603886</ele>
        <time>2021-11-20T00:22:46.686Z</time>
      </trkpt>
      <trkpt lat="47.548195" lon="7.940950">
        <ele>285.454521</ele>
        <time>2021-11-20T00:22:50.685Z</time>
      </trkpt>
      <trkpt lat="47.547852" lon="7.942144">
        <ele>285.892941</ele>
        <time>2021-11-20T00:23:05.144Z</time>
      </trkpt>
      <trkpt lat="47.547772" lon="7.942416">
        <ele>285.993185</ele>
        <time>2021-11-20T00:23:08.761Z</time>
      </trkpt>
      <trkpt lat="47.547436" lon="7.943731">
        <ele>286.437530</ele>
        <time>2021-11-20T00:23:25.756Z</time>
      </trkpt>
      <trkpt lat="47.547380" lon="7.943952">
        <ele>286.501629</ele>
        <time>2021-11-20T00:23:28.567Z</time>
      </trkpt>
      <trkpt lat="47.547280" lon="7.944357">
        <ele>286.618729</ele>
        <time>2021-11-20T00:23:33.476Z</time>
      </trkpt>
      <trkpt lat="47.547254" lon="7.944465">
        <ele>286.649864</ele>
        <time>2021-11-20T00:23:34.702Z</time>
      </trkpt>
      <trkpt lat="47.547245" lon="7.944501">
        <ele>286.660289</ele>
        <time>2021-11-20T00:23:35.097Z</time>
      </trkpt>
      <trkpt lat="47.547186" lon="7.944630">
        <ele>286.702601</ele>
        <time>2021-11-20T00:23:36.685Z</time>
      </trkpt>
      <trkpt lat="47.547164" lon="7.944724">
        <ele>286.729616</ele>
        <time>2021-11-20T00:23:37.743Z</time>
      </trkpt>
      <trkpt lat="47.547155" lon="7.944757">
        <ele>286.739281</ele>
        <time>2021-11-20T00:23:38.160Z</time>
      </trkpt>
      <trkpt lat="47.547020" lon="7.945146">
        <ele>286.858053</ele>
        <time>2021-11-20T00:23:42.492Z</time>
      </trkpt>
      <trkpt lat="47.546975" lon="7.945238">
        <ele>286.888905</ele>
        <time>2021-11-20T00:23:43.603Z</time>
      </trkpt>
      <trkpt lat="47.546915" lon="7.945468">
        <ele>286.955861</ele>
        <time>2021-11-20T00:23:45.833Z</time>
      </trkpt>
      <trkpt lat="47.546868" lon="7.945669">
        <ele>287.013623</ele>
        <time>2021-11-20T00:23:48.063Z</time>
      </trkpt>
      <trkpt lat="47.546859" lon="7.945706">
        <ele>287.024302</ele>
        <time>2021-11-20T00:23:48.524Z</time>
      </trkpt>
      <trkpt lat="47.546795" lon="7.946005">
        <ele>287.418531</ele>
        <time>2021-11-20T00:23:51.814Z</time>
      </trkpt>
      <trkpt lat="47.546735" lon="7.946282">
        <ele>287.826957</ele>
        <time>2021-11-20T00:23:55.493Z</time>
      </trkpt>
      <trkpt lat="47.546664" lon="7.946504">
        <ele>288.171849</ele>
        <time>2021-11-20T00:23:58.528Z</time>
      </trkpt>
      <trkpt lat="47.546655" lon="7.946544">
        <ele>288.231044</ele>
        <time>2021-11-20T00:23:59.092Z</time>
      </trkpt>
      <trkpt lat="47.546592" lon="7.946809">
        <ele>288.625493</ele>
        <time>2021-11-20T00:24:03.215Z</time>
      </trkpt>
      <trkpt lat="47.546633" lon="7.946946">
        <ele>288.835891</ele>
        <time>2021-11-20T00:24:05.396Z</time>
      </trkpt>
      <trkpt lat="47.546648" lon="7.947009">
        <ele>288.929681</ele>
        <time>2021-11-20T00:24:06.322Z</time>
      </trkpt>
      <trkpt lat="47.546651" lon="7.947115">
        <ele>289.078630</ele>
        <time>2021-11-20T00:24:08.045Z</time>
      </trkpt>
      <trkpt lat="47.546572" lon="7.947545">
        <ele>289.704291</ele>
        <time>2021-11-20T00:24:15.237Z</time>
      </trkpt>
      <trkpt lat="47.546159" lon="7.949303">
        <ele>293.469221</ele>
        <time>2021-11-20T00:24:53.445Z</time>
      </trkpt>
      <trkpt lat="47.545949" lon="7.950185">
        <ele>295.763407</ele>
        <time>2021-11-20T00:25:13.717Z</time>
      </trkpt>
      <trkpt lat="47.545884" lon="7.950363">
        <ele>296.259840</ele>
        <time>2021-11-20T00:25:17.649Z</time>
      </trkpt>
      <trkpt lat="47.545822" lon="7.950627">
        <ele>296.945507</ele>
        <time>2021-11-20T00:25:22.952Z</time>
      </trkpt>
      <trkpt lat="47.545810" lon="7.950694">
        <ele>297.115545</ele>
        <time>2021-11-20T00:25:24.183Z</time>
      </trkpt>
      <trkpt lat="47.545763" lon="7.950733">
        <ele>297.311314</ele>
        <time>2021-11-20T00:25:25.691Z</time>
      </trkpt>
      <trkpt lat="47.545659" lon="7.950771">
        <ele>297.403912</ele>
        <time>2021-11-20T00:25:28.112Z</time>
      </trkpt>
      <trkpt lat="47.545625" lon="7.950771">
        <ele>297.432928</ele>
        <time>2021-11-20T00:25:29.010Z</time>
      </trkpt>
      <trkpt lat="47.545567" lon="7.950765">
        <ele>297.482547</ele>
        <time>2021-11-20T00:25:30.423Z</time>
      </trkpt>
      <trkpt lat="47.545494" lon="7.950684">
        <ele>297.560383</ele>
        <time>2021-11-20T00:25:32.560Z</time>
      </trkpt>
      <trkpt lat="47.545434" lon="7.950668">
        <ele>297.612412</ele>
        <time>2021-11-20T00:25:34.039Z</time>
      </trkpt>
      <trkpt lat="47.545166" lon="7.950366">
        <ele>297.899775</ele>
        <time>2021-11-20T00:25:40.810Z</time>
      </trkpt>
      <trkpt lat="47.544901" lon="7.950044">
        <ele>298.192272</ele>
        <time>2021-11-20T00:25:46.446Z</time>
      </trkpt>
      <trkpt lat="47.544521" lon="7.949558">
        <ele>298.620704</ele>
        <time>2021-11-20T00:25:53.143Z</time>
      </trkpt>
      <trkpt lat="47.544239" lon="7.949202">
        <ele>298.964287</ele>
        <time>2021-11-20T00:25:58.105Z</time>
      </trkpt>
      <trkpt lat="47.543864" lon="7.948694">
        <ele>299.531350</ele>
        <time>2021-11-20T00:26:06.069Z</time>
      </trkpt>
      <trkpt lat="47.543760" lon="7.948548">
        <ele>299.691240</ele>
        <time>2021-11-20T00:26:08.311Z</time>
      </trkpt>
      <trkpt lat="47.543579" lon="7.948287">
        <ele>299.973115</ele>
        <time>2021-11-20T00:26:14.028Z</time>
      </trkpt>
      <trkpt lat="47.543532" lon="7.948214">
        <ele>300.049107</ele>
        <time>2021-11-20T00:26:15.155Z</time>
      </trkpt>
      <trkpt lat="47.543435" lon="7.948000">
        <ele>300.243283</ele>
        <time>2021-11-20T00:26:18.217Z</time>
      </trkpt>
      <trkpt lat="47.543407" lon="7.947938">
        <ele>300.299476</ele>
        <time>2021-11-20T00:26:20.074Z</time>
      </trkpt>
      <trkpt lat="47.543280" lon="7.947656">
        <ele>300.554843</ele>
        <time>2021-11-20T00:26:24.561Z</time>
      </trkpt>
      <trkpt lat="47.543142" lon="7.947250">
        <ele>300.955987</ele>
        <time>2021-11-20T00:26:32.025Z</time>
      </trkpt>
      <trkpt lat="47.543086" lon="7.947052">
        <ele>301.342585</ele>
        <time>2021-11-20T00:26:35.454Z</time>
      </trkpt>
      <trkpt lat="47.543056" lon="7.946935">
        <ele>301.567972</ele>
        <time>2021-11-20T00:26:38.296Z</time>
      </trkpt>
      <trkpt lat="47.543045" lon="7.946881">
        <ele>301.669549</ele>
        <time>2021-11-20T00:26:39.452Z</time>
      </trkpt>
      <trkpt lat="47.542982" lon="7.946547">
        <ele>302.294072</ele>
        <time>2021-11-20T00:26:44.852Z</time>
      </trkpt>
      <trkpt lat="47.542974" lon="7.946495">
        <ele>302.390117</ele>
        <time>2021-11-20T00:26:46.493Z</time>
      </trkpt>
      <trkpt lat="47.542960" lon="7.946400">
        <ele>302.565227</ele>
        <time>2021-11-20T00:26:48.558Z</time>
      </trkpt>
      <trkpt lat="47.542916" lon="7.945730">
        <ele>303.777491</ele>
        <time>2021-11-20T00:27:01.224Z</time>
      </trkpt>
      <trkpt lat="47.542913" lon="7.945267">
        <ele>304.611322</ele>
        <time>2021-11-20T00:27:09.719Z</time>
      </trkpt>
      <trkpt lat="47.543007" lon="7.943867">
        <ele>306.034730</ele>
        <time>2021-11-20T00:27:30.886Z</time>
      </trkpt>
      <trkpt lat="47.543161" lon="7.942213">
        <ele>306.803431</ele>
        <time>2021-11-20T00:27:49.292Z</time>
      </trkpt>
      <trkpt lat="47.543435" lon="7.940670">
        <ele>305.652008</ele>
        <time>2021-11-20T00:28:02.240Z</time>
      </trkpt>
      <trkpt lat="47.543826" lon="7.939433">
        <ele>304.430938</ele>
        <time>2021-11-20T00:28:12.642Z</time>
      </trkpt>
      <trkpt lat="47.544472" lon="7.937932">
        <ele>302.257462</ele>
        <time>2021-11-20T00:28:25.965Z</time>
      </trkpt>
      <trkpt lat="47.544705" lon="7.937395">
        <ele>301.478041</ele>
        <time>2021-11-20T00:28:30.805Z</time>
      </trkpt>
      <trkpt lat="47.544903" lon="7.936917">
        <ele>300.880178</ele>
        <time>2021-11-20T00:28:35.066Z</time>
      </trkpt>
      <trkpt lat="47.545074" lon="7.936484">
        <ele>300.365616</ele>
        <time>2021-11-20T00:28:38.896Z</time>
      </trkpt>
      <trkpt lat="47.545457" lon="7.935110">
        <ele>298.840850</ele>
        <time>2021-11-20T00:28:50.265Z</time>
      </trkpt>
      <trkpt lat="47.545674" lon="7.933625">
        <ele>298.629858</ele>
        <time>2021-11-20T00:29:03.345Z</time>
      </trkpt>
      <trkpt lat="47.545702" lon="7.933290">
        <ele>298.636771</ele>
        <time>2021-11-20T00:29:06.925Z</time>
      </trkpt>
      <trkpt lat="47.545724" lon="7.932758">
        <ele>298.647685</ele>
        <time>2021-11-20T00:29:13.192Z</time>
      </trkpt>
      <trkpt lat="47.545721" lon="7.931992">
        <ele>298.997554</ele>
        <time>2021-11-20T00:29:23.231Z</time>
      </trkpt>
      <trkpt lat="47.545696" lon="7.931497">
        <ele>299.645966</ele>
        <time>2021-11-20T00:29:30.437Z</time>
      </trkpt>
      <trkpt lat="47.545661" lon="7.930955">
        <ele>300.357197</ele>
        <time>2021-11-20T00:29:39.132Z</time>
      </trkpt>
      <trkpt lat="47.545563" lon="7.929641">
        <ele>302.084085</ele>
        <time>2021-11-20T00:30:01.472Z</time>
      </trkpt>
      <trkpt lat="47.545475" lon="7.928419">
        <ele>301.932468</ele>
        <time>2021-11-20T00:30:17.774Z</time>
      </trkpt>
      <trkpt lat="47.545421" lon="7.927686">
        <ele>301.804300</ele>
        <time>2021-11-20T00:30:23.878Z</time>
      </trkpt>
      <trkpt lat="47.545406" lon="7.927306">
        <ele>301.738135</ele>
        <time>2021-11-20T00:30:26.782Z</time>
      </trkpt>
      <trkpt lat="47.545407" lon="7.927001">
        <ele>301.685119</ele>
        <time>2021-11-20T00:30:29.068Z</time>
      </trkpt>
      <trkpt lat="47.545409" lon="7.926773">
        <ele>301.256901</ele>
        <time>2021-11-20T00:30:30.697Z</time>
      </trkpt>
      <trkpt lat="47.545417" lon="7.925848">
        <ele>299.023456</ele>
        <time>2021-11-20T00:30:37.032Z</time>
      </trkpt>
      <trkpt lat="47.545446" lon="7.925350">
        <ele>297.816651</ele>
        <time>2021-11-20T00:30:40.324Z</time>
      </trkpt>
      <trkpt lat="47.545466" lon="7.924880">
        <ele>296.679661</ele>
        <time>2021-11-20T00:30:43.378Z</time>
      </trkpt>
      <trkpt lat="47.545481" lon="7.924396">
        <ele>295.509892</ele>
        <time>2021-11-20T00:30:46.461Z</time>
      </trkpt>
      <trkpt lat="47.545521" lon="7.923709">
        <ele>294.270981</ele>
        <time>2021-11-20T00:30:50.986Z</time>
      </trkpt>
      <trkpt lat="47.545536" lon="7.923407">
        <ele>293.762732</ele>
        <time>2021-11-20T00:30:53.376Z</time>
      </trkpt>
      <trkpt lat="47.545553" lon="7.923142">
        <ele>293.315951</ele>
        <time>2021-11-20T00:30:55.097Z</time>
      </trkpt>
      <trkpt lat="47.545587" lon="7.922895">
        <ele>292.892853</ele>
        <time>2021-11-20T00:30:57.498Z</time>
      </trkpt>
      <trkpt lat="47.545641" lon="7.922610">
        <ele>292.396020</ele>
        <time>2021-11-20T00:30:59.497Z</time>
      </trkpt>
      <trkpt lat="47.545690" lon="7.922369">
        <ele>291.973574</ele>
        <time>2021-11-20T00:31:02.188Z</time>
      </trkpt>
      <trkpt lat="47.545699" lon="7.922325">
        <ele>291.896408</ele>
        <time>2021-11-20T00:31:02.449Z</time>
      </trkpt>
      <trkpt lat="47.545714" lon="7.922249">
        <ele>291.763508</ele>
        <time>2021-11-20T00:31:03.039Z</time>
      </trkpt>
      <trkpt lat="47.545778" lon="7.921947">
        <ele>291.232238</ele>
        <time>2021-11-20T00:31:06.195Z</time>
      </trkpt>
      <trkpt lat="47.545810" lon="7.921755">
        <ele>290.900308</ele>
        <time>2021-11-20T00:31:07.552Z</time>
      </trkpt>
      <trkpt lat="47.545881" lon="7.921096">
        <ele>290.548884</ele>
        <time>2021-11-20T00:31:12.901Z</time>
      </trkpt>
      <trkpt lat="47.545913" lon="7.920765">
        <ele>290.423524</ele>
        <time>2021-11-20T00:31:15.768Z</time>
      </trkpt>
      <trkpt lat="47.545973" lon="7.920313">
        <ele>290.250821</ele>
        <time>2021-11-20T00:31:20.915Z</time>
      </trkpt>
      <trkpt lat="47.546128" lon="7.919617">
        <ele>289.976051</ele>
        <time>2021-11-20T00:31:27.378Z</time>
      </trkpt>
      <trkpt lat="47.546262" lon="7.919081">
        <ele>289.762491</ele>
        <time>2021-11-20T00:31:33.377Z</time>
      </trkpt>
      <trkpt lat="47.546821" lon="7.916867">
        <ele>288.946498</ele>
        <time>2021-11-20T00:31:54.130Z</time>
      </trkpt>
      <trkpt lat="47.547032" lon="7.916218">
        <ele>288.806659</ele>
        <time>2021-11-20T00:32:00.620Z</time>
      </trkpt>
      <trkpt lat="47.547091" lon="7.916039">
        <ele>288.786718</ele>
        <time>2021-11-20T00:32:02.438Z</time>
      </trkpt>
      <trkpt lat="47.547113" lon="7.915971">
        <ele>288.779170</ele>
        <time>2021-11-20T00:32:03.037Z</time>
      </trkpt>
      <trkpt lat="47.547423" lon="7.915080">
        <ele>288.678828</ele>
        <time>2021-11-20T00:32:12.681Z</time>
      </trkpt>
      <trkpt lat="47.547994" lon="7.913433">
        <ele>289.063699</ele>
        <time>2021-11-20T00:32:32.400Z</time>
      </trkpt>
      <trkpt lat="47.548027" lon="7.913334">
        <ele>289.121996</ele>
        <time>2021-11-20T00:32:33.759Z</time>
      </trkpt>
      <trkpt lat="47.548412" lon="7.912168">
        <ele>289.807339</ele>
        <time>2021-11-20T00:32:50.162Z</time>
      </trkpt>
      <trkpt lat="47.549012" lon="7.910340">
        <ele>291.312659</ele>
        <time>2021-11-20T00:33:17.129Z</time>
      </trkpt>
      <trkpt lat="47.549102" lon="7.910058">
        <ele>291.557384</ele>
        <time>2021-11-20T00:33:21.291Z</time>
      </trkpt>
      <trkpt lat="47.549195" lon="7.909756">
        <ele>291.817808</ele>
        <time>2021-11-20T00:33:25.558Z</time>
      </trkpt>
      <trkpt lat="47.549257" lon="7.909549">
        <ele>291.995478</ele>
        <time>2021-11-20T00:33:28.542Z</time>
      </trkpt>
      <trkpt lat="47.549305" lon="7.909392">
        <ele>292.160741</ele>
        <time>2021-11-20T00:33:30.681Z</time>
      </trkpt>
      <trkpt lat="47.549520" lon="7.908678">
        <ele>293.152277</ele>
        <time>2021-11-20T00:33:40.868Z</time>
      </trkpt>
      <trkpt lat="47.549539" lon="7.908625">
        <ele>293.228385</ele>
        <time>2021-11-20T00:33:41.619Z</time>
      </trkpt>
      <trkpt lat="47.550497" lon="7.905558">
        <ele>298.662592</ele>
        <time>2021-11-20T00:34:36.459Z</time>
      </trkpt>
      <trkpt lat="47.550283" lon="7.905413">
        <ele>299.352084</ele>
        <time>2021-11-20T00:34:44.626Z</time>
      </trkpt>
      <trkpt lat="47.550067" lon="7.905245">
        <ele>300.066884</ele>
        <time>2021-11-20T00:34:53.312Z</time>
      </trkpt>
      <trkpt lat="47.549867" lon="7.905155">
        <ele>300.679330</ele>
        <time>2021-11-20T00:35:00.940Z</time>
      </trkpt>
      <trkpt lat="47.549868" lon="7.905010">
        <ele>301.037966</ele>
        <time>2021-11-20T00:35:04.345Z</time>
      </trkpt>
      <trkpt lat="47.550025" lon="7.904774">
        <ele>301.894200</ele>
        <time>2021-11-20T00:35:12.497Z</time>
      </trkpt>
      <trkpt lat="47.550302" lon="7.904164">
        <ele>303.793933</ele>
        <time>2021-11-20T00:35:30.796Z</time>
      </trkpt>
      <trkpt lat="47.550498" lon="7.903445">
        <ele>305.797585</ele>
        <time>2021-11-20T00:35:50.368Z</time>
      </trkpt>
      <trkpt lat="47.550688" lon="7.902451">
        <ele>308.488432</ele>
        <time>2021-11-20T00:36:12.916Z</time>
      </trkpt>
      <trkpt lat="47.550757" lon="7.901591">
        <ele>310.782669</ele>
        <time>2021-11-20T00:36:32.712Z</time>
      </trkpt>
      <trkpt lat="47.550769" lon="7.901362">
        <ele>311.391131</ele>
        <time>2021-11-20T00:36:38.620Z</time>
      </trkpt>
      <trkpt lat="47.550801" lon="7.900244">
        <ele>314.355446</ele>
        <time>2021-11-20T00:37:03.018Z</time>
      </trkpt>
      <trkpt lat="47.550819" lon="7.898109">
        <ele>319.968066</ele>
        <time>2021-11-20T00:37:50.058Z</time>
      </trkpt>
      <trkpt lat="47.550648" lon="7.896481">
        <ele>322.764528</ele>
        <time>2021-11-20T00:38:17.713Z</time>
      </trkpt>
      <trkpt lat="47.550639" lon="7.896345">
        <ele>322.913407</ele>
        <time>2021-11-20T00:38:20.088Z</time>
      </trkpt>
      <trkpt lat="47.550660" lon="7.896255">
        <ele>323.017154</ele>
        <time>2021-11-20T00:38:20.889Z</time>
      </trkpt>
      <trkpt lat="47.550838" lon="7.895509">
        <ele>323.879192</ele>
        <time>2021-11-20T00:38:31.057Z</time>
      </trkpt>
      <trkpt lat="47.550878" lon="7.895158">
        <ele>324.267008</ele>
        <time>2021-11-20T00:38:35.119Z</time>
      </trkpt>
      <trkpt lat="47.550908" lon="7.894308">
        <ele>325.400867</ele>
        <time>2021-11-20T00:38:45.591Z</time>
      </trkpt>
      <trkpt lat="47.550892" lon="7.893176">
        <ele>327.050695</ele>
        <time>2021-11-20T00:39:00.309Z</time>
      </trkpt>
      <trkpt lat="47.550904" lon="7.891725">
        <ele>330.288028</ele>
        <time>2021-11-20T00:39:30.071Z</time>
      </trkpt>
      <trkpt lat="47.550915" lon="7.890600">
        <ele>334.558244</ele>
        <time>2021-11-20T00:39:58.911Z</time>
      </trkpt>
      <trkpt lat="47.550833" lon="7.889069">
        <ele>340.546081</ele>
        <time>2021-11-20T00:40:41.545Z</time>
      </trkpt>
      <trkpt lat="47.550831" lon="7.888611">
        <ele>342.437192</ele>
        <time>2021-11-20T00:40:54.115Z</time>
      </trkpt>
      <trkpt lat="47.550789" lon="7.887816">
        <ele>345.729769</ele>
        <time>2021-11-20T00:41:14.726Z</time>
      </trkpt>
      <trkpt lat="47.550758" lon="7.887295">
        <ele>347.889311</ele>
        <time>2021-11-20T00:41:28.548Z</time>
      </trkpt>
      <trkpt lat="47.550677" lon="7.886476">
        <ele>351.029850</ele>
        <time>2021-11-20T00:41:50.037Z</time>
      </trkpt>
      <trkpt lat="47.550548" lon="7.885799">
        <ele>353.467406</ele>
        <time>2021-11-20T00:42:07.240Z</time>
      </trkpt>
      <trkpt lat="47.550391" lon="7.885109">
        <ele>355.990530</ele>
        <time>2021-11-20T00:42:24.877Z</time>
      </trkpt>
      <trkpt lat="47.550332" lon="7.884727">
        <ele>357.348414</ele>
        <time>2021-11-20T00:42:33.568Z</time>
      </trkpt>
      <trkpt lat="47.550234" lon="7.883221">
        <ele>361.495745</ele>
        <time>2021-11-20T00:43:06.399Z</time>
      </trkpt>
      <trkpt lat="47.549927" lon="7.881490">
        <ele>365.961572</ele>
        <time>2021-11-20T00:43:38.663Z</time>
      </trkpt>
      <trkpt lat="47.549726" lon="7.880786">
        <ele>368.070234</ele>
        <time>2021-11-20T00:43:54.639Z</time>
      </trkpt>
      <trkpt lat="47.549327" lon="7.879547">
        <ele>371.857263</ele>
        <time>2021-11-20T00:44:24.423Z</time>
      </trkpt>
      <trkpt lat="47.549318" lon="7.879398">
        <ele>372.269941</ele>
        <time>2021-11-20T00:44:27.612Z</time>
      </trkpt>
      <trkpt lat="47.549140" lon="7.879391">
        <ele>372.934051</ele>
        <time>2021-11-20T00:44:34.482Z</time>
      </trkpt>
      <trkpt lat="47.548718" lon="7.879258">
        <ele>374.289595</ele>
        <time>2021-11-20T00:44:48.153Z</time>
      </trkpt>
      <trkpt lat="47.548422" lon="7.878959">
        <ele>375.415185</ele>
        <time>2021-11-20T00:44:58.799Z</time>
      </trkpt>
      <trkpt lat="47.548234" lon="7.878638">
        <ele>376.316462</ele>
        <time>2021-11-20T00:45:07.231Z</time>
      </trkpt>
      <trkpt lat="47.547992" lon="7.877974">
        <ele>377.916759</ele>
        <time>2021-11-20T00:45:20.329Z</time>
      </trkpt>
      <trkpt lat="47.547574" lon="7.876801">
        <ele>377.294258</ele>
        <time>2021-11-20T00:45:34.092Z</time>
      </trkpt>
      <trkpt lat="47.547126" lon="7.875801">
        <ele>376.128239</ele>
        <time>2021-11-20T00:45:42.875Z</time>
      </trkpt>
      <trkpt lat="47.546309" lon="7.874154">
        <ele>369.754470</ele>
        <time>2021-11-20T00:45:56.063Z</time>
      </trkpt>
      <trkpt lat="47.546135" lon="7.873859">
        <ele>368.356918</ele>
        <time>2021-11-20T00:45:58.445Z</time>
      </trkpt>
      <trkpt lat="47.546077" lon="7.873763">
        <ele>367.897302</ele>
        <time>2021-11-20T00:45:59.256Z</time>
      </trkpt>
      <trkpt lat="47.545934" lon="7.873549">
        <ele>366.823064</ele>
        <time>2021-11-20T00:46:01.061Z</time>
      </trkpt>
      <trkpt lat="47.545746" lon="7.873302">
        <ele>366.278910</ele>
        <time>2021-11-20T00:46:03.349Z</time>
      </trkpt>
      <trkpt lat="47.545515" lon="7.873015">
        <ele>366.278910</ele>
        <time>2021-11-20T00:46:06.049Z</time>
      </trkpt>
      <trkpt lat="47.545478" lon="7.872968">
        <ele>366.278910</ele>
        <time>2021-11-20T00:46:06.491Z</time>
      </trkpt>
      <trkpt lat="47.545375" lon="7.872836">
        <ele>366.278910</ele>
        <time>2021-11-20T00:46:07.685Z</time>
      </trkpt>
      <trkpt lat="47.545131" lon="7.872664">
        <ele>366.278910</ele>
        <time>2021-11-20T00:46:10.156Z</time>
      </trkpt>
      <trkpt lat="47.544883" lon="7.872555">
        <ele>366.278910</ele>
        <time>2021-11-20T00:46:12.504Z</time>
      </trkpt>
      <trkpt lat="47.544390" lon="7.872423">
        <ele>366.278910</ele>
        <time>2021-11-20T00:46:17.130Z</time>
      </trkpt>
      <trkpt lat="47.543829" lon="7.872324">
        <ele>366.278910</ele>
        <time>2021-11-20T00:46:22.561Z</time>
      </trkpt>
    </trkseg>
  </trk>
</gpx>